GFSGL_sfc_dewp_000.txt.gz
Dewpoint
72 74 74 73 73 75 74 75 74 73 70 69 68 65 65 64 65 66 65 62 62 63 62 63 64 66 59 56 55 55 55 55 54 53 54 57 61 62 61 62 60 60 58
72 74 73 73 73 73 74 74 73 72 69 69 67 67 65 64 64 65 63 61 61 61 62 63 64 60 64 65 59 63 59 60 57 60 60 57 61 61 61 63 60 56 57
70 71 72 72 72 73 74 72 72 69 69 67 67 68 68 67 65 65 65 64 62 61 62 63 63 63 63 60 61 58 56 57 58 55 57 56 55 56 58 63 61 61 56
67 69 71 72 72 73 72 69 67 67 67 67 68 67 66 66 65 65 64 64 62 61 63 63 64 64 64 63 61 63 62 59 60 55 56 53 55 59 58 55 54 52 51
68 68 71 73 73 72 70 67 66 66 67 64 64 63 64 66 63 66 64 62 63 63 64 64 64 65 64 63 59 62 63 59 56 54 54 52 53 54 57 53 52 53 57
70 70 72 75 73 70 70 69 69 68 66 64 63 64 64 63 60 61 63 62 63 64 64 65 67 66 65 63 63 62 62 61 60 54 53 53 60 61 57 54 54 53 52
71 72 73 74 71 70 69 69 68 67 67 65 64 64 64 65 60 60 62 62 62 66 66 67 65 63 65 64 63 61 61 60 60 61 60 60 62 60 60 61 58 56 53
72 72 73 73 70 70 69 69 68 65 65 65 65 65 64 63 61 60 62 65 67 66 66 64 65 64 64 64 63 61 60 60 61 61 61 59 60 59 58 57 58 57 57
71 72 72 71 69 69 69 68 68 66 65 65 66 66 66 65 58 58 62 63 64 65 65 64 64 65 61 57 60 60 60 60 58 57 56 55 54 55 55 54 52 52 52
71 71 71 70 70 69 69 69 69 68 66 63 65 66 63 67 58 56 60 60 64 63 65 64 59 61 55 55 59 59 58 57 57 56 56 56 56 55 56 57 54 53 51
71 71 70 71 71 71 70 69 68 67 67 67 66 67 66 65 65 56 56 63 60 61 62 66 62 54 53 52 52 58 56 55 54 54 51 47 47 50 49 51 53 48 45
72 70 71 70 69 69 70 69 68 68 67 66 69 68 66 66 59 56 54 56 60 61 64 60 57 50 49 51 52 52 51 50 50 49 47 44 45 46 45 46 51 51 47
71 70 70 70 69 69 69 67 66 66 63 66 66 64 61 63 63 54 53 53 56 61 59 52 49 48 47 47 51 50 49 50 49 47 44 44 45 44 48 50 49 54 55
71 70 70 70 69 69 67 67 67 66 64 67 65 63 59 63 60 59 58 56 52 54 51 52 52 51 50 51 51 50 50 49 47 45 44 44 44 42 40 37 34 36 46
70 69 69 68 67 68 65 60 65 62 58 59 59 59 63 63 58 55 54 56 55 52 54 53 52 51 51 51 51 50 49 47 45 44 43 42 40 37 35 34 33 42 47
67 66 65 65 66 66 63 61 45 45 46 45 45 54 58 49 45 43 42 43 43 44 48 49 48 49 48 48 47 45 44 43 43 42 40 39 36 35 33 33 35 43 47
66 67 64 61 60 61 61 59 57 49 43 41 41 42 45 45 41 40 40 40 42 43 47 48 47 47 46 45 43 41 40 40 45 39 38 37 34 34 33 33 35 41 45
65 58 61 60 59 58 59 59 58 57 55 53 44 45 40 40 40 40 40 42 46 45 47 47 46 45 44 42 42 40 39 38 35 34 34 34 33 33 32 33 35 40 44
60 59 58 57 56 56 57 56 56 56 55 55 49 44 42 39 39 40 41 49 48 46 45 43 43 42 42 42 42 41 39 33 30 33 33 32 31 31 32 33 33 39 43
58 58 56 56 58 58 58 56 56 55 54 55 52 51 49 47 49 50 49 49 47 44 44 43 43 43 44 44 41 37 32 30 33 32 31 31 31 31 30 31 31 33 41
56 58 57 57 56 55 54 53 52 52 52 51 51 51 48 51 49 49 49 48 46 45 45 44 44 43 43 40 35 31 27 30 31 31 30 30 31 29 31 30 28 29 33
56 54 53 52 53 54 54 55 54 52 51 50 50 51 46 51 50 51 50 47 46 46 44 45 42 38 34 32 30 26 28 29 32 31 30 29 29 28 28 28 27 28 29
53 53 54 54 54 54 55 53 53 52 51 52 52 52 51 51 50 50 49 48 46 45 44 42 39 34 32 26 24 26 26 30 31 31 31 30 28 28 29 28 26 27 27
53 52 52 51 52 50 49 50 51 50 51 52 52 52 51 49 50 50 48 46 45 45 44 41 38 33 30 22 22 23 26 29 30 30 33 31 29 31 30 28 26 28 27
50 51 51 51 50 49 49 48 48 48 48 48 47 47 47 49 50 49 48 46 45 45 43 39 37 34 29 26 18 20 27 26 30 30 31 33 32 34 29 26 27 25 28
46 47 47 47 47 46 45 45 45 44 43 43 43 44 44 45 46 49 47 45 44 43 42 40 37 34 29 25 26 27 25 26 28 30 30 31 29 29 27 27 27 24 26

GFSGL_sfc_dewp_003.txt.gz
Dewpoint
75 75 76 75 75 76 75 75 75 74 74 72 72 70 68 67 67 68 67 65 67 67 67 64 66 68 60 56 55 56 54 55 53 56 56 60 67 65 63 64 61 63 59
74 76 76 76 75 75 76 76 76 75 74 72 72 70 67 67 68 67 65 63 63 62 62 66 65 60 69 69 59 67 64 63 57 62 61 58 63 65 66 66 60 55 58
72 72 74 74 75 75 76 76 76 76 74 70 71 70 67 67 67 67 67 65 63 62 62 65 64 66 68 63 66 62 60 63 61 55 56 58 58 60 60 64 65 63 60
66 68 73 75 75 74 76 76 75 75 73 70 70 68 67 66 66 65 65 65 65 64 64 65 65 66 68 68 67 68 66 64 61 57 55 56 57 58 58 55 56 58 57
69 69 73 76 75 75 76 77 75 73 71 69 68 67 66 63 62 66 65 65 66 65 63 63 65 67 66 66 66 63 67 63 58 57 56 55 56 54 57 57 56 55 57
72 71 74 77 76 76 76 75 73 72 70 68 66 65 65 60 60 63 65 63 65 65 66 65 68 66 64 64 64 64 64 63 63 60 56 56 61 61 62 61 60 53 51
74 74 76 78 76 75 74 74 72 71 70 68 65 66 65 65 60 61 63 63 64 65 67 66 65 61 64 63 64 63 63 62 61 62 62 62 62 61 62 61 60 56 54
75 75 76 77 75 73 72 72 72 71 70 68 66 67 66 65 60 60 63 65 64 64 65 65 66 66 66 65 64 64 64 64 64 61 62 63 62 60 60 58 59 59 56
73 75 76 76 74 72 71 71 71 71 71 68 66 68 67 67 58 58 62 65 65 66 65 65 67 65 63 60 62 61 63 64 60 60 58 55 54 54 55 54 51 49 47
73 74 76 75 74 71 71 71 72 72 70 65 65 67 65 68 57 57 61 64 62 59 69 68 61 61 58 57 62 61 61 61 59 58 59 57 56 57 56 57 54 52 48
71 72 74 73 72 71 72 72 71 71 69 67 66 67 69 67 65 56 56 63 58 61 60 65 60 56 55 54 53 59 59 57 59 55 52 52 53 52 46 51 57 48 44
73 73 72 72 70 70 72 70 70 70 69 68 69 68 66 68 60 55 55 55 60 62 60 59 67 55 54 53 53 53 51 51 51 49 49 50 48 44 45 48 56 53 50
74 73 72 72 72 72 71 70 69 69 65 65 65 63 63 65 70 56 55 54 56 62 65 56 54 52 50 49 50 52 51 50 49 51 49 47 43 44 53 51 53 54 52
72 71 71 71 70 71 69 68 66 65 64 63 63 65 65 68 66 66 61 60 56 59 54 55 54 53 51 52 52 51 51 51 50 49 45 44 44 42 41 38 35 33 33
71 70 72 70 70 69 66 64 68 68 65 63 62 65 65 59 60 57 58 60 58 55 57 56 54 54 52 54 54 54 53 50 48 45 44 42 40 39 37 35 33 34 36
70 70 69 68 69 68 63 59 47 48 47 47 45 53 57 48 45 44 43 45 45 47 54 52 50 49 49 48 51 50 48 46 45 44 42 40 38 37 35 34 34 35 37
69 69 67 64 65 65 65 63 61 51 44 42 42 44 47 46 42 41 41 42 43 45 49 47 48 48 48 47 45 44 42 42 48 40 39 38 36 34 34 33 34 35 38
67 60 63 62 60 61 60 59 56 57 56 55 45 46 41 41 40 40 41 44 46 45 47 47 47 46 45 44 43 42 41 39 38 36 35 35 34 33 32 33 33 35 35
64 60 60 58 57 56 56 56 54 54 54 56 51 47 43 40 40 41 42 51 48 47 46 46 45 44 43 43 43 43 42 38 34 32 35 33 32 32 32 32 32 37 37
60 59 57 56 56 56 55 54 52 52 51 56 54 52 49 47 49 50 50 51 49 47 46 46 45 45 45 45 44 41 38 33 32 33 32 32 32 31 30 30 30 30 32
55 56 57 56 54 54 53 51 50 49 48 48 52 53 47 51 52 53 50 51 50 47 47 47 46 47 46 45 42 37 31 28 30 31 31 31 32 30 31 30 29 27 27
55 55 54 53 52 52 52 52 51 49 48 48 53 51 46 52 50 51 51 54 50 49 48 48 47 44 41 38 36 31 26 27 30 31 30 30 30 30 30 29 28 27 26
55 52 52 51 51 53 52 52 50 50 49 52 53 53 52 52 51 52 54 54 53 48 47 46 44 41 37 35 29 25 24 26 30 30 31 31 30 30 31 31 28 27 27
54 52 54 53 53 51 49 49 49 49 49 50 51 54 54 51 53 55 53 52 49 48 46 45 42 38 37 33 24 22 23 27 30 28 34 32 31 32 33 30 27 28 26
53 53 53 54 52 49 47 46 47 47 48 48 51 50 51 51 51 50 50 49 48 47 47 44 41 39 37 33 26 24 28 27 26 29 27 33 33 35 31 28 28 26 27
54 51 49 49 47 46 46 45 44 45 46 46 43 43 46 48 47 48 49 49 49 47 46 43 41 40 36 31 28 27 25 24 27 29 30 29 32 31 30 28 28 25 26

GFSGL_sfc_dewp_006.txt.gz
Dewpoint
76 76 76 76 76 76 76 76 74 75 73 73 71 72 72 70 71 70 69 68 68 68 68 68 67 68 67 65 66 64 62 62 60 61 62 63 63 64 63 64 65 64 64
75 76 76 76 77 76 75 76 75 76 74 72 73 72 71 69 70 69 67 65 68 67 68 68 67 64 68 67 67 66 65 65 63 62 63 63 63 65 65 65 63 59 61
74 74 75 75 75 76 76 75 75 75 74 73 72 72 70 68 69 68 68 67 67 66 66 67 66 67 67 68 67 67 66 65 64 62 61 62 62 61 61 62 62 64 63
72 72 73 74 75 74 75 76 75 75 74 74 72 72 70 68 68 67 68 67 67 66 68 68 67 66 67 67 66 67 67 66 64 63 62 62 62 61 62 60 59 62 62
70 72 73 75 75 75 75 75 75 76 75 75 73 71 69 66 65 67 67 67 67 67 66 67 67 67 66 67 67 66 67 65 63 60 59 59 57 60 59 60 59 59 59
69 70 72 74 75 75 75 76 76 76 75 75 71 69 68 64 62 64 67 66 67 67 66 67 68 66 65 64 64 64 66 64 62 60 60 59 58 61 62 60 59 57 55
69 71 72 74 75 75 75 76 76 76 75 73 70 68 66 67 61 62 64 66 66 67 66 68 65 64 66 66 64 63 63 62 61 60 59 60 61 62 61 60 59 58 56
73 72 73 75 75 75 75 75 76 74 73 72 70 67 66 66 60 60 63 64 66 67 66 67 65 66 67 67 66 66 64 63 64 64 62 61 63 64 62 59 58 57 56
71 74 74 77 76 76 75 75 74 73 72 71 69 67 67 67 59 59 61 64 65 65 66 66 66 68 64 61 64 62 62 64 62 60 62 60 56 54 56 58 54 53 51
72 74 77 77 77 75 74 73 72 72 72 71 68 68 65 69 58 57 60 63 64 65 67 67 62 64 60 58 63 63 63 63 63 62 61 59 57 57 56 57 55 53 52
75 75 77 77 76 74 72 72 72 72 73 70 67 67 68 68 67 55 56 64 64 64 63 65 65 58 56 55 55 62 59 56 58 59 58 55 56 57 56 58 59 57 51
76 76 77 75 72 71 72 72 72 71 69 69 68 68 71 71 63 55 55 57 62 64 64 66 62 54 55 55 53 53 52 53 55 55 54 53 54 53 53 54 55 55 54
75 76 75 73 71 71 72 70 69 70 68 67 67 69 69 69 67 57 54 54 55 60 65 57 55 52 54 51 52 52 52 54 53 52 52 54 52 53 55 53 54 54 52
75 73 72 71 72 73 72 70 68 68 67 66 69 69 69 69 67 64 61 60 57 59 56 56 55 55 54 55 55 51 53 55 54 55 53 53 54 51 49 50 47 46 42
72 71 70 70 70 70 63 62 67 59 60 69 71 69 66 66 66 62 62 63 62 59 59 59 56 57 56 55 55 56 55 55 55 55 53 51 49 48 48 48 46 41 41
70 70 70 70 69 66 61 57 46 47 45 46 47 57 58 51 49 47 45 45 47 51 59 61 60 57 55 55 55 54 55 55 55 52 51 49 47 47 46 45 44 45 43
70 71 69 68 69 66 64 62 57 50 44 43 43 44 49 46 43 42 42 42 45 50 59 58 54 56 56 55 54 52 51 53 53 50 49 48 46 45 44 43 43 44 43
70 62 68 67 67 67 67 65 63 59 57 54 45 46 41 41 41 41 42 46 50 50 54 53 53 55 55 53 52 51 51 50 48 47 45 43 43 45 43 42 42 42 41
68 67 66 65 68 66 66 63 61 60 59 54 51 47 43 41 41 43 43 55 53 51 51 52 53 53 53 53 53 53 51 48 45 43 42 42 44 41 41 40 39 40 40
67 62 62 60 60 61 60 58 57 59 57 55 53 51 49 48 50 51 52 54 53 52 54 53 53 53 54 53 53 52 49 46 44 44 44 44 43 42 37 37 37 36 39
60 60 59 59 59 57 56 55 54 53 55 56 54 52 47 53 53 53 53 55 54 54 56 55 55 55 54 53 52 48 43 39 40 42 41 41 42 39 41 40 35 34 34
58 58 59 57 57 58 57 56 54 51 52 54 56 50 45 53 53 55 56 54 55 56 52 55 53 53 50 49 47 43 40 36 39 40 40 39 39 38 39 35 35 34 34
58 53 58 56 56 54 53 53 51 51 51 53 52 50 50 53 56 55 55 55 55 53 52 50 52 49 48 46 41 39 33 34 40 39 39 39 37 37 37 37 35 34 32
60 56 56 56 55 55 54 55 52 48 50 51 53 54 54 54 52 54 54 55 53 53 53 50 48 46 47 43 41 35 35 38 37 35 38 36 35 37 38 37 34 34 32
59 59 57 56 56 55 52 49 50 49 51 50 49 51 52 53 52 52 52 53 52 52 51 50 49 47 45 43 38 29 27 29 32 29 32 37 36 39 39 34 35 32 34
59 58 56 54 54 53 53 51 49 50 49 51 50 50 52 52 51 51 52 51 51 50 50 49 48 46 44 40 36 27 26 28 31 29 30 32 33 37 37 36 35 32 34

GFSGL_sfc_dewp_009.txt.gz
Dewpoint
74 74 74 74 73 72 73 72 71 71 70 70 70 72 70 68 68 67 64 64 65 62 63 62 63 63 62 60 62 60 59 59 56 57 57 59 58 57 59 61 62 62 62
74 74 74 74 74 73 72 72 73 71 70 70 70 69 70 68 68 67 65 64 63 64 63 62 61 61 63 62 63 63 62 61 60 57 60 59 59 58 60 61 63 62 60
74 74 74 74 74 74 72 74 74 70 71 70 68 69 69 68 67 67 65 64 65 64 65 64 63 62 62 63 64 64 63 63 61 60 59 61 61 60 58 59 60 59 61
74 74 73 73 74 74 74 72 74 73 72 69 69 69 69 68 67 67 66 65 65 65 64 64 63 63 63 64 63 63 63 63 62 61 59 60 61 59 60 58 57 58 58
72 73 72 73 73 74 74 74 72 73 73 72 70 70 69 67 66 66 66 65 65 64 64 65 64 65 66 64 65 64 64 63 62 60 58 57 57 56 58 57 58 58 58
71 72 72 72 73 73 74 74 74 72 73 73 71 70 69 66 64 65 66 65 65 65 64 65 62 66 65 64 64 64 65 63 59 58 57 57 57 58 58 58 58 56 55
69 71 71 71 72 72 73 73 74 73 74 74 71 70 68 67 62 63 65 65 65 64 65 66 64 65 65 64 63 63 63 63 61 59 57 57 57 58 58 56 56 56 55
67 69 70 71 71 73 73 73 74 74 74 72 70 69 68 67 60 61 63 65 65 64 66 66 64 62 64 63 63 62 63 62 61 62 60 59 60 60 60 58 57 54 54
65 67 69 70 72 73 73 73 74 74 72 71 70 67 66 66 60 58 61 63 64 64 65 65 63 63 63 61 62 61 60 60 61 60 61 61 59 58 58 55 53 51 51
63 66 69 70 72 74 73 74 73 72 71 71 69 67 64 66 59 58 59 62 61 62 63 63 61 62 61 59 60 59 58 60 57 57 58 57 56 55 56 54 53 52 50
63 71 73 74 74 74 73 71 71 70 71 70 69 66 65 65 62 56 56 61 60 62 62 62 63 59 57 57 58 59 58 52 53 53 54 54 53 54 56 56 57 55 52
73 76 76 74 73 72 70 70 70 70 69 67 66 65 66 67 60 55 55 57 61 62 61 61 57 55 55 57 54 52 51 52 52 52 52 51 51 49 49 48 49 53 52
76 75 72 72 71 70 70 69 69 67 66 66 65 65 66 66 64 56 54 54 56 59 61 59 54 54 54 53 53 52 52 50 50 50 50 51 48 48 47 45 44 42 41
74 72 70 70 70 70 69 68 68 68 67 66 65 65 65 65 62 59 56 56 57 57 56 56 55 53 52 53 53 52 50 51 52 51 51 49 49 43 43 44 41 39 37
71 70 70 70 70 61 55 57 62 54 61 66 66 65 63 64 64 60 58 60 59 58 56 54 53 53 52 52 53 53 52 52 53 52 51 46 42 42 42 41 39 36 36
69 69 69 69 62 59 57 53 45 46 45 45 51 59 54 51 53 51 50 51 51 52 57 56 54 55 55 55 54 53 55 55 54 46 44 42 41 42 39 39 38 38 39
69 69 68 65 63 62 59 57 52 48 45 43 43 49 50 47 47 44 43 44 47 52 56 56 54 53 52 52 54 53 50 50 46 44 43 42 39 38 40 38 37 38 37
69 63 68 67 65 63 63 60 56 55 54 51 44 44 42 42 42 42 43 47 50 50 53 51 51 51 49 47 46 45 45 43 41 37 34 34 34 38 37 36 36 36 36
68 68 68 68 67 65 65 63 59 57 55 51 47 45 42 41 41 42 44 53 52 50 49 49 51 48 47 48 47 47 43 41 36 34 33 37 39 36 34 34 36 40 39
68 64 65 67 66 66 65 65 62 60 54 52 52 49 45 45 47 47 49 51 51 51 52 51 50 49 48 47 47 44 42 40 38 38 38 38 36 36 33 34 36 34 34
65 63 62 63 64 63 62 59 60 59 54 54 53 50 46 50 51 51 50 52 52 52 51 50 50 49 48 47 46 43 38 36 34 35 35 33 34 34 36 36 33 34 35
63 61 61 60 61 60 58 57 55 57 56 54 54 49 44 52 53 53 53 54 54 52 51 51 50 49 47 47 45 39 35 31 32 35 34 33 34 34 36 33 34 36 34
60 60 60 59 59 57 55 53 52 55 54 54 52 49 48 51 54 54 54 53 52 51 50 50 49 46 45 40 36 32 28 29 35 36 36 35 33 34 35 35 35 35 30
60 60 59 57 57 55 54 54 53 52 54 52 51 50 50 53 53 53 54 53 52 51 51 48 47 43 38 37 34 31 35 34 33 31 30 28 29 34 36 36 36 32 31
60 60 60 58 57 56 55 52 52 53 52 55 53 52 54 53 53 53 54 53 52 50 48 48 46 44 41 29 23 20 28 29 22 27 30 31 31 31 33 35 30 31 32
58 58 57 56 56 54 53 52 49 51 49 49 52 53 54 53 53 52 52 52 51 50 50 49 46 43 41 32 25 25 27 30 27 28 25 27 29 31 35 34 31 33 32

GFSGL_sfc_dewp_012.txt.gz
Dewpoint
72 71 72 71 71 71 71 71 72 69 69 70 70 70 68 66 66 65 64 64 62 63 64 62 62 61 60 61 61 60 59 58 54 55 58 57 59 57 57 59 61 61 62
72 72 72 72 72 71 71 71 71 70 69 69 69 70 69 67 65 66 64 63 64 62 62 62 61 62 63 61 61 62 61 60 58 56 58 59 59 59 59 60 60 61 61
71 72 73 72 73 72 70 71 71 71 69 69 69 70 69 68 66 65 65 64 62 64 63 62 61 61 60 61 62 61 62 62 61 59 58 60 60 60 59 59 58 59 59
72 72 72 73 73 73 72 71 71 72 70 69 69 69 70 69 67 67 66 64 64 64 64 63 63 63 63 62 63 63 63 62 62 61 61 60 59 59 59 58 58 57 57
71 72 72 73 73 74 73 72 71 73 71 70 68 69 68 69 68 67 66 65 63 64 64 64 64 65 65 63 64 62 61 62 62 61 59 57 56 56 56 56 57 57 58
71 72 72 73 73 73 74 73 72 73 73 70 69 68 69 69 65 65 66 66 65 63 63 63 64 66 65 64 64 63 63 62 61 60 57 56 56 56 56 56 56 55 53
71 72 73 73 73 73 73 74 73 72 72 72 70 70 69 69 64 64 65 65 65 64 63 64 64 65 65 64 63 63 62 62 62 60 58 57 56 56 56 56 55 55 54
70 71 73 73 72 73 73 73 74 73 73 72 71 70 70 69 63 62 64 66 65 64 64 64 65 65 64 63 63 63 62 62 63 62 60 59 58 59 58 58 57 55 53
68 70 71 72 72 73 72 73 73 74 73 73 72 70 70 69 60 60 63 66 65 64 64 65 66 65 61 60 63 60 60 61 61 59 59 59 59 58 59 57 55 52 51
66 68 71 71 71 71 72 73 74 74 74 72 71 70 66 67 57 57 60 62 63 63 64 64 61 62 59 58 62 59 59 59 58 56 56 56 57 56 56 56 54 51 49
65 66 69 71 71 72 73 74 74 73 72 71 69 67 66 66 64 57 56 61 61 62 61 63 63 58 56 55 57 59 59 57 55 52 52 53 53 52 52 54 54 53 51
65 65 67 70 71 74 73 73 73 71 71 69 68 66 66 66 60 55 54 57 59 61 62 62 60 54 52 55 57 56 52 52 51 51 50 50 50 48 46 47 47 50 53
64 67 69 71 73 73 72 71 70 70 69 67 66 64 64 65 62 55 53 54 58 62 63 59 52 50 52 54 53 52 52 50 49 49 49 49 49 48 45 43 43 41 39
71 73 73 72 71 71 71 70 69 68 67 65 65 65 65 64 62 59 56 56 56 58 58 55 55 55 53 53 52 52 51 50 50 50 49 50 49 42 41 42 39 38 35
72 72 71 70 70 65 58 64 67 64 65 65 65 65 64 64 62 58 56 58 59 56 54 53 52 52 51 51 51 51 50 50 51 50 50 48 41 40 40 39 39 36 35
70 70 69 64 62 60 59 55 47 46 47 52 55 61 56 56 50 48 47 47 47 50 54 52 51 51 51 51 51 51 52 53 51 51 46 42 39 40 38 38 37 36 35
70 69 65 64 64 63 62 58 53 49 45 45 47 50 52 52 48 46 45 46 47 51 55 54 54 53 53 53 53 52 52 51 48 43 42 40 37 36 37 37 35 35 34
68 60 65 64 62 62 61 59 56 56 56 53 44 44 43 45 46 44 44 48 53 52 54 55 54 52 51 49 49 46 45 41 38 35 34 33 33 34 37 34 34 33 35
68 67 65 64 63 62 61 59 57 56 55 50 48 45 42 41 42 42 46 53 52 52 51 51 50 49 48 46 45 44 42 40 37 34 32 33 37 38 34 33 33 38 38
66 64 66 65 64 64 62 60 59 56 53 51 53 50 45 47 49 49 50 52 52 51 50 50 49 47 47 46 45 43 41 38 37 36 35 35 36 36 32 33 35 34 33
63 63 63 65 65 65 64 62 61 58 56 54 54 50 46 52 50 50 49 50 50 50 51 49 48 47 47 47 45 43 39 37 34 33 35 35 33 32 33 35 33 33 35
62 62 63 63 63 63 63 63 62 59 57 55 53 47 43 51 51 50 50 51 51 52 51 49 48 48 47 47 45 42 39 35 31 34 35 33 32 33 34 34 34 34 34
62 61 60 60 60 59 59 59 61 59 57 56 53 49 47 51 52 51 52 52 53 52 51 51 50 46 46 47 43 37 31 30 35 35 34 34 31 30 32 34 34 35 31
60 59 59 58 58 58 58 57 57 54 55 54 51 50 49 50 53 53 53 53 51 50 50 50 47 45 41 36 33 29 31 35 36 35 33 29 24 28 31 32 33 33 30
59 58 58 58 57 56 56 56 55 53 53 53 51 50 50 51 53 53 53 52 51 50 49 48 43 38 35 31 29 30 32 32 26 26 25 26 28 29 29 32 34 31 32
58 58 58 58 57 56 54 53 50 52 53 53 52 52 51 52 53 53 53 52 51 49 47 47 46 41 32 28 26 29 28 28 28 29 26 25 25 26 31 34 35 31 30

GFSGL_sfc_dewp_015.txt.gz
Dewpoint
67 68 69 70 70 70 69 70 70 70 70 70 70 70 69 66 66 65 64 63 63 63 63 61 60 61 60 60 60 59 58 55 53 54 57 56 58 59 57 58 59 59 60
67 69 69 69 70 71 70 70 70 70 70 70 70 70 69 67 65 65 64 64 62 61 63 62 62 61 61 61 60 60 59 59 57 55 57 59 59 59 59 59 60 60 61
68 69 69 70 70 70 71 70 71 70 69 69 69 70 69 68 65 65 64 64 63 62 61 62 62 61 60 61 61 61 60 61 59 58 58 59 59 60 59 58 58 58 59
68 69 69 70 71 70 70 70 70 71 70 69 69 69 70 69 67 66 66 65 63 64 64 62 61 61 61 60 60 61 61 60 60 59 60 59 59 59 58 57 57 57 57
68 69 69 70 71 71 71 70 70 71 70 69 69 69 70 69 69 67 67 65 65 64 64 64 63 63 63 62 62 61 61 60 60 60 60 58 57 57 55 56 56 56 57
68 69 70 71 72 72 72 71 70 70 71 70 69 68 69 69 66 65 67 67 66 65 64 64 63 65 65 63 63 63 62 60 60 59 59 57 56 56 56 56 55 54 54
69 69 70 70 72 72 72 72 71 70 71 70 69 69 69 69 64 63 65 67 66 65 65 65 63 64 65 65 63 63 62 62 62 60 58 58 57 58 56 54 54 54 54
69 69 70 71 71 72 73 72 72 71 72 70 69 68 69 69 61 62 65 67 66 66 65 65 63 63 64 64 63 62 61 61 62 62 60 60 60 59 57 57 56 55 54
69 69 70 71 72 72 72 73 73 72 72 72 71 70 69 69 60 60 62 67 66 66 66 64 63 63 62 61 62 61 60 61 61 60 59 58 58 58 58 58 57 54 51
69 69 70 72 72 72 72 72 74 74 73 72 72 71 68 70 59 58 63 67 66 65 62 63 62 64 58 58 63 60 59 60 60 57 56 53 54 54 56 56 55 52 49
68 69 70 71 72 72 73 73 74 74 73 73 72 72 71 68 59 57 60 66 64 63 62 62 63 58 55 54 57 61 60 58 57 53 51 51 51 51 51 52 53 52 50
65 67 69 70 72 72 73 73 74 73 72 72 72 68 68 65 60 56 57 59 60 62 61 63 63 56 52 52 54 55 54 54 52 50 49 49 49 48 46 47 45 49 52
64 65 66 69 72 72 73 73 73 73 72 71 68 67 66 66 65 55 54 54 56 60 63 60 53 50 50 52 55 54 52 51 50 49 48 49 50 48 45 42 42 40 38
63 64 66 69 70 72 73 73 73 72 71 69 67 66 65 65 63 58 56 58 57 61 57 55 55 54 54 54 53 52 51 50 49 49 48 49 49 44 40 41 38 37 35
64 66 68 70 72 70 62 69 72 68 68 68 67 66 65 64 63 56 56 58 59 57 55 54 54 53 52 51 50 51 50 50 50 49 49 49 46 40 40 39 38 36 34
69 71 71 71 63 61 60 57 50 54 55 54 55 62 62 56 49 49 48 48 48 50 54 53 53 52 52 51 50 50 50 51 49 49 49 47 41 39 39 36 37 35 34
69 71 67 63 64 65 66 64 60 56 48 45 49 52 54 53 47 45 44 45 46 52 56 53 53 52 51 51 51 51 51 51 51 50 44 41 40 37 36 36 34 34 32
58 57 66 66 66 66 65 64 61 62 62 58 46 46 45 45 44 43 43 47 52 53 54 54 53 52 52 52 51 51 48 46 44 41 36 34 33 32 36 33 33 32 33
61 63 64 65 64 61 61 60 60 61 59 52 50 47 43 42 43 43 47 58 57 54 54 54 54 53 51 49 48 46 43 40 37 35 34 32 35 38 33 33 32 38 38
64 61 63 63 61 61 60 59 58 58 56 55 55 52 48 51 55 55 53 54 54 54 53 53 51 50 48 46 45 43 42 40 37 35 34 33 34 35 33 31 33 33 32
65 65 62 63 62 61 60 60 58 56 55 56 55 52 48 58 56 55 53 53 52 52 51 51 50 48 47 46 44 43 42 39 38 35 34 35 36 33 33 34 33 33 34
62 63 63 63 63 62 61 61 59 58 57 56 53 47 45 53 54 53 52 52 52 51 51 50 49 47 46 46 45 43 41 38 36 33 34 34 33 33 33 33 34 33 34
60 60 60 60 61 58 61 62 60 59 57 55 53 49 49 51 52 52 51 51 51 51 51 49 48 47 47 47 46 44 40 37 35 34 34 34 33 32 32 32 33 33 31
59 59 58 58 60 60 59 59 60 56 58 56 53 51 51 52 52 51 51 51 52 52 51 51 50 47 47 47 45 41 36 33 35 35 34 33 31 29 30 31 31 33 30
59 59 58 56 57 57 57 58 58 57 58 56 53 52 51 51 52 52 52 52 52 51 49 49 47 45 41 38 34 31 31 34 34 34 31 27 23 25 27 29 33 33 31
58 58 57 57 55 54 54 53 54 55 55 54 54 53 52 51 52 53 53 52 51 50 49 48 45 42 38 34 31 31 31 31 30 28 25 26 25 25 27 32 34 34 31

GFSGL_sfc_dewp_018.txt.gz
Dewpoint
69 70 70 70 70 70 70 70 70 70 71 72 72 72 71 70 68 66 66 65 65 65 65 63 64 64 62 61 62 61 60 58 57 59 59 61 62 63 62 62 62 63 62
67 70 70 70 71 70 70 70 71 70 71 71 72 72 71 70 68 67 66 65 64 64 65 64 63 62 63 63 62 63 62 62 63 61 61 61 62 63 63 63 62 61 62
66 68 69 70 70 70 70 70 71 71 71 71 71 71 71 70 68 68 67 66 65 65 65 65 64 64 64 63 64 63 63 63 63 62 60 62 61 62 62 63 62 62 60
65 66 68 69 69 70 71 71 70 71 71 71 71 71 71 70 69 68 67 67 66 66 65 64 64 64 64 63 63 64 64 64 63 63 63 63 63 62 61 60 59 60 59
66 66 67 69 69 70 71 71 71 71 71 70 71 71 71 70 69 68 68 67 66 66 65 65 64 64 64 63 63 64 64 63 63 63 63 62 60 60 60 59 58 58 59
67 67 68 69 70 70 70 71 71 71 71 71 70 70 70 70 66 65 67 68 67 66 66 65 66 66 65 63 62 63 64 64 64 63 63 62 63 61 59 59 59 58 57
67 68 69 70 70 71 71 71 71 71 71 71 70 70 70 71 64 64 65 69 68 67 67 66 66 66 65 66 63 62 62 62 63 65 63 61 61 61 61 59 58 59 59
67 68 69 70 70 71 72 71 71 71 71 71 70 70 70 70 63 62 65 69 68 67 67 66 66 66 66 66 66 65 65 65 65 65 65 63 63 63 62 61 61 60 58
68 68 69 70 70 71 71 72 72 71 71 71 71 70 70 70 61 60 63 69 68 67 67 67 66 66 62 61 65 65 64 64 61 60 60 59 58 58 61 60 58 57 56
68 69 70 71 71 71 72 72 72 72 72 72 71 71 68 70 59 58 63 68 67 66 67 67 62 64 58 58 66 65 62 62 63 61 59 56 56 55 57 60 57 54 55
68 70 70 71 72 71 72 73 73 73 72 72 71 71 71 70 65 57 59 68 67 67 65 65 65 58 55 55 59 64 64 63 60 60 56 53 53 54 53 56 57 55 53
69 70 71 71 71 71 72 73 73 73 72 72 71 71 72 71 61 56 58 62 64 66 65 65 65 55 53 53 56 57 53 57 57 54 52 51 52 51 50 51 52 54 55
68 69 70 71 72 73 73 73 72 73 72 72 71 71 70 66 63 56 56 59 59 64 65 62 55 50 50 52 54 53 54 57 54 52 51 51 53 52 52 49 49 48 48
65 67 69 70 71 72 73 72 72 73 72 71 71 70 68 65 64 62 63 61 57 60 57 58 56 56 56 57 56 56 57 55 53 52 51 51 52 51 48 46 45 43 41
68 66 68 68 69 72 73 72 73 74 71 72 71 69 66 65 64 58 59 62 61 58 57 58 58 58 57 56 56 55 54 54 53 53 52 52 52 48 46 44 43 41 40
65 68 67 68 70 72 64 60 51 57 53 53 55 63 64 56 52 53 51 49 49 51 59 59 58 58 57 56 55 54 54 53 53 53 52 52 51 48 44 42 41 40 39
61 68 69 68 68 64 66 65 60 56 49 50 52 54 56 57 53 47 45 47 49 52 60 59 59 57 57 55 54 54 53 54 54 52 52 52 48 44 42 40 40 38 37
62 57 66 67 66 67 66 66 64 63 62 61 52 52 51 48 46 45 45 48 54 57 61 59 58 57 56 54 54 53 54 53 53 53 51 48 43 40 38 39 38 37 37
62 65 65 64 64 66 66 65 64 63 62 60 54 50 45 43 43 44 48 60 59 59 59 58 58 56 55 55 55 54 53 51 50 48 44 40 38 38 40 38 37 38 38
62 59 61 62 61 60 61 62 62 60 58 57 59 54 49 52 54 54 60 61 60 59 57 57 56 56 56 54 53 52 49 45 44 41 41 39 39 40 38 36 35 36 37
64 63 61 63 61 61 60 60 61 60 59 60 59 55 52 61 59 59 58 59 58 57 57 56 55 55 54 52 50 48 46 44 43 42 41 39 38 37 39 36 36 35 36
63 64 64 62 62 61 60 60 59 59 60 58 55 51 49 62 61 59 59 57 56 57 57 56 54 52 50 50 49 47 45 44 43 42 40 38 38 38 36 35 36 36 35
61 62 61 62 62 59 60 60 59 59 58 56 54 53 56 58 58 57 58 57 55 54 54 53 52 50 49 49 48 47 44 44 44 42 39 37 37 36 36 35 34 34 34
61 60 60 60 60 61 62 61 59 54 57 56 54 53 55 55 56 56 56 54 54 53 53 51 51 50 49 48 48 46 46 45 43 40 39 37 36 35 34 33 32 34 35
59 58 58 58 57 58 59 60 60 59 58 57 56 54 55 55 53 54 54 53 53 53 53 53 51 50 50 50 48 46 40 34 39 36 38 38 37 36 30 28 29 34 35
55 57 57 56 55 54 54 55 56 57 56 57 56 56 55 55 54 53 53 52 52 52 52 52 51 50 49 48 47 40 30 32 35 33 36 34 31 29 28 29 34 36 36

GFSGL_sfc_dewp_021.txt.gz
Dewpoint
72 72 72 72 73 73 73 74 74 74 74 74 74 74 74 74 74 74 73 71 69 69 68 68 68 68 63 63 63 63 62 60 57 58 60 63 65 65 63 65 63 64 61
71 72 72 73 73 73 73 74 74 74 74 75 75 74 74 74 74 73 72 71 70 69 68 67 67 65 67 67 63 66 63 64 60 63 62 61 65 66 66 67 63 59 61
70 71 72 72 73 73 73 74 74 74 75 73 74 75 74 73 74 73 73 72 70 70 69 68 67 67 66 63 64 63 62 64 64 61 60 62 62 63 64 65 65 64 61
67 69 71 72 72 72 74 74 74 75 74 74 75 74 74 73 73 72 72 72 71 70 70 68 67 66 67 67 66 66 65 64 64 62 60 60 62 64 63 61 60 61 59
69 69 70 72 73 73 74 74 74 74 74 74 75 74 74 73 71 73 72 72 72 70 70 69 68 67 66 66 65 66 67 64 62 61 60 60 59 60 61 59 59 59 60
69 69 70 72 73 74 74 74 74 74 74 74 74 74 74 71 67 67 71 72 72 72 71 70 69 67 66 64 63 64 66 66 65 61 60 60 65 64 61 60 59 57 55
68 70 71 72 73 73 74 74 74 74 74 74 74 74 74 74 64 65 67 71 72 72 71 70 69 67 66 67 63 62 63 63 64 67 65 64 64 65 65 64 63 60 58
70 70 71 72 72 73 73 73 74 74 74 74 74 74 74 74 63 63 65 72 72 72 72 71 70 69 69 67 67 66 65 66 66 63 66 67 66 66 66 64 66 64 62
69 70 71 72 72 73 73 73 73 74 74 74 74 74 74 74 62 61 64 70 72 72 72 71 70 70 65 62 67 67 67 67 63 61 62 61 60 60 62 62 60 58 55
69 70 72 73 73 73 73 74 74 74 73 72 73 74 71 74 62 60 64 69 71 70 71 71 63 69 59 59 66 67 66 66 65 64 63 58 60 59 60 63 57 52 50
69 71 72 73 74 74 74 74 74 74 73 74 73 74 74 72 72 58 59 71 70 69 69 69 71 59 56 56 59 68 65 66 64 64 61 60 59 57 54 57 59 53 50
71 72 74 74 72 72 75 75 75 74 74 73 73 73 72 74 65 57 57 63 66 69 69 69 67 56 54 54 58 59 56 60 62 60 59 57 54 52 52 53 57 55 54
71 73 73 74 74 74 74 74 73 74 72 72 71 71 71 72 73 56 56 59 61 70 69 65 59 54 54 54 56 55 56 62 60 59 57 55 53 52 56 55 54 55 55
71 72 73 73 74 75 73 73 73 72 72 71 72 71 71 72 69 63 63 63 59 63 62 61 58 59 58 60 58 58 62 62 60 58 56 54 54 53 52 51 49 48 45
68 70 70 70 72 73 74 73 73 74 71 71 72 72 72 67 64 60 62 64 63 58 60 61 61 62 61 61 61 61 61 60 58 57 54 52 52 52 51 51 49 47 42
65 63 63 65 67 69 71 74 54 52 56 56 57 67 68 59 51 51 52 52 51 53 61 61 61 62 61 60 59 59 59 58 57 55 53 53 52 52 51 50 47 43 42
65 65 65 66 66 66 71 72 70 62 48 51 52 53 53 54 52 51 51 51 51 55 63 62 61 60 60 60 59 57 57 57 59 54 54 54 53 53 49 46 44 42 38
65 58 66 63 63 65 67 69 70 65 66 59 50 54 50 49 51 49 50 52 54 60 63 61 61 61 61 60 58 57 57 56 55 54 55 54 53 51 46 43 41 38 37
63 64 64 62 62 59 60 59 59 64 66 61 56 53 51 47 46 47 48 61 60 62 62 62 62 63 62 60 59 58 56 55 55 56 54 52 50 45 43 40 37 39 38
65 59 62 65 63 63 63 61 59 59 60 61 61 57 53 52 54 54 61 62 62 63 65 63 63 62 61 60 58 57 56 55 55 54 50 48 45 43 40 38 36 34 35
64 64 61 64 64 63 62 63 62 60 60 60 61 56 51 60 58 59 62 62 63 64 64 64 62 61 61 59 57 56 54 53 52 49 47 46 44 40 40 37 35 33 32
64 64 63 63 63 62 62 62 62 61 61 59 56 53 48 61 60 61 63 64 65 65 64 61 59 58 57 56 56 54 52 50 48 47 47 44 42 40 37 36 34 33 32
62 63 62 63 63 59 61 61 61 60 58 57 57 58 62 62 62 62 63 62 62 61 59 58 57 56 56 56 56 53 50 48 47 48 46 44 41 39 37 35 33 33 31
60 60 60 62 62 62 62 61 60 56 58 59 60 61 62 63 62 61 61 60 58 58 58 58 57 55 55 53 52 51 49 48 48 48 47 43 41 38 37 35 33 32 28
56 56 57 57 57 59 60 60 60 60 60 59 58 58 59 58 59 59 60 59 58 57 56 55 53 53 54 53 51 50 44 40 48 42 45 43 41 41 35 34 32 27 27
53 53 52 54 57 57 57 57 58 57 57 56 57 58 58 58 58 58 59 59 57 55 54 53 53 53 54 53 51 44 34 34 40 36 40 39 38 36 33 32 30 27 28

GFSGL_sfc_dewp_024.txt.gz
Dewpoint
73 74 74 74 74 75 75 76 77 75 76 75 75 74 73 74 75 76 75 73 74 73 70 69 69 68 60 59 60 59 58 57 55 54 57 62 66 65 62 62 63 63 61
72 75 75 75 75 74 76 76 77 77 76 76 75 75 74 73 75 75 75 72 73 72 71 70 69 65 68 68 61 67 63 63 58 63 62 59 66 66 67 67 63 58 59
71 71 72 73 74 75 76 76 77 77 77 74 76 77 75 74 74 75 75 74 73 73 72 71 70 68 68 63 64 62 61 62 63 58 58 60 60 62 65 67 66 66 61
66 68 72 74 74 74 76 76 76 77 77 77 77 77 76 74 74 74 74 74 74 73 73 72 71 69 68 68 65 66 64 61 64 60 58 57 59 63 62 58 60 62 60
68 67 72 74 76 76 76 77 77 77 77 77 77 77 76 74 71 75 75 74 75 74 74 73 72 70 67 67 63 68 69 64 58 59 58 57 57 58 61 58 57 57 60
70 70 72 75 76 76 77 77 77 77 77 77 76 76 76 72 66 66 72 74 75 75 74 74 73 69 68 64 64 65 68 68 67 58 57 59 64 62 61 59 57 56 55
71 72 74 75 76 76 76 77 77 77 77 77 77 77 77 76 64 64 67 73 74 75 76 74 72 69 69 69 65 63 64 63 65 67 66 64 65 66 67 67 64 61 59
72 73 74 74 75 76 77 76 77 77 76 76 77 77 77 76 65 62 65 74 75 75 74 74 74 73 71 70 70 66 67 66 66 63 65 67 69 67 68 67 66 65 63
72 73 74 74 74 75 76 76 77 76 76 76 76 77 77 77 63 61 65 72 72 75 74 74 74 74 68 63 70 69 69 69 63 62 63 62 62 62 63 62 60 58 56
71 71 74 75 75 75 76 77 77 76 76 73 75 76 73 77 65 60 65 69 71 70 75 76 65 71 62 60 70 70 69 68 67 67 67 63 62 62 60 65 60 57 54
69 69 72 75 76 76 77 77 76 76 74 76 75 76 77 75 75 58 60 72 68 69 67 69 72 62 56 57 62 70 69 68 65 66 65 64 63 63 60 62 61 55 50
70 70 73 75 72 71 77 77 76 76 76 76 76 74 74 76 67 59 58 63 67 69 69 68 71 58 55 55 60 61 58 61 65 63 62 61 60 59 57 57 60 57 55
71 72 72 73 73 75 76 76 73 76 72 72 71 71 71 72 74 61 57 59 61 70 68 67 61 55 53 56 58 58 59 66 64 63 63 62 59 57 59 58 59 60 59
72 73 73 73 73 74 71 72 71 70 71 70 70 71 70 71 71 72 65 62 62 67 62 64 60 59 59 61 59 61 68 66 67 65 63 61 58 55 54 52 50 51 48
72 71 72 71 73 72 74 71 70 73 68 70 70 70 71 70 71 67 65 66 67 64 61 62 62 63 63 63 64 64 67 67 66 66 61 58 55 54 52 52 50 49 47
66 62 62 62 64 67 68 71 55 57 53 51 51 62 70 65 54 52 52 53 52 52 63 63 64 65 64 64 64 64 65 64 62 63 60 56 54 53 51 51 50 49 46
67 68 65 64 65 64 65 65 65 64 52 52 49 49 53 57 50 50 49 50 51 56 65 64 64 64 64 63 64 64 62 62 65 59 57 56 53 52 52 50 49 47 45
67 60 65 63 65 67 68 67 67 68 67 68 58 52 49 48 49 48 48 52 56 63 66 64 64 64 63 63 62 61 60 60 59 58 56 54 53 52 52 50 48 46 44
63 63 62 60 60 58 61 61 60 60 62 63 61 55 52 45 48 49 49 63 63 64 65 65 65 64 63 62 62 62 62 59 58 57 54 53 53 51 50 48 46 42 40
65 60 60 62 62 62 62 61 59 60 61 62 60 58 58 57 56 56 60 64 63 64 65 65 64 63 62 64 63 61 60 58 58 55 53 53 52 50 47 45 43 39 38
63 63 61 63 62 62 62 60 60 59 57 60 62 58 49 60 58 59 60 62 63 64 64 63 63 63 66 66 62 60 58 55 54 54 52 51 50 47 47 43 40 38 34
63 62 63 63 62 62 62 62 62 61 62 60 60 59 48 62 60 60 62 64 65 65 65 66 65 63 64 62 61 58 55 53 54 53 51 49 48 47 45 43 39 36 33
58 60 61 63 62 60 61 61 61 60 59 59 60 58 60 61 61 62 63 65 65 65 65 65 66 63 62 60 58 55 52 51 51 51 49 49 47 45 43 41 38 36 33
56 57 57 58 59 59 60 60 60 56 59 59 60 60 62 62 62 63 63 64 65 65 65 63 59 56 57 56 55 53 51 51 51 50 50 48 46 44 42 41 38 36 33
53 55 56 57 57 58 58 58 58 58 58 59 60 60 60 60 61 61 62 62 61 59 59 58 58 56 57 57 55 54 47 42 50 45 49 49 46 46 42 39 38 35 35
49 49 51 50 49 52 53 53 54 54 55 55 55 56 58 60 59 59 60 61 60 59 59 56 56 56 56 54 53 44 36 38 46 40 48 46 45 44 42 41 38 34 31

GFSGL_sfc_dewp_027.txt.gz
Dewpoint
75 76 76 76 76 77 76 77 77 77 78 76 77 76 76 76 77 78 77 75 76 76 74 74 73 73 60 59 59 59 58 57 55 55 57 66 69 66 64 64 63 66 62
74 76 76 76 76 76 77 76 78 78 78 78 77 77 77 76 77 77 76 73 75 75 74 74 71 67 72 72 61 71 64 66 58 68 66 62 68 70 70 71 64 59 62
72 72 75 75 75 75 77 77 78 78 78 77 77 78 77 76 76 77 77 76 75 75 75 74 73 72 72 64 66 64 61 64 64 61 59 60 61 64 69 69 70 69 63
67 69 73 75 75 75 76 78 77 78 78 78 77 78 78 77 76 76 76 77 76 75 75 75 74 73 72 72 70 70 69 64 64 61 59 57 59 66 63 62 66 65 64
69 69 71 75 76 77 77 77 78 78 78 78 78 77 78 77 73 76 75 76 77 76 75 76 75 73 70 70 67 69 69 66 58 59 59 58 57 62 64 63 63 66 68
70 70 72 75 77 77 78 78 79 78 78 78 78 77 77 75 68 67 73 75 76 77 76 76 76 71 69 66 65 66 68 70 68 58 57 59 69 65 61 60 61 61 64
70 72 73 75 76 77 78 78 78 78 78 78 78 78 77 77 66 64 67 74 75 76 77 76 75 70 71 71 65 64 64 64 66 70 68 67 69 70 70 67 70 65 61
72 72 74 74 76 77 78 78 78 78 78 78 78 78 78 77 67 62 65 73 75 76 76 76 76 74 74 73 72 69 68 68 69 65 69 70 70 71 70 70 71 69 65
71 73 73 75 75 77 77 78 78 78 78 77 78 78 78 78 65 62 64 72 73 75 76 76 76 76 69 65 73 72 70 69 64 63 64 63 62 64 66 68 62 61 59
71 73 75 76 76 77 77 78 78 78 77 76 77 78 74 78 67 61 63 71 72 72 75 76 66 73 63 61 72 73 71 70 69 67 65 63 64 64 61 69 62 61 61
69 71 75 76 77 77 78 78 78 78 77 77 77 77 78 77 77 61 59 74 70 71 71 72 73 63 59 58 64 73 71 70 68 69 66 68 67 66 64 64 66 63 57
72 73 75 77 74 73 78 78 79 78 78 77 77 76 75 77 69 64 58 62 69 71 71 70 71 59 56 57 61 63 59 65 69 68 66 65 65 63 64 64 66 65 61
75 76 76 77 76 77 77 78 75 77 73 73 72 72 73 73 76 63 57 58 61 70 71 67 62 56 56 57 59 59 60 69 68 66 65 64 63 63 66 65 65 64 63
73 75 75 75 75 76 72 73 72 71 71 71 70 71 69 71 72 74 70 64 60 65 67 69 62 62 63 66 62 62 69 71 68 65 65 66 68 65 60 59 57 56 53
73 73 73 72 73 74 75 70 70 73 68 69 70 69 69 69 69 66 67 72 70 66 68 70 67 66 66 64 66 66 68 68 67 66 67 67 65 59 58 58 55 53 51
71 70 68 68 69 71 70 72 63 62 58 54 50 60 70 62 55 52 51 55 55 55 68 67 66 65 64 64 64 65 67 66 67 67 66 65 62 57 57 56 55 53 52
68 68 63 61 61 62 64 64 64 64 55 54 50 48 48 46 47 49 47 50 51 55 69 67 66 66 65 64 65 66 65 66 67 67 65 65 61 58 56 55 55 54 51
67 59 64 63 64 65 65 65 64 62 61 62 55 53 48 45 45 45 46 49 59 60 69 68 67 66 65 65 66 66 65 65 66 66 65 62 59 57 56 54 53 53 50
64 63 63 61 60 60 63 63 61 61 61 62 61 55 54 45 44 43 43 61 65 62 67 68 66 66 66 66 66 65 64 65 65 63 62 60 58 56 55 53 52 48 49
64 62 61 63 62 63 62 61 60 59 59 61 60 59 60 60 61 61 59 56 59 63 64 65 67 66 65 65 65 65 64 64 63 62 59 59 57 55 52 52 49 46 45
62 63 61 62 61 62 62 62 62 61 60 59 58 57 47 59 62 62 64 62 64 65 64 64 64 65 65 65 65 64 62 61 61 60 58 57 56 53 53 51 47 44 41
62 62 62 62 61 62 61 61 61 60 60 60 60 59 50 61 60 61 61 61 62 64 66 65 65 65 66 66 65 63 62 59 59 58 56 55 54 52 51 46 44 41 39
59 59 60 61 61 59 60 60 60 60 60 61 60 61 62 62 63 62 63 64 65 66 66 66 66 66 66 66 65 62 60 57 57 57 55 54 52 51 47 45 44 41 39
57 57 58 58 58 57 57 57 57 54 57 59 59 60 60 61 62 63 64 65 66 66 66 65 65 65 64 64 63 61 57 56 56 56 55 52 50 48 47 45 43 41 38
52 53 53 55 54 54 54 54 55 55 54 53 54 54 53 56 59 61 62 62 62 62 63 65 64 63 63 60 58 57 50 43 54 48 53 51 50 52 46 44 43 40 39
47 48 48 49 48 49 49 51 52 52 51 50 51 51 51 52 52 56 57 56 59 59 60 59 59 59 58 57 56 44 36 39 47 43 51 50 49 47 45 43 41 39 39

GFSGL_sfc_dewp_030.txt.gz
Dewpoint
75 75 75 75 75 75 74 74 76 74 78 74 77 76 76 75 76 77 75 75 75 75 75 74 72 71 69 69 68 68 67 66 62 64 68 69 68 66 65 66 68 67 65
75 75 75 75 76 75 74 74 75 77 75 77 76 76 76 75 76 75 75 73 75 75 74 74 72 70 72 72 71 68 67 68 66 66 67 68 68 69 70 70 66 61 66
74 75 75 75 75 75 76 74 75 75 77 75 77 76 75 75 75 76 75 75 73 75 75 74 73 72 71 68 70 70 68 69 70 66 66 69 69 69 69 70 70 69 67
71 73 74 75 75 75 75 76 75 76 75 76 76 76 76 75 75 75 75 75 75 74 75 75 74 72 71 71 69 68 70 66 67 68 65 65 68 68 68 66 67 68 67
69 72 73 74 75 75 76 76 77 76 76 76 76 76 76 76 74 75 75 75 75 75 74 75 75 73 70 70 68 70 67 70 67 64 64 65 65 66 65 66 66 66 68
70 70 72 74 75 76 76 76 76 76 76 76 76 76 76 75 70 68 73 74 75 75 75 74 75 72 70 67 67 66 68 66 66 63 62 62 64 66 67 65 65 65 62
71 71 72 74 74 75 76 76 76 76 77 77 76 76 76 76 67 66 68 74 74 75 75 75 74 73 72 71 66 65 65 65 65 66 64 65 67 68 68 68 67 66 64
73 73 75 75 74 75 76 76 77 76 77 76 77 77 77 76 67 64 66 73 74 74 75 75 75 74 74 72 70 68 67 67 66 66 67 67 70 71 71 70 69 68 68
70 73 73 75 75 75 76 76 77 77 77 77 77 77 77 77 65 63 64 72 72 73 74 75 75 75 70 65 71 69 68 68 64 63 63 65 64 64 68 68 66 65 63
70 71 74 74 75 75 76 77 77 77 77 76 77 77 74 77 68 61 64 73 71 71 73 74 67 73 66 61 71 71 69 68 68 66 66 64 64 65 63 68 66 63 62
71 72 74 76 75 75 77 77 77 77 77 77 77 77 77 76 76 61 59 74 73 72 71 71 72 63 62 58 64 72 70 70 67 67 66 66 66 66 66 68 68 66 63
75 73 75 77 74 74 77 78 78 77 77 77 77 76 76 77 68 65 58 61 70 74 72 71 71 61 59 57 61 65 61 65 70 67 66 65 65 66 66 67 66 67 66
79 77 77 78 77 76 77 77 76 77 76 76 75 75 75 76 76 63 59 58 60 70 74 71 59 56 56 58 58 61 61 70 71 68 66 66 66 66 67 66 64 66 64
79 79 79 78 77 77 76 76 75 75 75 75 74 74 74 74 74 75 72 65 61 65 67 70 68 65 60 64 63 62 70 72 71 69 68 68 68 67 66 64 62 61 61
77 77 78 76 77 77 76 74 75 75 71 73 73 73 72 73 66 57 60 71 72 68 69 73 73 71 72 68 69 67 70 72 71 70 68 67 66 66 64 62 59 58 56
76 74 73 72 73 73 74 74 65 61 57 49 50 62 68 53 48 46 47 50 51 54 67 71 72 72 69 70 69 68 69 69 70 69 68 67 65 63 61 61 61 56 56
73 75 68 68 70 74 74 74 73 61 52 51 48 47 46 45 45 44 43 44 46 52 70 70 71 71 70 69 69 68 68 69 70 68 66 66 64 63 61 60 57 56 55
70 59 67 67 67 67 66 66 65 66 67 66 56 53 48 46 43 43 44 51 62 59 66 70 70 70 70 69 69 68 69 68 68 67 65 64 64 63 61 58 56 55 54
69 66 65 64 64 64 67 67 63 65 65 65 64 57 56 52 46 44 47 58 58 60 62 63 64 65 67 69 69 68 68 68 67 66 65 64 64 62 61 59 55 52 53
64 61 62 66 64 66 65 64 63 64 64 63 62 60 60 60 62 63 63 63 62 61 64 64 65 65 65 65 66 68 67 67 66 66 64 64 64 62 57 55 54 53 52
63 64 62 63 63 63 63 62 62 62 62 62 61 58 48 60 61 61 62 63 63 64 66 66 64 64 64 64 64 64 64 64 64 64 64 64 63 58 55 55 53 51 48
63 62 62 62 62 62 61 60 60 60 60 60 60 59 52 62 62 62 63 63 63 64 65 66 66 65 65 64 64 64 64 64 64 64 63 62 60 57 55 53 51 49 48
59 59 59 59 58 58 59 59 59 59 58 57 57 59 59 59 60 61 63 64 65 65 67 67 67 67 67 67 67 66 64 64 63 63 61 59 57 55 53 51 50 48 46
58 57 56 56 56 55 55 55 54 51 53 53 54 54 55 55 56 57 58 59 61 63 67 67 66 66 66 65 66 64 63 63 62 62 60 57 56 52 52 51 49 48 46
51 52 52 51 51 52 52 51 52 51 51 51 51 51 52 52 53 54 55 57 57 58 59 62 65 65 64 63 63 63 57 49 57 52 57 56 54 54 52 50 50 48 47
48 48 48 49 49 48 48 48 48 49 49 49 49 49 50 50 50 50 50 51 53 53 54 53 50 57 64 63 62 49 37 40 48 44 55 55 54 51 51 51 50 47 46

GFSGL_sfc_dewp_033.txt.gz
Dewpoint
72 71 72 72 70 73 72 69 71 72 71 72 73 72 73 73 75 73 73 73 74 73 72 71 70 69 64 64 64 64 60 60 56 57 61 61 62 64 64 64 66 65 63
72 72 72 73 72 70 73 73 68 73 71 74 74 73 74 73 73 74 73 73 72 73 73 71 71 70 67 67 67 62 61 62 58 55 64 65 62 61 61 61 64 63 63
72 73 72 72 73 72 71 71 74 69 74 71 75 74 74 74 74 73 74 74 72 73 73 72 71 70 67 66 67 66 63 62 63 60 63 64 64 65 65 65 64 64 63
71 72 73 73 73 73 73 72 70 73 71 75 71 74 74 74 73 74 73 73 73 72 73 73 72 71 69 67 66 65 66 64 64 62 61 61 64 65 63 63 65 67 65
71 72 72 73 73 73 73 74 73 71 72 72 74 72 74 73 73 73 73 73 73 73 72 74 73 72 70 68 67 65 63 65 62 62 62 61 60 64 64 64 61 63 65
68 71 72 73 73 73 73 73 74 74 71 73 73 72 73 74 69 68 72 73 73 73 73 72 73 72 70 67 66 66 65 60 64 60 60 60 60 60 64 63 62 63 62
66 68 71 72 73 73 73 73 73 73 74 72 72 74 72 73 67 66 68 73 73 73 73 73 72 73 71 71 67 66 65 64 61 63 60 59 59 60 62 63 62 62 61
66 67 68 71 72 73 73 73 73 73 73 74 74 73 74 74 66 64 66 72 73 73 73 73 73 73 72 72 71 69 68 66 66 62 62 61 62 63 63 64 64 63 64
66 68 69 71 71 72 73 73 73 73 73 73 74 74 74 74 64 63 64 71 72 72 73 73 73 73 69 65 72 70 69 68 64 62 62 61 63 64 67 67 65 63 61
68 71 73 71 72 72 72 73 73 74 74 74 74 75 72 75 66 61 64 72 72 72 72 72 66 71 65 62 71 71 69 68 67 66 64 63 63 63 64 65 66 63 62
69 70 72 73 73 73 73 73 74 74 74 74 75 75 75 74 74 61 60 73 73 73 72 71 71 63 61 60 61 72 70 69 67 67 66 65 64 66 66 67 67 66 63
69 70 72 73 72 74 75 75 75 75 75 75 75 75 75 76 66 62 59 61 70 74 73 73 71 60 59 59 60 64 62 63 69 68 67 65 64 64 64 68 68 67 65
73 71 73 73 75 73 74 76 75 75 75 75 75 75 75 76 76 62 59 59 60 71 75 71 64 59 56 58 59 61 60 69 71 69 68 67 65 64 65 66 67 67 64
71 74 74 75 75 74 76 75 75 75 75 75 75 74 75 74 75 72 69 64 60 64 67 71 69 66 64 65 63 61 65 70 71 71 70 68 67 66 65 66 65 66 63
72 75 75 75 75 75 74 74 75 72 72 75 75 74 73 68 60 53 55 66 69 66 66 71 72 73 72 72 69 68 66 67 70 71 72 71 68 66 65 66 65 64 63
73 73 73 73 75 74 74 68 53 54 51 49 52 58 54 52 48 46 45 46 46 47 62 69 70 71 72 73 72 72 70 67 68 70 71 71 68 66 66 66 65 63 62
69 70 70 68 72 72 73 70 60 56 48 47 48 50 50 48 44 43 43 46 48 54 64 68 68 69 71 72 72 72 72 71 70 69 70 71 68 67 65 64 63 62 60
67 60 66 66 64 65 66 70 63 62 62 58 50 51 46 43 43 45 46 51 58 58 60 61 62 62 63 63 64 65 66 69 70 70 70 70 69 67 65 63 61 61 60
64 64 63 64 65 65 66 64 65 64 63 62 60 55 55 45 45 46 50 59 58 59 60 59 60 61 61 62 63 64 64 64 65 66 67 69 69 66 63 62 62 58 57
64 61 63 64 64 64 63 63 63 63 62 60 59 59 59 58 59 60 60 59 59 59 61 61 61 62 63 63 62 62 63 63 63 65 66 65 64 62 61 61 60 59 58
63 63 61 62 61 60 60 60 60 60 60 60 59 56 47 59 61 62 62 61 60 60 60 60 62 62 61 61 60 61 62 61 61 60 60 62 62 61 62 61 60 59 58
60 61 61 60 59 59 59 59 58 57 56 56 57 56 50 58 58 59 59 61 62 63 64 63 63 63 63 64 62 60 61 62 61 62 61 61 62 62 61 60 59 57 55
58 58 58 58 57 56 55 55 55 54 54 54 54 53 54 54 55 56 57 57 57 59 60 61 64 63 64 64 64 64 64 63 62 62 61 61 60 59 59 58 55 50 47
55 54 54 54 54 53 53 53 51 49 51 51 51 51 51 52 52 52 52 54 55 55 55 53 52 50 59 64 62 61 61 61 62 61 60 59 59 57 58 53 49 47 46
50 50 51 51 50 50 50 50 49 49 49 48 49 48 49 49 49 49 49 49 50 50 50 49 47 46 45 44 45 56 50 46 58 53 57 57 56 53 50 48 47 46 44
48 49 49 49 48 48 48 49 49 49 49 48 47 46 46 46 46 46 46 46 46 46 46 46 47 45 42 41 38 35 35 37 49 44 56 54 52 51 50 48 46 45 44

GFSGL_sfc_dewp_039.txt.gz
Dewpoint
68 68 68 69 69 69 69 69 69 68 69 71 71 71 71 72 72 72 71 71 70 70 71 70 68 68 67 65 63 63 60 58 55 55 59 61 61 61 63 64 62 60 59
68 68 68 69 70 71 70 69 68 70 69 69 71 71 71 72 72 72 71 72 71 70 71 71 70 69 67 66 64 62 62 60 57 55 55 60 60 62 62 62 63 60 58
68 68 68 68 68 69 72 71 68 68 69 69 70 71 71 72 72 72 71 71 72 72 71 71 71 70 69 68 66 64 62 62 60 57 56 58 62 61 61 62 62 61 60
67 69 69 69 69 69 69 71 71 69 68 70 70 71 71 71 72 72 72 71 71 72 73 72 72 71 71 70 69 67 64 62 61 60 58 57 60 62 62 60 60 61 60
68 69 70 71 71 70 69 69 71 72 70 69 70 71 72 72 71 72 72 72 71 71 72 72 72 72 70 70 70 69 66 65 63 61 60 59 60 61 61 60 59 58 60
69 69 70 70 71 71 71 70 69 70 72 71 69 69 71 72 68 68 70 71 72 72 71 72 72 71 70 67 67 67 68 67 65 63 63 60 59 60 59 59 59 59 57
69 69 70 70 70 71 71 71 71 69 70 71 71 70 69 70 65 66 68 72 71 71 71 71 72 72 70 72 68 66 66 64 66 67 64 64 62 60 59 59 59 58 57
69 70 70 71 71 71 71 72 72 72 70 70 70 70 71 71 65 63 66 72 72 72 72 71 71 71 71 71 72 71 70 70 68 66 68 68 66 64 61 59 59 59 60
68 69 70 71 71 72 71 71 72 72 73 72 71 70 69 70 63 62 64 71 72 72 72 72 72 72 68 64 71 71 71 71 67 63 63 63 62 60 61 61 59 60 58
66 68 70 71 71 71 72 72 72 72 72 73 73 73 69 71 63 61 63 71 71 71 72 73 66 70 65 62 70 71 71 71 72 71 70 65 63 64 59 61 64 62 60
64 65 68 70 71 72 72 72 72 72 72 72 72 73 73 72 71 60 59 71 71 71 71 72 72 63 61 60 61 72 71 71 71 72 72 71 71 70 69 66 65 66 65
65 65 66 67 70 71 71 72 72 72 72 72 72 72 73 73 66 60 59 60 68 73 73 73 73 62 58 58 59 62 61 63 72 73 73 73 72 71 70 69 68 66 68
68 68 67 68 68 68 71 71 72 72 71 72 72 72 73 74 74 61 58 59 60 70 75 71 64 59 55 57 57 58 58 66 69 70 71 72 73 73 73 71 70 69 67
69 69 69 70 71 70 70 70 71 71 71 72 72 73 73 74 75 75 70 64 59 62 64 68 66 63 61 65 65 63 64 66 68 69 71 72 73 73 73 73 71 70 68
68 70 71 70 69 69 59 61 69 71 69 73 73 74 74 74 73 62 64 70 70 63 65 69 69 69 69 69 70 71 71 69 67 68 68 69 69 69 69 71 71 71 69
66 66 68 71 70 66 59 57 49 47 47 49 54 62 55 52 47 47 47 48 48 50 64 66 66 66 66 66 66 63 64 63 63 63 63 64 64 64 64 65 67 68 67
64 65 64 68 72 66 61 60 58 55 49 45 45 46 47 46 45 44 45 45 47 53 63 61 60 58 58 58 59 59 59 59 59 60 60 61 62 62 63 63 63 63 63
62 57 65 67 71 65 61 60 60 60 58 57 50 48 44 44 45 46 48 53 60 59 58 57 59 60 61 59 57 58 59 59 59 59 59 61 62 61 60 59 59 59 58
63 63 63 64 67 62 62 60 59 59 59 59 59 55 51 46 46 46 48 59 57 57 57 57 57 58 58 59 59 59 59 58 58 57 57 57 57 59 60 59 59 54 55
60 58 60 63 64 65 63 61 60 60 59 58 57 57 60 59 59 60 60 60 60 59 60 60 61 61 59 59 59 59 60 59 58 57 57 57 57 58 58 59 58 57 56
59 59 59 60 60 61 60 60 59 58 56 55 54 51 48 57 56 56 56 56 56 55 53 55 56 54 54 56 60 61 61 61 58 58 59 59 58 60 60 59 57 56 56
59 59 58 57 58 57 56 56 55 54 54 53 52 51 47 51 51 51 51 51 51 51 51 50 50 50 49 50 52 55 60 62 62 60 62 61 59 60 60 59 57 54 54
57 56 55 55 54 53 53 53 52 51 51 50 50 49 49 48 48 48 48 48 48 47 48 48 47 46 47 47 47 47 47 52 52 57 61 61 61 60 57 56 55 53 53
55 54 53 52 52 51 51 50 49 47 48 47 47 47 47 47 47 46 46 46 46 45 45 45 44 44 43 44 44 44 44 41 39 46 57 60 60 58 58 56 54 54 53
52 51 51 51 50 48 48 47 46 45 44 43 42 41 40 40 42 43 44 44 44 44 44 43 43 43 42 42 41 40 37 34 37 37 50 57 59 59 58 56 53 52 50
51 50 49 47 46 45 44 43 43 42 41 40 39 40 40 39 38 37 38 38 38 38 39 39 40 41 41 40 38 35 34 34 36 35 41 51 55 57 55 54 53 49 47

GFSGL_sfc_dewp_042.txt.gz
Dewpoint
66 67 67 67 68 69 69 69 69 69 70 71 71 71 72 73 73 73 73 72 72 72 72 72 72 71 70 68 66 65 64 61 61 62 61 65 65 65 65 67 65 66 65
67 67 67 68 69 69 69 69 70 69 70 71 71 71 72 72 73 73 72 72 72 71 71 72 72 71 71 70 68 67 65 65 63 63 63 63 65 66 66 66 65 63 64
67 67 67 68 69 69 69 70 70 70 70 70 71 71 72 72 73 73 73 72 73 72 72 72 72 72 72 71 70 68 66 65 64 62 62 62 63 64 65 65 65 66 65
67 67 67 68 69 70 70 71 70 70 70 70 71 71 72 72 73 73 73 73 72 73 73 73 72 72 72 72 71 70 70 68 66 63 63 62 63 65 64 63 62 63 63
66 67 68 69 70 70 71 72 71 70 70 70 71 71 71 71 71 73 73 73 72 72 73 73 73 72 70 71 72 72 71 69 69 66 65 64 63 63 63 63 62 63 64
66 67 69 69 70 70 70 70 72 72 71 71 70 70 71 70 67 67 71 73 73 73 72 73 73 71 70 67 67 68 70 71 70 68 67 67 68 66 64 63 62 62 61
67 68 69 70 70 71 71 70 70 71 72 71 71 71 71 72 65 65 67 72 72 73 73 73 72 72 71 73 69 66 66 65 67 71 70 69 69 70 69 66 65 63 63
69 69 70 71 71 71 71 71 71 70 70 72 72 71 71 71 64 63 65 72 72 72 73 73 73 73 73 73 73 73 72 72 70 68 70 71 72 72 71 69 68 67 65
69 70 70 71 70 71 71 71 72 72 71 70 71 72 72 72 62 62 64 71 72 72 73 73 73 73 68 64 72 72 73 73 68 64 65 65 63 62 65 70 67 62 61
69 70 71 71 71 71 71 72 72 72 72 72 71 72 69 71 63 61 63 70 70 71 73 74 66 71 65 62 70 72 72 72 73 73 72 67 64 67 62 66 69 68 67
69 70 71 72 72 72 72 72 72 72 73 73 73 73 73 71 71 60 59 71 71 71 72 72 73 63 60 60 61 72 72 72 72 73 73 73 73 72 72 72 70 68 68
68 70 71 72 71 72 72 73 73 73 73 73 73 73 74 74 65 62 58 60 67 72 72 73 73 62 58 57 59 62 61 63 72 72 73 73 73 73 73 72 72 71 69
67 68 69 71 72 72 73 73 72 73 72 72 72 72 73 74 74 60 58 58 59 69 73 70 65 61 55 57 57 58 58 65 67 68 70 71 72 73 74 74 75 74 72
69 69 69 69 69 71 72 72 72 72 72 72 73 73 74 74 75 75 69 65 59 63 65 69 66 64 61 65 65 65 64 67 69 69 70 71 72 71 70 71 70 70 69
71 72 71 71 70 69 60 62 70 71 69 72 73 74 74 74 74 68 70 73 71 66 67 70 70 70 70 70 70 71 71 69 69 69 68 68 67 67 67 67 66 65 63
68 69 71 71 70 65 62 59 48 47 47 51 57 66 60 52 47 47 48 49 50 53 67 68 67 67 67 66 65 65 66 63 64 64 64 64 63 63 63 64 64 62 61
67 67 66 69 68 64 63 62 59 54 47 44 43 46 49 47 44 43 44 45 48 55 64 63 62 61 62 63 63 63 63 63 63 64 63 62 62 63 62 60 60 60 57
65 56 66 71 69 65 63 62 62 61 59 58 48 48 44 44 44 45 49 54 61 60 61 61 62 62 63 63 63 63 63 64 64 63 62 62 61 62 61 60 60 60 59
64 64 65 69 66 62 62 61 60 60 59 59 60 55 49 45 47 48 51 60 60 60 62 62 62 62 62 62 63 63 63 62 62 62 62 62 61 61 61 60 59 54 55
61 59 61 65 63 62 61 62 62 61 60 59 60 60 61 59 58 57 58 58 58 56 56 58 56 56 56 57 59 61 61 61 62 62 63 62 61 61 61 60 59 57 57
60 61 60 62 62 61 61 60 59 58 56 54 53 51 48 56 55 54 53 52 52 52 52 52 52 52 51 51 52 53 56 60 63 62 62 62 62 61 62 62 61 58 58
59 59 59 59 58 59 58 57 56 54 53 52 50 49 46 51 50 50 50 49 49 49 49 50 49 48 48 49 49 49 49 50 53 53 54 61 62 62 61 61 61 59 59
58 57 56 55 55 53 54 53 52 52 51 50 49 49 48 48 47 47 47 46 46 46 46 46 46 45 45 46 46 46 45 46 46 45 45 54 60 62 62 61 61 59 58
56 56 55 53 52 51 51 49 49 47 48 47 47 46 46 46 46 46 45 45 45 45 44 44 44 43 43 43 42 42 42 40 39 42 43 49 57 60 60 59 59 58 57
53 52 52 51 50 49 47 46 45 45 43 42 40 41 40 41 41 41 42 41 40 40 39 40 40 39 40 40 38 38 36 33 38 37 44 46 52 57 59 59 57 57 57
50 49 48 47 46 45 44 43 42 40 39 37 37 37 36 35 35 35 35 35 34 34 35 34 35 36 36 35 35 34 32 33 36 34 45 50 49 50 51 55 57 56 54

GFSGL_sfc_dewp_045.txt.gz
Dewpoint
69 70 70 70 71 71 71 71 73 72 73 73 74 74 74 74 74 75 75 74 74 75 74 74 74 75 71 70 69 68 67 65 62 61 64 65 69 69 67 68 67 68 65
69 70 70 71 71 70 71 71 73 73 73 73 73 73 74 73 74 74 74 72 74 74 74 74 74 72 74 74 71 73 70 70 66 68 67 64 68 69 70 70 67 63 65
68 68 69 69 70 71 72 72 73 73 73 71 72 73 73 73 74 74 74 74 74 73 73 74 74 74 74 72 73 71 70 71 70 67 66 65 65 65 67 69 69 69 66
66 67 69 70 71 71 72 73 72 74 73 73 73 73 73 73 73 73 73 74 74 74 74 74 74 74 74 74 73 74 73 72 72 70 68 67 67 70 67 65 64 64 64
69 68 69 71 72 73 73 73 73 73 73 73 73 73 73 72 70 73 73 74 74 74 74 74 74 74 71 72 72 75 74 72 70 68 67 67 66 66 67 66 65 65 68
70 69 71 72 73 73 74 74 74 73 73 74 73 73 73 70 66 66 71 73 74 74 74 74 75 72 72 68 67 68 72 75 73 70 69 69 74 72 70 69 68 67 67
70 71 72 73 73 73 74 74 74 74 73 74 73 73 73 74 65 64 67 71 72 73 74 74 73 71 72 74 69 66 67 66 67 74 74 74 74 74 75 74 74 72 70
70 71 72 73 73 73 74 74 74 74 74 74 73 74 74 74 65 63 65 72 74 74 75 74 75 75 74 73 74 73 73 74 74 71 73 74 75 76 77 75 75 73 71
70 71 72 73 73 73 73 74 73 73 73 73 73 74 74 74 63 62 65 72 72 74 74 75 74 75 69 65 74 73 74 74 69 66 66 66 64 62 65 70 70 70 69
70 71 73 73 73 74 74 74 74 74 73 71 72 74 71 74 65 60 64 70 71 70 74 75 67 71 65 62 73 73 73 74 74 75 75 71 67 70 63 67 71 69 69
70 71 73 74 74 75 75 75 74 74 74 74 73 74 74 73 73 60 58 71 70 70 70 71 72 63 61 60 61 74 74 74 73 75 74 75 75 76 76 75 73 71 71
73 73 74 75 72 72 75 75 75 75 74 74 74 73 73 74 66 62 58 60 68 72 73 72 73 62 58 58 60 63 61 62 72 73 73 73 73 73 74 75 75 74 73
74 74 74 74 74 75 75 74 73 74 72 72 72 72 72 73 74 61 58 57 59 69 73 70 64 60 56 59 58 59 58 66 68 69 70 70 72 73 74 74 73 72 71
73 74 74 74 73 74 73 73 72 72 72 71 71 71 72 73 74 74 72 67 60 63 65 70 68 66 64 67 67 65 64 67 67 69 70 72 72 69 67 65 64 64 63
71 71 72 71 72 73 73 69 72 74 69 71 72 72 72 73 73 69 70 75 73 68 69 73 73 73 72 72 72 71 72 70 69 70 69 66 65 63 62 63 62 62 60
73 71 68 68 69 71 67 63 48 48 47 51 56 67 68 54 52 51 51 55 56 54 69 71 71 70 69 69 68 67 67 65 67 66 64 63 62 62 62 61 61 60 59
69 69 72 69 70 69 67 67 64 54 47 44 44 49 53 52 45 45 45 46 49 57 68 67 64 64 64 64 64 64 64 64 66 64 63 63 62 61 60 60 60 59 59
68 57 71 72 71 68 68 69 67 66 65 60 49 48 44 44 45 46 48 54 62 62 63 63 64 63 63 64 64 64 64 64 64 64 64 63 62 61 60 61 60 59 58
66 67 70 70 68 67 68 67 67 65 63 59 59 54 50 46 46 47 52 64 63 64 63 63 63 63 63 63 63 63 63 63 63 63 62 63 62 61 61 61 60 55 55
65 61 64 65 64 65 65 65 64 64 63 63 62 62 62 59 60 59 59 60 61 58 59 59 58 57 57 56 57 58 59 61 63 63 63 64 63 64 63 62 62 60 59
63 64 62 64 63 63 63 62 62 60 59 56 55 53 49 58 56 55 55 55 54 54 54 54 53 53 53 53 54 54 54 55 56 57 57 58 62 63 63 63 62 61 60
62 63 62 62 62 61 60 58 57 55 54 53 51 50 47 53 53 52 50 50 50 50 50 51 50 49 50 51 51 51 52 53 53 53 54 55 57 61 63 63 62 62 61
61 61 60 59 58 55 56 55 53 53 52 51 50 50 50 50 49 48 48 48 48 47 48 48 48 47 47 47 47 47 48 48 48 48 50 52 53 57 61 62 62 62 60
60 59 58 56 56 55 53 52 50 47 49 48 48 48 48 47 47 47 46 46 46 46 46 46 46 46 45 44 44 44 44 42 42 46 49 49 51 53 57 60 60 60 60
57 56 54 53 51 49 48 47 47 46 45 44 43 43 43 44 43 44 44 45 43 41 39 37 36 36 36 36 35 35 34 32 40 37 50 52 51 52 52 55 59 59 58
55 54 52 50 48 47 46 45 43 42 41 39 37 37 36 35 35 35 35 35 34 33 33 32 33 33 32 29 30 32 30 31 35 33 45 50 50 49 50 51 51 53 57

GFSGL_sfc_dewp_048.txt.gz
Dewpoint
70 71 71 70 70 71 71 72 73 72 72 73 72 71 72 73 74 75 74 72 74 74 74 73 74 75 69 66 66 66 65 64 61 59 59 63 70 71 69 69 68 68 65
70 73 71 71 71 70 71 71 73 73 73 73 73 72 72 72 73 74 74 71 73 73 73 74 73 71 74 74 69 73 70 70 64 70 69 64 70 71 70 71 68 64 63
68 68 68 69 69 71 72 72 73 73 73 72 72 73 72 71 73 74 74 73 73 73 73 73 73 74 74 71 71 69 68 70 71 69 68 66 65 66 69 73 72 72 67
65 66 69 70 70 69 73 74 72 74 73 73 73 73 73 72 71 72 73 73 73 73 73 73 74 74 75 75 74 75 74 72 72 68 66 64 63 68 66 66 66 66 65
68 66 69 72 72 73 74 74 73 74 74 74 73 73 73 71 68 72 71 72 73 73 73 74 74 73 71 72 73 76 77 73 69 66 65 64 64 64 68 66 67 67 70
70 69 71 74 75 74 75 76 75 75 75 74 73 73 73 69 64 65 69 70 72 73 73 74 74 73 72 68 68 68 71 75 76 71 68 68 75 72 69 68 67 67 67
72 72 73 75 75 75 75 76 76 76 75 75 74 74 75 75 64 63 66 69 69 72 74 73 71 68 72 73 69 67 68 66 68 73 74 74 75 75 77 76 75 74 73
73 73 74 75 75 76 76 76 77 75 76 75 74 76 76 74 64 62 65 72 72 73 73 73 75 74 73 72 73 72 73 73 74 72 74 74 74 75 77 77 77 76 75
72 73 74 75 75 75 75 76 75 75 75 74 74 76 76 76 63 62 66 71 71 74 73 74 75 75 69 64 73 73 73 73 66 63 65 65 65 64 67 73 71 72 71
72 73 75 75 75 75 76 76 76 75 74 72 73 75 71 75 64 61 66 70 71 69 75 77 66 71 65 62 74 73 73 72 73 74 77 71 67 72 64 72 73 72 72
70 71 74 75 76 76 77 77 76 75 74 75 74 75 76 74 74 60 59 72 68 67 67 66 68 62 61 60 61 73 73 73 73 76 76 75 75 75 76 77 73 72 72
73 73 75 76 72 72 77 77 76 76 76 76 75 73 72 74 66 61 58 61 67 70 69 67 72 61 57 58 61 63 61 63 72 73 74 73 74 75 75 76 77 77 76
73 75 75 75 74 76 76 76 73 75 72 72 71 71 70 70 73 62 58 58 60 69 71 68 62 60 57 60 58 59 58 72 71 69 70 71 73 73 75 75 76 77 73
73 74 74 74 73 74 73 73 71 71 71 70 70 69 69 70 71 73 71 67 60 65 67 70 69 66 61 66 71 70 72 70 70 70 70 71 74 72 71 69 64 62 62
73 73 73 72 73 73 73 68 71 73 67 70 69 70 70 70 70 68 68 73 73 69 71 73 72 73 73 74 74 74 73 71 70 70 72 71 70 68 64 62 62 62 60
71 70 69 69 71 71 73 69 49 48 46 47 51 63 69 57 55 57 56 58 57 55 70 74 74 74 73 73 71 70 70 68 70 70 68 66 64 62 62 62 62 61 61
73 74 68 67 70 71 73 72 69 65 48 45 44 48 55 55 47 46 46 47 49 59 73 72 71 70 67 67 66 66 66 67 68 64 64 63 63 62 61 61 61 61 60
71 64 75 69 69 70 69 65 65 67 70 71 52 51 44 45 45 46 50 57 66 65 67 66 65 64 65 64 64 64 65 65 65 64 64 63 63 62 61 61 62 62 60
68 66 66 68 68 66 66 64 64 65 70 63 60 54 49 44 46 48 48 70 70 68 66 66 65 64 64 63 63 64 64 64 63 63 63 63 63 62 62 61 61 56 57
67 62 64 69 69 70 70 69 69 69 65 64 63 62 61 59 63 64 65 65 63 62 62 61 61 60 60 61 61 61 62 62 63 62 62 63 63 63 62 62 62 62 61
65 66 62 66 66 66 68 69 70 67 64 61 61 58 53 63 62 61 61 60 59 57 58 58 58 58 58 59 59 59 57 58 59 59 59 60 61 61 63 63 62 62 62
63 64 66 65 63 63 61 62 61 60 58 57 57 55 49 58 57 56 55 54 54 55 54 55 53 53 54 54 55 55 55 55 56 56 56 57 58 59 60 62 63 62 62
61 62 62 61 61 58 60 59 59 57 56 55 55 56 55 54 52 52 51 51 51 51 51 51 51 51 51 52 52 51 49 49 50 51 53 54 55 56 57 59 61 61 61
61 60 60 60 60 58 57 55 53 51 53 52 51 53 52 52 50 50 49 49 49 49 49 50 49 48 47 46 44 43 42 43 45 49 52 53 53 53 54 55 57 59 59
58 57 57 55 55 54 52 51 50 50 49 49 48 48 48 48 48 48 48 47 48 46 44 41 40 39 37 35 33 31 33 31 38 36 48 53 53 55 53 52 53 54 56
57 57 55 53 51 50 49 47 46 45 44 43 42 42 41 41 40 41 40 40 39 37 37 34 34 34 31 29 30 30 29 30 33 31 36 48 49 49 50 51 51 52 53

GFSGL_sfc_dewp_051.txt.gz
Dewpoint
72 73 72 72 72 74 74 74 75 74 75 75 74 73 73 73 75 77 77 74 74 76 75 73 75 77 69 64 65 65 64 63 61 61 60 66 74 74 72 72 69 71 66
71 73 72 72 72 71 73 74 76 76 75 75 75 75 74 73 75 76 74 72 73 73 73 75 72 70 77 77 70 76 70 72 65 72 69 67 73 74 74 76 69 67 68
70 70 71 71 72 71 74 74 75 76 76 73 75 76 75 74 75 76 76 74 73 73 74 75 74 75 77 72 74 70 67 70 71 69 69 68 68 68 70 74 75 74 69
65 67 70 71 72 71 73 75 75 76 76 76 76 76 75 74 74 73 74 75 75 73 74 74 75 75 77 77 75 77 75 73 71 69 67 67 67 71 68 67 68 68 69
67 67 69 73 73 73 73 75 75 76 76 77 77 76 76 72 69 74 74 75 76 74 74 74 74 74 71 73 72 76 77 74 69 67 66 65 64 65 69 68 68 69 71
69 68 70 73 74 73 74 75 76 76 77 77 77 76 75 69 65 65 71 73 75 75 75 76 76 73 72 68 68 68 72 76 77 71 68 68 74 72 70 69 69 68 69
71 70 72 74 74 75 75 76 76 77 77 78 77 77 76 76 64 63 65 70 72 74 76 76 73 67 73 75 70 67 68 66 68 75 74 74 74 76 77 76 74 74 74
71 73 73 74 75 76 76 76 77 76 77 77 77 77 77 76 65 62 64 73 72 74 75 75 76 76 75 74 75 74 75 76 76 72 74 76 76 77 78 76 78 78 76
72 73 74 74 75 76 76 76 77 76 77 77 77 78 78 77 64 62 65 72 71 74 75 75 75 76 70 65 74 74 75 75 66 63 64 65 65 63 66 71 72 72 72
72 73 75 75 76 76 77 77 78 77 77 74 76 77 74 78 65 61 65 70 72 70 75 76 67 71 66 62 75 75 75 75 74 74 75 73 68 71 64 72 74 73 74
72 73 76 76 77 77 78 78 78 77 75 77 76 77 77 76 76 60 59 74 69 68 67 66 67 62 61 60 61 75 74 74 72 75 76 76 75 77 78 79 78 76 74
74 74 76 77 74 74 78 78 78 78 78 78 77 76 73 77 68 61 58 61 69 71 68 62 66 58 57 58 61 62 60 63 72 72 72 72 73 74 75 76 77 76 78
75 75 76 77 77 76 77 78 75 77 72 73 72 71 69 70 74 61 58 58 61 70 70 64 62 59 58 59 58 61 60 72 72 74 74 75 74 74 76 75 76 79 78
76 76 76 76 76 76 74 74 72 71 71 69 69 68 67 66 65 69 70 65 61 66 68 70 68 65 63 67 70 65 73 74 74 74 72 72 74 73 73 73 72 67 63
75 75 75 73 74 75 75 71 71 69 66 69 65 64 62 64 63 62 66 72 72 69 70 72 71 71 72 74 75 76 77 75 72 72 72 73 72 74 74 71 64 63 62
73 72 71 70 72 72 70 68 52 56 49 49 49 60 70 55 55 52 55 55 57 57 70 71 72 73 73 74 74 74 72 70 71 71 71 72 70 68 65 63 63 62 62
73 73 70 68 72 72 72 70 69 61 48 47 49 50 51 52 49 49 49 50 52 60 72 72 74 74 73 72 71 71 70 71 71 70 69 66 65 64 62 62 62 62 62
74 62 70 72 72 73 74 73 70 69 67 68 52 54 46 49 48 50 52 58 71 69 74 72 70 68 67 67 67 67 67 67 67 68 66 64 63 63 62 62 62 63 62
75 71 69 72 71 69 71 69 67 68 70 68 66 58 52 46 45 46 50 74 72 70 69 70 69 66 66 67 67 66 66 65 64 65 64 63 63 63 63 62 61 56 59
70 63 65 67 66 66 67 68 68 65 65 65 65 63 62 61 65 66 69 70 72 73 72 67 65 64 64 64 64 63 63 62 63 63 63 63 63 63 62 62 63 62 62
69 67 64 69 68 66 61 63 69 67 66 64 63 61 57 65 66 67 68 68 66 65 64 64 62 62 61 61 61 60 60 60 60 60 60 61 62 61 63 62 61 62 61
65 66 65 64 65 66 66 68 66 63 62 61 60 57 52 65 64 64 62 63 61 61 60 61 58 57 57 58 58 58 57 57 56 56 56 56 57 57 57 59 59 60 61
65 64 63 62 62 60 63 63 62 62 61 60 61 60 62 60 60 60 57 56 56 55 55 54 54 53 56 56 53 51 50 49 50 52 53 54 54 54 55 55 56 58 60
61 61 62 61 61 61 58 57 57 53 57 56 58 59 57 55 53 53 52 53 53 53 53 53 52 51 49 45 42 38 35 38 45 47 50 52 51 51 52 53 53 54 54
58 60 58 58 57 56 55 53 52 53 54 52 52 52 54 53 54 53 53 52 51 50 47 45 42 40 37 35 31 30 31 31 38 32 43 49 49 50 48 48 50 52 53
57 56 55 54 53 52 51 49 47 47 45 46 46 48 46 47 47 46 47 46 45 42 40 39 37 35 32 29 31 31 30 30 32 30 33 36 40 42 43 44 46 46 47

GFSGL_sfc_dewp_054.txt.gz
Dewpoint
73 72 71 71 71 71 72 69 75 73 78 76 77 76 75 75 77 77 76 75 75 76 76 76 76 76 75 74 73 72 71 72 69 69 72 71 74 73 71 72 73 72 71
73 72 71 72 71 70 69 73 73 76 75 79 76 77 75 75 76 76 75 72 74 75 75 75 75 74 76 76 75 75 75 76 73 71 72 71 71 73 75 75 73 68 70
72 71 71 71 71 71 71 71 74 74 76 74 77 75 76 75 75 76 76 75 75 75 75 75 75 76 76 76 76 74 73 73 73 72 71 74 74 73 72 75 75 73 71
70 70 71 71 71 70 72 71 73 75 74 75 75 76 75 75 74 75 75 75 75 74 76 75 76 76 76 77 75 76 75 75 74 73 71 71 72 73 74 73 73 74 72
68 69 71 72 72 72 72 73 72 73 74 75 75 76 75 74 72 74 74 75 75 75 75 75 75 75 72 74 75 76 76 75 74 73 71 72 71 72 71 72 72 73 71
68 68 70 72 73 73 72 73 74 73 74 75 75 75 75 73 68 66 72 73 75 75 74 75 76 72 71 68 67 68 72 75 74 75 74 72 72 73 73 71 71 71 70
69 70 70 72 73 73 73 72 74 73 74 75 75 76 75 75 65 64 67 71 73 74 75 75 74 71 72 75 69 66 67 66 68 73 72 72 72 73 74 74 74 73 73
70 71 71 72 72 73 73 73 73 74 74 75 75 76 76 75 66 62 64 71 72 74 74 74 75 75 75 75 75 75 74 74 73 71 72 73 75 75 76 75 75 75 75
70 71 71 71 72 73 73 73 73 74 74 74 75 76 76 76 64 63 63 70 71 72 72 73 75 76 70 66 72 73 73 74 69 66 68 67 67 66 68 71 70 70 72
69 71 73 71 73 73 73 73 74 74 74 74 74 75 73 76 66 62 64 71 71 71 73 74 66 70 65 62 73 74 73 73 74 75 75 73 67 70 62 68 71 72 73
70 71 73 73 73 74 75 75 75 75 75 75 75 75 76 75 75 61 59 72 71 71 71 71 72 64 61 60 61 73 72 73 73 75 74 75 77 77 78 77 77 76 74
73 72 75 75 72 73 76 76 76 76 76 75 75 75 75 77 68 62 58 61 68 72 71 71 71 60 59 59 61 62 61 63 72 72 72 73 73 76 76 76 77 76 77
75 73 74 75 75 75 76 76 75 76 75 75 74 74 74 75 76 63 59 58 60 71 73 68 61 59 56 57 58 61 60 70 72 73 73 73 76 75 75 75 76 76 76
74 75 74 75 75 75 75 75 75 75 75 74 73 73 73 73 73 75 68 64 61 65 67 70 68 68 64 67 67 63 71 74 74 74 75 75 74 74 73 74 73 74 71
75 74 74 74 74 75 74 75 75 75 72 73 73 72 72 71 71 66 70 72 71 68 70 73 73 72 71 73 75 75 74 75 75 74 73 72 73 72 73 74 74 72 68
73 73 72 73 73 74 73 71 51 54 50 53 56 66 69 57 52 51 50 58 58 57 70 72 72 72 71 72 73 75 75 72 72 72 72 72 71 72 72 71 70 67 66
74 74 72 71 72 73 73 70 67 59 47 46 46 51 55 55 49 48 46 52 54 59 72 71 72 73 75 75 74 72 72 72 72 72 72 71 70 69 67 67 67 68 67
75 65 72 71 71 73 73 71 70 68 68 66 53 53 48 48 49 51 55 59 69 68 74 74 74 73 72 71 70 69 69 71 70 70 67 67 67 68 68 67 66 66 65
70 71 72 73 73 71 73 72 72 71 73 71 66 59 54 49 49 50 52 74 73 74 71 71 70 69 68 69 68 69 68 66 65 67 66 65 66 66 65 65 64 58 60
68 64 66 71 73 73 73 72 73 72 69 67 68 67 63 61 68 68 68 68 69 71 69 68 68 68 68 67 69 68 65 64 65 66 65 64 65 65 64 64 63 63 63
68 67 64 68 70 70 72 71 70 68 68 68 68 65 57 69 68 68 66 65 65 66 67 66 66 66 66 66 66 65 63 63 64 63 63 64 64 62 63 62 61 61 62
66 65 65 64 67 67 67 68 65 65 64 63 63 60 50 68 65 64 63 63 63 64 66 66 63 61 62 62 62 61 61 60 59 58 59 59 60 61 61 61 59 59 59
66 64 63 62 62 59 60 61 62 62 62 63 64 63 62 60 59 60 60 61 61 61 61 58 56 55 56 50 45 43 46 48 50 53 53 55 56 57 57 57 56 55 56
62 63 63 62 58 57 57 56 55 52 54 55 57 56 56 56 56 56 56 55 54 55 52 48 42 38 38 35 34 30 31 35 41 43 46 50 52 53 54 54 54 54 55
59 57 56 60 58 57 55 54 54 54 53 54 54 53 54 54 55 54 53 53 53 48 45 42 38 35 33 32 31 31 31 31 35 32 38 44 49 51 49 47 48 48 50
52 54 53 51 50 50 50 49 48 49 48 50 49 47 48 48 45 46 50 50 46 48 43 39 36 34 30 30 30 31 30 31 32 31 34 41 40 38 34 36 38 44 43

GFSGL_sfc_dewp_057.txt.gz
Dewpoint
68 70 67 66 70 70 68 66 70 68 73 73 73 73 74 74 74 73 72 73 72 72 72 72 72 72 71 71 73 71 67 67 64 64 68 68 68 68 69 69 69 68 70
69 68 69 68 68 69 69 67 65 70 70 73 73 73 73 72 73 73 73 72 72 72 72 72 71 73 72 71 72 71 71 71 69 66 68 67 68 69 69 69 70 71 71
70 69 69 69 66 67 66 69 66 71 69 72 73 72 73 72 72 73 73 73 72 72 72 72 72 71 72 73 72 72 71 70 72 70 69 71 72 72 71 70 72 73 72
70 70 69 68 69 66 66 65 71 68 73 72 74 72 73 72 73 73 73 73 73 72 73 73 73 73 72 72 73 72 72 72 71 71 70 70 70 70 71 70 69 71 71
69 70 70 69 68 69 67 67 63 72 68 72 72 74 73 73 72 72 74 73 73 73 72 73 73 73 72 72 74 73 73 73 72 72 71 70 70 70 69 71 70 69 70
68 69 70 70 69 69 69 70 67 66 72 70 71 72 74 73 69 68 71 73 73 73 73 73 73 72 71 68 69 70 73 73 72 72 71 71 70 70 71 70 70 70 69
65 69 69 69 70 69 69 69 71 67 68 72 72 72 72 73 67 66 68 70 71 73 73 73 73 72 71 73 69 66 66 66 67 70 70 70 70 70 71 70 71 72 72
65 67 69 70 70 70 70 69 70 70 69 69 71 73 73 73 67 64 66 69 70 70 73 73 72 72 72 72 72 72 71 69 69 69 69 70 71 72 72 72 73 73 74
66 66 68 69 70 70 70 70 69 70 71 70 71 72 73 73 65 64 63 66 68 70 72 72 73 73 69 66 71 72 72 74 70 65 66 66 65 65 68 71 72 72 69
65 67 68 69 70 70 70 70 71 69 69 71 70 72 71 73 65 63 63 69 67 68 69 71 66 71 67 64 70 69 69 69 71 72 72 68 65 67 63 68 70 69 70
66 67 70 68 69 70 71 70 70 70 70 70 71 71 73 73 73 61 60 71 69 68 68 68 70 63 59 59 60 69 70 71 71 73 73 73 73 75 75 71 71 72 71
70 69 69 69 69 70 70 71 70 70 70 70 71 72 72 73 67 63 59 61 68 69 68 69 68 63 60 59 60 61 60 63 72 71 71 71 71 72 74 75 74 75 75
72 70 71 72 69 70 71 71 71 71 71 71 71 72 72 72 73 63 59 59 60 70 70 68 65 61 57 59 59 60 59 66 69 70 70 71 72 74 73 73 74 75 74
71 73 70 72 71 69 72 72 72 72 72 71 72 72 72 72 73 74 69 64 60 63 67 67 66 65 65 67 63 59 65 67 68 69 72 72 72 71 71 72 72 72 71
72 73 71 71 71 71 72 73 72 73 71 72 72 72 71 72 72 68 70 71 70 67 68 70 69 69 69 70 72 68 67 71 72 73 73 72 71 72 71 72 73 71 67
70 71 72 70 72 72 72 67 50 52 52 56 61 69 72 61 61 57 54 57 58 57 67 70 70 71 71 70 71 73 72 71 73 73 72 71 71 70 71 71 70 63 61
68 71 72 69 71 72 72 71 68 58 48 46 46 55 56 60 51 50 48 52 50 58 70 70 71 71 71 71 70 72 72 72 72 71 70 70 70 71 69 64 63 64 64
66 63 72 71 71 72 73 72 70 67 67 66 52 51 46 47 46 45 45 54 62 66 70 70 71 70 70 70 71 70 70 70 70 70 68 66 65 65 64 63 62 61 60
65 68 71 71 73 72 73 72 69 69 69 67 62 55 51 48 47 52 56 70 70 70 69 68 68 68 68 67 67 67 67 66 66 65 64 64 64 63 63 63 61 57 57
63 64 65 71 72 71 73 73 70 70 70 66 66 65 62 61 67 67 66 69 70 68 68 67 67 67 67 67 66 66 65 65 65 64 63 63 62 62 62 61 61 60 60
63 66 64 68 68 69 69 68 70 71 68 67 65 62 56 68 67 66 65 63 65 67 67 67 66 66 65 65 64 64 63 63 63 61 61 60 61 60 60 60 59 59 59
63 63 63 63 63 63 66 66 65 64 64 63 63 61 52 67 64 63 62 62 63 64 64 65 64 64 62 61 61 63 62 58 57 56 55 56 56 57 58 58 56 56 56
63 61 60 60 60 59 60 63 63 64 63 61 62 60 59 59 59 58 58 58 57 57 57 58 52 47 48 47 48 49 49 50 49 49 50 51 52 54 53 55 54 54 54
61 59 58 56 55 55 56 55 56 55 58 57 56 56 56 55 56 55 54 52 49 45 43 42 43 43 45 40 36 34 38 38 36 36 38 43 48 49 50 50 51 52 54
51 50 53 54 53 52 50 51 51 52 53 53 54 53 53 53 54 54 53 50 48 46 42 38 36 37 37 32 31 30 30 32 32 32 34 37 41 34 34 33 35 40 44
43 45 44 44 43 45 46 45 44 44 45 45 45 45 45 45 46 47 48 46 43 42 38 36 34 36 36 36 32 33 30 30 32 31 33 37 36 33 32 31 32 34 35

GFSGL_sfc_dewp_060.txt.gz
Dewpoint
68 67 65 65 68 70 66 66 68 68 68 70 72 71 72 72 71 73 71 70 71 70 71 70 71 71 70 70 71 71 69 66 63 63 66 68 68 67 68 68 69 67 68
68 68 67 65 66 69 69 66 66 68 71 72 73 72 72 72 72 71 71 71 71 70 71 71 71 72 71 70 70 70 70 69 67 66 66 67 67 70 70 70 71 71 72
66 68 68 66 65 66 68 69 65 65 68 73 73 72 72 72 72 72 72 71 71 71 71 71 71 70 71 71 71 70 70 71 70 69 69 70 71 70 70 70 70 71 72
66 67 67 68 66 64 66 67 69 65 64 69 73 72 72 72 72 72 72 71 71 71 71 72 72 72 70 71 71 71 72 71 70 69 69 69 70 71 70 70 69 70 70
67 67 66 68 69 66 64 66 66 69 66 68 71 72 72 71 71 70 71 72 71 71 72 72 73 72 71 70 71 72 71 71 70 70 70 70 70 70 69 70 69 69 70
68 68 68 67 69 69 67 65 66 65 69 68 71 72 71 71 67 68 70 71 72 72 71 72 72 71 70 68 68 69 71 72 71 71 71 70 70 69 69 69 68 68 68
68 68 69 70 69 69 69 67 65 65 63 69 67 71 72 72 66 65 68 71 72 72 72 71 72 72 71 72 68 66 66 67 68 72 71 70 69 69 69 68 69 69 70
66 68 70 70 70 69 68 68 68 68 64 63 69 68 70 72 66 64 66 70 70 71 73 73 72 72 71 71 71 71 71 70 68 67 68 69 70 71 71 71 70 71 73
65 65 68 70 70 70 69 68 69 69 69 65 67 71 71 70 64 63 64 70 70 70 70 71 72 72 68 65 71 71 71 72 70 64 64 64 63 62 66 71 71 71 71
65 64 65 68 70 70 70 69 69 68 69 69 67 67 68 72 64 62 64 70 69 69 69 70 66 70 65 63 70 71 70 70 69 69 71 67 64 67 63 68 71 70 70
66 65 66 65 68 70 70 70 69 69 68 69 69 69 70 70 70 61 60 71 71 69 68 68 69 62 60 60 61 71 70 69 69 71 71 72 72 73 73 70 69 70 69
63 64 64 65 67 69 69 70 70 70 69 68 69 70 70 71 66 62 60 61 68 71 69 68 67 61 58 58 58 61 59 60 68 70 70 71 71 71 71 73 74 73 74
70 70 68 70 69 68 69 69 70 69 70 69 68 68 70 71 71 62 60 59 61 70 71 67 62 58 57 59 59 59 58 63 66 68 69 70 70 71 73 73 73 74 74
66 68 71 72 71 71 68 72 70 69 69 69 69 69 69 70 71 72 69 65 61 63 67 69 65 64 62 64 63 61 62 65 66 67 68 70 71 71 72 72 72 71 71
62 66 70 72 70 71 71 71 70 71 69 69 69 69 70 70 71 67 69 72 71 68 67 71 67 66 68 68 69 68 64 65 66 68 69 70 71 72 72 72 70 70 70
60 63 68 72 72 72 71 67 52 53 56 56 58 66 70 64 61 56 53 57 57 56 65 70 70 70 69 69 69 70 68 66 69 70 72 72 71 70 70 69 70 68 64
57 61 64 67 71 71 71 70 69 59 48 46 50 53 57 63 53 52 53 51 51 55 71 70 71 70 71 71 70 71 71 71 70 72 72 70 70 68 68 68 65 62 62
56 56 61 66 71 71 71 71 70 70 69 67 51 55 51 50 51 50 47 53 59 60 71 71 71 71 71 71 70 70 70 70 70 69 68 68 68 66 63 62 62 61 60
55 58 64 67 71 71 73 73 71 70 71 71 60 54 48 44 44 45 48 68 67 67 70 70 70 69 69 68 67 67 66 66 66 66 65 65 66 64 63 62 61 56 57
55 57 58 65 69 70 71 71 69 68 69 67 66 67 61 58 66 65 64 67 68 69 70 70 69 68 67 66 65 65 65 64 64 64 65 65 65 64 62 61 61 61 60
55 56 62 65 66 69 69 70 68 69 68 67 66 63 54 69 67 66 65 65 68 68 68 67 66 66 65 65 64 65 64 64 64 63 63 62 62 62 62 60 60 59 57
56 58 62 62 63 65 67 66 67 65 64 62 62 62 52 64 63 62 61 62 63 64 65 63 59 57 57 57 60 61 57 56 57 59 59 59 60 60 59 59 56 55 55
58 60 59 59 59 59 63 64 64 64 63 62 63 62 62 61 60 59 58 56 54 54 54 53 51 48 46 45 45 48 49 48 47 52 52 53 53 55 55 57 55 54 54
57 56 54 53 54 55 56 57 57 55 60 59 59 59 58 58 57 53 50 47 44 44 44 43 41 39 40 39 39 38 37 37 40 40 46 45 44 46 48 48 46 51 53
48 47 48 49 48 46 48 50 51 51 52 52 53 53 55 54 52 49 45 43 40 38 36 33 32 34 34 33 32 31 31 34 38 37 38 38 33 33 32 32 32 34 40
43 43 45 44 44 45 45 43 44 45 44 45 46 46 47 47 48 46 45 43 38 36 36 35 36 37 35 34 33 33 31 32 34 34 37 35 33 33 33 32 33 34 32

GFSGL_sfc_dewp_063.txt.gz
Dewpoint
65 65 65 66 69 68 66 66 68 69 70 70 72 71 71 71 71 71 70 70 70 70 70 70 70 69 70 69 70 70 68 64 63 64 65 68 68 67 69 70 71 70 69
65 65 65 64 66 69 68 66 66 67 68 69 70 71 71 71 71 71 71 71 70 70 70 70 70 70 70 70 69 69 68 68 66 65 66 68 68 70 70 70 71 71 72
66 65 65 64 64 65 68 69 66 66 67 70 71 72 71 71 71 71 71 71 71 71 70 70 70 70 70 70 70 70 70 70 69 68 69 69 70 70 70 70 70 70 71
65 66 66 65 64 64 65 67 68 65 66 67 72 72 72 71 71 71 71 71 71 71 71 71 71 71 70 69 70 70 70 70 69 68 68 68 69 70 70 69 70 70 69
64 66 66 67 66 64 64 65 67 68 66 65 68 72 72 72 71 71 72 71 71 71 71 71 71 71 70 70 70 70 70 69 69 69 68 68 69 69 69 69 68 69 69
65 65 67 67 67 66 65 64 65 66 67 66 66 67 71 71 67 67 70 71 71 71 70 70 71 70 70 67 67 68 70 70 69 69 69 69 69 69 68 68 67 67 67
66 67 67 68 67 68 67 65 64 64 65 66 67 68 68 70 65 65 67 70 70 71 71 70 71 71 70 71 68 66 66 66 68 71 70 70 69 69 68 67 68 68 68
68 67 67 67 67 68 69 67 65 64 65 64 64 66 69 69 65 63 65 70 70 70 71 71 71 71 71 71 71 71 71 71 69 68 70 71 71 71 70 70 69 69 70
66 68 68 68 69 68 68 68 68 66 65 65 63 63 66 67 63 62 64 69 69 70 70 71 72 72 68 64 71 70 70 71 68 63 64 64 63 62 65 69 69 68 69
66 64 65 68 69 70 69 68 68 68 67 67 66 64 63 66 61 62 63 70 70 70 70 70 65 69 64 62 69 70 70 70 70 70 69 66 63 66 62 68 70 70 69
66 65 65 64 66 70 71 71 70 69 69 69 69 67 65 68 68 59 59 70 69 69 69 69 70 62 60 59 60 71 70 69 68 69 69 69 70 71 72 69 70 71 70
69 65 64 64 67 68 69 70 71 70 69 68 68 69 69 67 62 61 59 61 66 69 69 69 68 59 58 58 59 61 60 61 68 68 68 69 69 70 71 72 73 71 72
64 65 67 69 65 67 68 68 69 70 69 68 68 68 69 69 69 60 58 58 60 69 71 67 62 58 55 57 57 60 59 64 66 65 66 67 69 70 70 71 73 74 74
61 63 64 65 68 71 71 70 68 69 69 69 68 68 68 69 70 70 67 63 60 63 66 68 66 63 61 63 63 61 63 64 65 66 67 68 68 69 70 71 72 72 71
58 61 62 64 68 71 71 70 69 69 68 68 68 69 69 68 69 66 67 71 70 67 68 70 71 68 68 68 67 67 65 64 65 66 66 67 68 69 70 71 71 71 70
56 58 60 62 64 68 71 70 53 56 55 55 56 65 69 62 60 55 54 54 56 55 66 70 70 70 70 70 70 69 68 65 66 67 67 68 68 70 70 69 70 70 69
53 56 57 59 61 65 69 71 69 60 49 50 49 52 53 62 51 52 51 52 52 54 71 70 70 70 70 70 70 70 70 70 69 69 69 70 70 70 68 68 68 65 63
53 53 55 57 59 63 67 71 71 69 68 68 55 53 51 50 49 50 50 53 59 56 71 72 71 70 70 70 70 70 71 71 71 70 70 70 70 69 66 66 66 63 62
52 54 57 58 60 62 66 69 71 71 70 70 65 54 51 48 47 46 49 70 70 68 68 71 71 71 71 71 71 71 71 71 71 71 70 69 68 66 64 63 63 58 58
52 54 55 56 57 61 64 68 71 72 71 71 69 69 58 58 64 64 60 65 70 70 70 69 70 70 70 71 69 69 68 67 68 67 64 64 64 63 62 61 61 60 60
52 54 55 56 57 62 64 68 71 71 70 70 70 66 55 66 69 70 67 66 67 67 68 69 67 66 66 66 65 65 66 65 64 63 62 62 62 62 62 61 61 62 61
53 53 55 56 59 64 65 68 70 69 69 68 64 60 50 66 66 64 63 63 63 62 64 62 59 60 60 62 64 63 63 62 61 61 61 60 61 61 61 60 60 59 59
52 55 56 58 60 59 64 66 67 68 66 65 64 63 63 62 60 59 57 55 55 55 55 55 53 50 51 50 52 55 57 56 57 58 56 55 57 58 59 58 57 55 55
49 51 54 52 52 53 55 57 59 56 63 64 64 62 59 56 53 50 50 49 47 47 47 44 44 44 44 44 43 44 45 45 45 47 50 50 51 51 54 53 53 52 53
45 46 46 47 46 46 47 48 48 48 50 54 55 53 50 47 45 44 43 42 39 43 40 39 37 37 35 35 33 33 33 34 39 40 44 43 40 37 36 34 37 42 42
42 41 41 43 44 45 43 43 44 45 46 47 48 48 46 44 42 41 41 40 39 37 37 37 36 37 36 35 34 33 31 33 36 34 35 37 39 37 34 35 33 32 32

GFSGL_sfc_dewp_066.txt.gz
Dewpoint
66 67 67 67 67 67 67 68 70 71 71 72 73 73 72 72 73 72 72 72 71 71 71 72 72 72 71 71 71 72 70 67 67 69 67 71 72 73 73 74 74 74 73
66 67 67 67 68 67 66 67 69 70 71 72 72 73 72 72 72 73 72 72 71 71 71 71 71 71 72 72 71 72 71 71 69 70 70 71 72 73 73 74 73 72 73
66 66 66 66 67 68 68 68 68 68 68 70 71 72 72 72 72 72 72 72 72 72 71 71 72 72 72 72 72 71 71 71 71 70 71 72 72 72 73 74 74 74 72
66 66 66 66 66 66 68 69 68 68 68 68 70 71 72 72 72 72 72 72 72 72 72 72 72 72 72 72 72 72 72 72 72 72 71 71 71 73 72 72 72 72 71
66 66 66 66 66 66 67 68 69 68 68 68 68 71 72 72 71 73 73 72 72 72 72 72 72 72 70 71 72 73 73 72 72 71 71 71 72 72 72 73 71 71 72
65 65 68 68 68 67 67 67 68 69 68 68 68 68 70 71 68 67 71 72 72 72 72 72 73 71 70 67 67 68 71 73 73 72 72 71 73 72 73 72 71 71 71
66 66 67 68 68 68 68 67 67 67 68 68 67 68 69 70 65 65 67 72 72 72 72 72 71 71 71 73 69 66 66 65 68 73 73 73 73 74 73 73 71 71 71
67 67 68 68 68 69 69 68 67 66 67 67 68 68 68 68 63 63 65 71 72 72 72 72 72 72 72 72 72 73 73 73 71 69 71 73 74 75 74 73 73 73 73
66 68 69 68 68 68 69 69 68 67 66 66 67 68 68 68 61 61 64 70 70 71 72 72 72 72 68 64 72 73 73 73 68 64 65 65 64 63 66 72 71 71 71
66 67 67 68 69 69 69 69 70 69 68 66 67 67 65 68 61 60 62 68 68 69 71 72 65 70 64 62 71 72 72 72 72 73 72 68 64 68 61 69 71 72 73
68 68 67 66 67 70 71 71 71 70 70 69 68 68 67 66 66 58 59 69 68 67 68 69 71 61 60 59 61 72 71 71 70 72 72 71 72 72 73 70 71 73 73
65 66 66 67 66 68 69 71 71 71 70 70 69 69 69 68 61 58 57 60 66 68 68 69 70 59 57 57 58 61 60 61 71 71 71 71 71 72 72 73 75 73 74
64 63 64 65 67 68 67 68 71 71 70 69 69 69 69 70 68 59 57 57 60 68 69 66 62 58 57 58 57 59 58 66 68 69 69 69 70 71 72 73 74 75 75
61 62 63 63 64 66 69 67 67 69 70 70 69 69 69 70 70 70 65 62 59 63 65 68 66 64 62 65 64 62 64 67 68 68 68 69 71 71 71 72 72 73 74
58 60 62 62 63 64 67 70 69 68 67 70 70 70 69 69 69 67 67 68 67 65 67 71 70 71 70 70 69 69 69 67 67 68 69 70 70 71 71 71 73 74 73
56 57 59 61 62 63 64 66 59 57 52 52 57 66 70 63 57 54 53 52 54 53 66 69 69 70 69 69 70 71 71 68 68 69 69 70 70 70 71 73 73 72 71
53 54 56 56 59 61 62 63 64 66 52 50 48 49 53 62 52 52 50 49 52 54 70 70 70 70 70 70 70 70 71 71 71 70 70 70 70 71 70 72 71 71 71
52 51 53 54 56 59 61 63 65 66 69 69 55 54 50 48 47 49 48 50 62 55 71 71 71 71 71 71 71 71 72 72 72 71 71 71 71 71 71 71 71 71 71
50 52 53 54 56 58 61 61 62 63 66 70 70 55 51 45 48 46 46 69 69 70 68 71 72 73 72 71 71 72 72 72 72 72 71 72 72 72 71 71 69 59 63
50 52 52 53 54 56 59 61 62 64 66 70 72 71 60 57 60 61 59 65 71 71 71 70 71 72 72 72 72 72 72 71 71 71 71 70 68 67 66 65 65 65 65
50 50 51 52 53 55 57 60 61 63 65 69 70 71 57 67 69 69 68 66 68 71 72 72 71 72 72 72 72 71 71 70 70 68 66 66 66 65 65 65 65 65 64
49 51 51 51 53 55 57 60 62 63 65 67 70 69 49 68 70 70 71 70 69 69 70 70 70 70 70 70 69 69 68 66 65 65 64 65 65 65 66 65 65 64 62
50 50 50 51 53 54 56 58 62 63 64 67 70 67 60 65 64 59 55 54 52 51 52 54 55 53 52 54 59 65 64 63 64 64 64 64 64 64 64 63 61 60 59
48 49 49 52 54 54 55 58 60 58 63 66 67 64 63 58 53 50 47 46 46 45 44 43 43 42 43 43 44 44 44 51 56 58 61 60 59 57 60 59 58 57 56
44 44 45 46 46 46 46 48 50 51 53 56 55 52 49 47 45 43 44 43 42 42 41 41 41 41 43 43 40 38 35 35 40 40 48 52 52 53 53 53 52 53 53
42 41 41 42 42 44 43 43 44 46 47 48 46 44 44 43 42 41 41 40 39 39 40 40 40 41 41 40 38 37 35 36 38 37 44 44 44 43 42 41 41 42 42

GFSGL_sfc_dewp_069.txt.gz
Dewpoint
68 70 70 69 69 70 70 71 73 73 74 74 74 74 74 74 75 75 74 73 73 73 73 73 73 75 70 70 71 71 70 70 66 66 70 72 75 75 74 75 73 73 69
69 70 69 70 70 69 70 70 72 73 73 74 74 74 74 74 75 75 74 72 73 73 73 73 72 71 75 74 71 74 72 73 70 71 72 70 73 75 76 76 73 69 73
68 68 69 68 69 69 70 70 70 72 73 72 74 74 74 74 75 75 74 74 73 73 72 73 73 73 74 72 73 72 71 72 73 71 70 71 72 72 73 74 75 75 71
66 66 68 68 69 69 71 71 70 71 71 72 72 73 74 74 74 74 74 74 74 73 73 73 73 73 74 75 73 74 73 73 72 72 70 70 70 73 73 71 69 70 71
66 66 67 69 70 69 70 72 71 71 71 72 71 71 72 71 70 73 74 74 74 73 73 73 73 73 71 71 71 73 75 73 70 70 69 68 68 68 70 70 70 71 72
67 67 69 70 71 71 71 71 72 71 71 72 71 71 71 68 64 67 71 73 74 74 73 74 74 72 71 67 67 68 71 74 74 70 68 69 72 72 71 70 70 70 67
68 67 68 70 71 71 71 71 71 71 72 71 71 71 71 72 64 65 68 70 73 74 74 74 72 70 72 73 68 66 67 66 68 74 73 72 72 73 74 74 73 73 70
69 67 68 69 70 71 71 71 71 71 71 71 71 72 72 71 63 63 66 71 73 73 73 74 74 73 73 73 73 72 73 73 73 71 73 74 74 75 76 75 75 75 73
66 68 69 69 69 70 70 71 71 70 70 70 70 71 71 72 61 61 65 70 70 73 73 73 74 74 69 65 72 72 73 73 67 66 66 66 65 64 67 72 71 69 66
61 66 68 70 69 71 71 71 71 71 70 69 69 70 68 72 63 59 63 66 68 67 72 74 66 71 65 62 72 72 72 72 71 71 73 70 66 70 62 72 71 69 67
57 66 66 66 69 69 70 73 72 71 71 71 70 71 71 70 70 59 58 69 66 67 66 66 66 62 61 59 62 73 73 71 69 72 71 70 71 72 72 72 73 71 68
58 63 63 65 65 67 70 69 73 73 73 72 72 71 70 71 64 61 57 59 66 68 69 67 68 59 58 58 59 63 61 63 70 67 66 68 68 69 70 71 76 75 73
57 62 61 63 65 66 69 69 69 71 72 73 70 70 70 70 71 59 56 57 58 67 69 67 61 56 56 59 58 60 59 68 69 67 66 66 68 69 73 73 74 76 76
53 59 60 60 62 64 64 66 67 66 69 71 71 70 70 70 70 71 68 63 58 62 64 68 66 64 62 65 66 62 67 69 68 68 66 67 69 70 70 70 70 70 71
51 55 59 58 60 62 63 64 67 70 67 66 68 69 69 69 69 66 67 70 68 65 66 68 69 69 69 69 70 70 70 70 69 69 69 68 69 70 70 71 71 71 70
51 53 56 56 58 61 61 62 57 56 54 53 54 60 68 63 58 54 53 53 53 53 66 69 70 70 69 69 70 70 70 69 70 69 69 69 69 69 70 71 71 70 70
53 55 55 55 56 58 59 61 59 58 53 51 49 51 50 59 52 52 51 51 51 54 68 69 69 70 70 70 70 70 69 69 73 70 69 69 69 70 70 70 70 71 70
52 52 54 54 54 55 57 59 61 60 59 61 54 53 50 49 49 48 48 49 63 56 70 70 71 71 70 71 71 70 71 71 71 71 70 70 70 70 70 70 71 71 71
49 49 51 53 53 54 56 57 59 59 60 60 61 59 57 47 49 50 49 68 69 69 68 70 72 72 73 73 73 73 73 71 71 72 72 71 71 73 72 71 71 64 68
47 49 50 50 52 54 54 56 58 59 59 59 62 63 69 60 63 61 60 64 70 71 71 70 71 73 73 74 74 74 74 72 72 72 72 73 72 73 73 73 72 68 67
46 47 49 51 52 53 52 53 56 59 59 60 60 62 57 67 68 68 67 67 70 71 73 73 73 73 74 75 74 73 73 73 72 72 72 72 72 71 72 70 69 69 69
48 48 49 49 50 52 53 54 55 57 59 60 59 59 52 65 71 72 71 69 70 72 73 74 75 74 73 73 74 73 72 72 72 71 71 70 69 68 68 67 68 68 68
47 47 48 49 50 51 52 54 55 55 57 61 62 64 66 65 69 71 66 61 57 56 57 59 64 61 56 56 55 62 71 71 70 69 68 67 67 67 68 68 66 65 64
46 47 48 49 50 51 52 53 55 53 56 60 62 64 66 65 60 54 52 51 50 49 48 50 49 50 47 48 48 47 48 54 61 66 66 67 67 64 65 64 63 63 62
43 44 45 47 48 49 50 50 52 53 54 56 59 61 53 50 47 46 46 45 45 44 44 45 46 44 44 44 43 43 41 40 49 51 62 63 62 61 62 62 59 59 59
42 42 42 43 44 45 46 46 46 47 49 48 47 47 45 43 42 42 42 42 42 42 42 42 41 41 40 39 39 37 36 41 43 41 50 50 48 47 47 45 45 46 47

GFSGL_sfc_dewp_072.txt.gz
Dewpoint
70 70 70 70 71 72 71 72 72 71 72 73 74 74 73 72 73 75 73 71 73 72 71 71 73 73 67 65 66 66 66 66 63 62 66 70 75 74 73 73 70 70 65
68 70 70 71 70 69 71 71 72 72 72 73 75 74 74 73 74 74 72 70 71 71 72 72 71 68 73 73 68 72 69 70 66 70 70 68 72 74 74 75 70 66 69
68 68 70 69 70 70 70 71 71 72 72 71 73 75 74 74 74 74 73 72 72 72 72 72 72 72 72 68 71 68 67 69 69 68 67 67 68 70 72 74 72 73 66
65 67 68 69 69 69 70 71 71 72 72 72 72 73 73 71 73 73 74 73 72 72 73 72 72 72 73 74 72 73 72 70 71 68 66 65 66 70 70 66 64 65 67
68 67 68 70 70 70 71 72 72 72 72 72 71 72 72 71 68 72 73 74 73 73 73 73 73 71 70 71 70 74 75 71 67 65 65 65 65 65 69 65 65 64 69
69 68 69 70 71 71 72 72 72 72 72 72 71 70 70 67 64 66 71 72 73 73 73 74 74 72 71 68 68 68 71 74 73 69 66 67 73 71 68 65 66 64 64
63 69 69 70 71 71 72 72 72 72 72 73 72 71 72 72 63 63 67 69 70 72 73 72 71 68 72 72 69 67 67 66 67 73 73 72 73 73 74 73 74 70 69
60 65 69 69 69 71 73 72 72 72 72 72 73 74 74 72 63 62 64 71 71 72 72 72 74 73 72 72 72 71 72 72 73 71 72 72 73 74 76 75 75 75 72
55 60 65 66 70 70 70 72 73 72 72 71 72 73 74 74 62 61 65 69 68 72 72 73 74 74 69 64 72 72 72 72 65 65 65 65 64 64 67 70 66 64 61
51 53 58 65 66 68 71 74 76 75 73 71 71 72 69 73 64 59 64 66 68 65 71 74 66 70 64 62 74 73 72 71 68 68 72 70 68 71 64 73 70 65 61
52 53 57 61 64 65 69 73 74 75 75 74 73 72 72 71 72 59 58 69 66 65 64 62 63 61 61 59 62 74 72 69 66 68 66 65 66 68 71 73 74 70 63
54 53 54 56 61 59 66 66 71 75 75 74 75 72 71 73 65 61 57 59 66 68 68 64 67 57 57 58 60 63 60 63 64 59 58 59 59 61 62 67 76 76 73
52 54 54 55 56 61 63 65 65 70 70 75 75 70 69 70 71 61 57 57 58 66 68 66 59 56 53 57 58 60 60 68 65 60 59 59 59 59 69 72 75 79 78
51 52 53 52 53 57 56 56 60 63 63 65 68 73 74 70 70 70 69 65 59 62 64 66 65 63 61 64 66 63 67 68 66 64 61 60 61 59 60 63 66 66 67
48 49 51 50 52 55 56 55 58 62 62 63 68 69 70 69 68 65 65 70 70 66 66 68 68 68 68 68 68 68 68 68 68 67 66 64 63 61 60 63 64 65 64
46 46 46 48 49 50 51 53 52 54 54 52 52 57 67 61 55 55 53 54 55 55 67 68 68 68 68 68 67 66 67 66 68 68 67 66 64 63 62 63 64 64 65
45 47 47 50 52 52 52 52 52 52 50 49 50 50 50 56 54 49 48 50 49 54 69 69 69 68 68 69 68 68 67 67 72 67 67 66 65 65 63 63 63 65 67
46 46 47 48 50 53 53 53 53 54 54 54 51 52 50 48 49 47 49 54 67 58 69 70 70 69 70 71 70 70 69 69 69 69 68 68 67 66 65 65 65 67 66
45 45 45 47 48 50 51 52 52 53 54 55 56 53 53 48 45 44 47 64 69 70 69 69 70 71 72 72 72 73 73 71 71 70 70 70 69 68 67 67 66 61 64
44 46 47 46 47 50 51 51 51 52 52 54 55 55 56 58 64 66 61 62 68 70 70 70 71 71 72 74 74 74 74 74 73 73 73 72 73 73 71 70 69 68 69
43 44 45 45 46 47 49 50 50 51 54 54 54 55 50 59 61 65 70 67 68 69 71 72 72 73 73 74 75 74 74 74 74 73 74 74 74 73 73 72 72 73 73
45 45 45 46 46 48 49 50 50 52 53 54 54 55 48 58 58 59 62 70 71 71 71 72 73 72 73 75 74 75 76 75 74 74 74 74 73 73 73 72 72 71 71
44 45 45 46 46 47 48 49 49 50 52 53 55 55 56 58 60 61 64 67 68 66 63 60 64 69 66 64 63 66 70 74 75 75 73 73 72 72 70 69 69 69 68
45 45 45 46 48 48 49 49 50 49 50 52 53 54 55 57 57 64 64 58 55 52 51 52 52 53 52 52 51 52 53 54 57 67 71 70 69 66 69 68 68 68 68
41 42 43 44 45 46 47 48 49 51 53 54 54 56 56 61 58 53 52 51 48 48 46 46 47 47 45 44 44 46 43 44 53 51 64 65 66 65 66 67 67 64 64
39 39 42 43 43 43 45 46 48 50 51 53 54 56 56 55 50 49 47 46 45 44 44 44 43 43 43 43 43 39 37 42 46 42 53 53 53 53 53 54 55 53 51

GFSGL_sfc_dewp_075.txt.gz
Dewpoint
70 71 71 71 72 73 71 71 73 71 72 72 75 73 72 72 72 75 76 72 72 73 73 71 74 77 67 63 63 63 64 64 62 62 64 71 74 76 74 75 72 73 70
69 72 70 71 71 71 72 72 73 74 72 72 73 73 73 72 73 74 72 69 71 71 71 74 70 68 76 76 68 76 70 73 66 74 71 66 73 76 77 78 71 66 69
67 67 69 69 70 71 71 72 74 74 74 70 72 74 72 72 74 75 74 72 71 71 71 72 72 73 75 71 73 69 67 69 70 67 67 66 66 68 72 75 76 75 69
70 66 68 70 70 71 72 73 72 74 74 73 73 74 73 71 72 73 74 74 73 72 72 72 72 73 75 76 73 76 73 72 70 66 65 65 65 71 68 67 65 64 64
68 70 72 70 72 72 72 74 73 74 74 74 74 74 73 71 67 73 73 73 75 73 73 73 73 72 70 72 70 75 76 73 67 65 64 63 63 64 70 68 66 65 70
63 67 71 71 73 73 73 73 74 74 75 75 73 73 73 67 64 65 70 73 74 75 75 75 75 72 70 67 67 68 71 75 77 69 67 67 76 72 67 66 66 64 63
60 61 65 69 71 72 74 74 74 74 74 76 75 74 74 74 64 63 66 69 72 74 75 76 72 66 72 73 69 67 68 66 67 74 74 74 74 75 76 76 74 72 69
56 55 59 62 67 70 73 73 74 74 74 74 74 76 76 74 64 62 64 73 72 73 74 75 76 75 74 74 74 73 73 74 74 70 73 74 75 76 77 75 77 77 73
52 54 57 58 63 66 67 72 75 74 73 73 73 75 76 76 63 61 64 69 69 73 73 74 74 75 70 65 73 74 75 74 65 66 67 67 66 64 67 70 68 65 62
54 54 55 56 60 65 66 65 71 75 72 71 72 73 71 75 67 60 63 68 69 68 72 74 66 70 65 63 74 74 74 74 74 70 72 70 67 71 64 73 71 68 65
53 54 55 56 56 60 64 64 67 70 74 73 72 74 76 74 74 60 58 71 69 67 67 66 67 62 60 59 60 75 73 74 72 72 69 67 66 69 71 73 75 72 67
54 54 55 56 55 52 61 64 64 66 69 73 75 74 76 76 67 63 58 59 68 70 69 65 67 57 56 58 60 63 62 64 70 68 65 61 60 62 61 64 75 76 73
53 53 53 54 55 57 56 61 58 65 63 65 71 72 73 76 73 62 58 58 59 68 70 67 58 57 53 56 57 59 60 68 68 68 67 64 61 60 66 68 71 80 79
50 51 51 51 52 53 52 53 53 50 55 57 65 72 73 75 76 72 72 67 61 64 66 68 66 63 60 64 65 63 65 68 68 68 68 67 64 61 60 62 61 61 63
47 46 47 47 49 51 54 51 50 56 53 56 58 62 65 68 69 63 61 69 74 70 69 70 69 69 69 69 70 71 71 70 69 69 69 67 65 64 62 62 62 61 63
45 43 43 44 45 45 47 49 48 48 47 46 47 53 58 53 53 54 53 54 51 52 69 69 68 69 69 68 69 70 71 69 70 70 69 68 67 66 66 65 64 62 63
43 44 43 44 44 45 46 48 49 49 46 45 45 48 48 51 48 47 47 51 54 57 69 70 69 69 69 69 68 68 68 68 72 69 69 69 69 68 67 66 66 65 64
42 44 43 43 44 44 45 46 48 49 49 50 47 47 47 46 46 46 45 50 63 61 68 69 69 71 71 70 69 69 70 70 69 70 70 69 69 68 67 67 66 66 65
41 41 42 45 45 45 46 47 47 48 49 50 50 49 49 45 45 44 44 63 63 64 67 69 70 71 71 71 72 73 74 73 73 72 72 71 70 70 69 68 67 61 63
41 43 44 43 43 45 46 46 46 47 47 48 49 49 50 54 56 62 62 63 65 65 64 69 70 71 71 73 73 73 73 75 76 75 73 76 76 75 74 73 72 70 70
42 42 44 44 44 45 46 46 47 46 47 48 47 49 46 52 54 58 59 65 66 67 67 68 75 75 73 76 74 74 74 73 74 75 75 73 75 74 74 73 74 74 74
42 42 41 42 43 44 45 46 46 47 48 49 48 49 45 52 53 56 59 60 61 67 70 71 73 76 75 76 75 75 75 73 74 75 75 75 74 74 74 74 74 73 73
42 42 42 43 43 44 46 46 46 46 47 48 49 49 50 49 51 55 57 58 61 67 67 69 71 71 67 67 66 69 73 73 74 75 74 74 74 74 73 73 72 72 71
40 40 41 41 43 45 46 46 46 45 46 46 48 49 50 52 51 54 55 58 64 61 56 56 56 56 56 60 60 58 56 55 56 60 63 69 73 70 72 71 71 70 70
39 38 39 39 41 42 42 43 44 45 48 49 49 49 50 51 51 51 57 61 59 57 53 51 50 49 49 48 49 51 46 40 49 49 59 63 67 68 68 68 69 68 69
39 38 37 38 38 39 40 41 42 43 45 47 49 49 51 54 55 55 59 56 55 51 49 47 46 45 45 45 44 40 37 39 49 41 58 58 56 54 55 54 53 53 55

GFSGL_sfc_dewp_078.txt.gz
Dewpoint
73 73 74 74 74 75 75 76 76 76 72 70 66 67 73 75 76 76 75 73 73 74 76 75 74 75 72 74 73 73 71 72 70 71 72 77 76 77 75 76 77 75 74
72 74 73 74 74 74 75 75 77 77 76 73 69 69 73 75 75 76 74 73 73 74 74 74 74 71 75 76 74 74 74 74 73 71 73 72 72 73 77 77 76 70 73
70 71 72 73 74 74 75 75 76 76 76 74 75 76 76 75 76 75 75 75 73 73 75 75 74 75 75 74 76 75 73 73 74 72 71 73 74 73 74 76 77 77 74
68 70 71 72 72 72 75 76 75 77 76 75 75 76 75 75 75 75 75 75 75 74 75 75 75 75 75 75 74 75 73 74 73 73 71 70 71 72 75 73 73 72 71
65 68 69 69 73 76 76 76 76 75 75 76 75 75 75 74 70 74 75 75 74 73 74 74 75 75 72 73 73 75 75 74 72 71 70 70 70 73 73 74 72 73 72
61 64 65 70 72 73 75 75 77 75 76 75 75 75 74 71 66 66 72 74 75 75 73 75 75 73 71 67 67 68 72 75 74 73 72 71 72 74 74 73 72 70 68
59 58 61 65 67 70 73 75 76 76 76 75 75 75 74 74 66 63 66 71 73 75 75 74 73 68 72 73 67 66 66 66 68 72 71 72 72 73 74 74 73 73 72
58 57 58 59 62 67 70 69 71 76 76 76 75 75 75 74 66 64 64 71 73 73 74 75 74 73 74 75 75 74 72 72 71 69 70 70 71 72 74 73 73 74 74
56 58 58 57 57 61 67 68 69 71 74 75 75 75 75 75 65 62 64 70 70 72 73 73 73 75 70 66 73 73 75 75 69 66 67 66 66 64 67 73 71 70 67
55 57 59 60 59 59 61 65 67 69 70 73 74 74 70 74 67 62 63 71 70 69 70 72 66 69 64 62 71 72 72 72 74 74 71 68 66 68 64 70 71 70 69
55 55 57 58 59 61 62 61 66 67 68 70 70 74 74 73 74 61 60 73 71 70 70 69 69 62 60 59 60 73 71 71 70 73 72 71 70 72 73 72 72 71 69
55 55 57 58 55 54 59 61 61 63 64 66 69 70 72 74 67 65 59 60 68 72 71 70 70 59 57 58 59 61 61 64 71 70 70 69 69 68 66 66 73 73 72
53 54 54 55 55 56 57 59 58 59 61 61 62 62 66 70 72 63 60 59 59 68 72 69 63 59 55 56 56 57 58 66 68 68 68 68 69 68 68 66 67 75 76
52 52 52 51 51 52 52 52 52 54 52 53 56 60 65 72 73 75 75 72 63 64 65 68 67 65 62 64 65 62 62 66 67 67 67 68 69 69 68 66 63 61 61
48 48 48 47 48 50 51 51 52 54 53 53 54 56 56 59 69 64 62 67 66 66 63 71 71 71 70 70 69 70 70 69 68 68 68 69 69 69 68 67 64 62 64
43 43 43 43 44 45 46 47 48 47 46 45 44 48 52 50 49 48 49 49 53 53 66 70 71 71 71 70 70 69 69 69 71 70 70 69 69 69 68 68 67 65 64
42 42 41 42 42 44 45 45 46 48 47 45 43 44 44 45 44 44 44 46 48 52 64 68 70 71 72 73 73 71 70 70 72 71 71 71 70 70 68 68 67 67 68
41 43 41 41 42 43 44 45 46 47 48 49 48 46 45 43 42 43 43 46 58 55 64 65 67 69 69 70 73 72 71 71 72 71 71 70 70 70 70 69 69 68 68
40 40 40 41 42 43 43 44 44 45 46 48 50 49 49 44 43 43 43 57 60 60 61 65 67 68 69 70 71 73 73 72 73 73 74 72 73 72 70 69 68 62 64
41 42 43 42 42 42 42 43 43 44 45 48 47 48 51 51 52 54 58 60 62 61 61 62 63 64 70 71 71 74 74 73 73 73 74 74 76 75 72 72 72 71 70
40 40 42 41 41 41 42 43 43 43 45 45 46 49 45 48 51 52 54 56 59 65 66 67 68 70 73 73 73 74 73 73 73 73 73 73 74 73 73 74 72 73 71
39 41 42 42 42 42 41 42 43 43 44 45 45 46 44 48 50 52 53 54 55 58 61 68 67 69 70 74 74 73 72 72 72 73 73 74 74 73 73 74 74 73 73
35 37 37 38 39 40 41 42 43 44 44 44 44 45 46 47 50 50 51 53 54 55 56 59 66 70 68 67 67 66 66 68 68 67 68 71 71 73 73 73 73 73 73
36 36 37 37 38 39 39 40 41 41 43 45 46 45 46 47 48 49 50 51 54 54 57 64 62 62 60 59 60 57 59 59 57 61 63 66 67 68 72 72 73 72 72
37 37 37 37 37 37 36 37 38 39 41 43 44 45 46 48 47 47 48 51 54 58 61 59 56 55 54 53 53 52 48 42 46 48 58 62 63 66 68 70 70 70 69
40 40 39 37 36 37 37 35 36 37 38 39 40 42 43 44 47 49 48 49 54 57 56 54 52 50 50 48 47 42 35 35 43 39 52 60 62 62 61 60 58 57 56

GFSGL_sfc_dewp_081.txt.gz
Dewpoint
72 72 72 73 73 72 72 72 71 71 69 69 68 66 69 72 72 71 71 71 70 70 70 71 70 71 69 71 71 70 69 69 67 68 70 72 69 70 73 73 74 73 72
68 71 72 73 73 73 72 72 72 71 71 69 69 66 67 70 72 72 71 70 71 70 70 71 69 71 70 72 70 69 69 69 67 64 67 67 67 68 70 74 72 73 72
67 69 70 72 73 72 73 72 73 72 70 67 66 67 70 71 72 72 72 72 71 71 70 70 70 70 70 70 69 70 70 72 71 70 69 69 70 68 68 70 73 73 72
66 66 68 67 69 71 73 74 74 74 73 72 72 72 72 72 71 72 72 71 72 71 71 72 71 70 70 70 69 70 71 69 70 69 68 67 67 67 70 70 69 69 69
64 64 66 69 67 67 69 72 73 74 73 73 72 73 73 72 72 72 72 71 72 71 72 72 72 72 72 71 70 70 71 70 70 70 69 69 69 70 70 71 69 70 68
60 61 63 65 68 69 70 71 71 72 73 74 72 73 72 72 68 67 71 72 72 71 70 71 72 71 71 69 69 69 71 71 70 70 70 70 70 70 71 70 71 69 67
58 59 60 62 63 66 69 68 67 71 72 72 73 73 72 72 67 65 66 71 73 72 71 71 71 70 70 72 67 66 66 66 67 69 69 68 68 69 69 68 68 69 69
58 58 59 60 59 61 66 66 66 68 70 72 72 72 73 74 67 65 65 65 67 72 73 73 72 70 70 72 72 70 68 68 68 67 69 68 68 66 69 68 70 70 71
55 56 58 60 58 58 60 61 65 67 68 70 72 72 72 72 66 63 64 68 68 68 70 72 72 72 68 65 71 72 72 72 68 65 65 65 63 63 65 71 70 69 67
53 54 56 56 56 56 59 60 60 65 66 67 69 70 70 72 67 62 63 70 68 69 68 69 66 69 65 64 70 70 69 70 72 73 69 67 65 66 63 67 68 67 67
52 52 53 54 55 54 54 56 60 60 62 65 65 67 70 72 72 63 60 69 71 70 70 69 68 62 59 59 59 68 68 69 69 70 70 71 71 70 70 69 69 69 68
51 51 52 52 51 51 53 54 55 58 58 58 62 64 66 68 65 65 61 59 66 71 71 70 69 60 57 56 58 60 59 61 67 68 69 69 69 69 69 70 71 70 70
49 49 49 50 50 50 49 49 50 50 54 53 52 52 58 62 67 62 59 59 57 62 67 68 60 58 57 56 56 57 58 63 64 65 65 66 67 68 68 67 66 66 71
45 45 45 46 46 46 46 47 49 50 49 51 52 52 56 55 65 67 68 67 61 63 63 65 65 63 62 65 65 63 61 62 63 64 64 65 65 66 67 68 67 66 64
43 42 42 42 42 42 43 44 45 45 45 45 45 45 46 48 52 61 60 63 63 62 61 64 68 70 69 69 69 70 70 66 64 65 64 65 65 66 66 67 67 67 64
41 41 41 41 40 41 41 42 45 44 43 42 42 43 46 46 46 45 44 45 46 50 59 62 65 68 70 70 69 70 70 68 68 67 66 66 66 66 67 67 68 67 65
40 40 40 40 40 40 41 42 42 43 44 43 42 43 43 43 43 42 42 42 46 50 58 59 61 63 67 71 71 71 70 71 70 69 69 68 68 68 67 68 68 67 67
40 43 40 39 40 40 40 41 41 41 41 42 43 43 43 42 42 42 42 43 49 49 54 57 60 62 63 66 68 70 71 71 72 72 71 71 71 70 69 68 68 67 67
40 40 40 40 41 42 41 41 41 41 41 41 42 43 44 43 42 43 41 48 50 52 56 59 61 62 63 63 67 70 71 71 71 71 71 72 72 71 70 70 70 63 64
39 41 41 39 40 40 40 40 39 40 41 41 41 41 44 45 46 47 48 51 53 55 57 58 59 60 62 65 69 69 70 70 71 72 71 71 71 72 71 70 69 69 68
38 38 40 40 41 41 41 41 41 40 40 41 42 42 42 43 43 43 45 48 49 52 56 58 63 65 67 68 69 70 70 71 71 71 72 72 71 71 71 71 70 69 69
36 36 36 37 37 37 37 37 38 39 40 41 42 42 41 42 42 43 45 47 50 50 52 54 55 56 63 67 69 69 69 69 70 69 69 70 70 70 70 69 69 69 69
36 36 36 36 36 37 36 37 36 37 37 39 40 41 42 44 44 43 44 45 46 48 49 51 54 56 61 63 64 65 65 65 65 63 63 66 68 69 69 68 68 68 68
37 37 37 36 37 37 36 36 36 36 36 36 37 38 40 42 42 43 45 46 46 49 51 52 54 57 57 58 57 57 55 56 56 57 59 61 64 64 66 66 67 67 67
38 38 38 38 37 37 36 35 34 35 35 35 34 35 35 38 40 41 44 47 48 49 49 52 55 54 52 52 51 51 48 40 44 46 53 58 60 63 66 68 69 69 68
40 40 39 38 37 37 36 35 34 34 35 34 34 35 35 36 38 39 41 43 43 45 49 49 51 53 51 50 49 45 36 35 40 36 45 53 56 58 61 63 64 65 65

GFSGL_sfc_dewp_084.txt.gz
Dewpoint
68 68 71 72 71 71 71 71 71 70 71 70 69 68 69 70 72 72 70 70 69 69 68 70 69 70 69 70 69 68 68 68 65 66 70 69 68 67 68 70 72 73 72
68 69 69 70 71 71 71 71 71 70 69 69 67 66 66 68 71 71 70 70 70 69 69 69 69 69 69 70 70 69 69 69 67 66 67 67 67 68 69 68 70 72 73
67 67 68 68 70 70 70 71 72 70 70 69 67 66 66 67 70 71 71 70 70 70 69 69 70 68 68 69 69 68 69 70 70 69 68 69 69 67 68 69 69 71 69
66 67 67 67 66 67 69 70 71 70 70 68 66 66 66 67 70 71 71 70 71 71 70 70 70 70 69 68 69 68 68 69 68 68 68 67 67 68 70 70 68 69 69
65 66 66 67 67 68 68 67 67 70 72 70 69 69 69 70 70 70 72 70 70 70 71 72 71 72 70 68 70 69 69 69 68 68 68 68 69 69 69 70 69 69 68
61 61 63 65 65 66 68 68 68 68 71 72 72 71 72 73 68 68 70 71 70 70 69 70 70 70 70 68 68 68 68 69 68 68 68 68 68 69 70 70 68 66 64
59 59 60 60 61 61 65 67 66 66 68 70 71 71 71 71 67 65 66 70 71 71 71 70 69 69 69 70 69 66 66 66 67 69 68 68 67 68 68 66 66 66 66
58 59 59 60 60 61 61 62 63 66 67 68 69 70 71 72 65 64 65 67 68 71 72 71 70 70 70 70 69 70 70 68 67 67 68 68 68 68 66 65 64 66 69
53 55 56 57 57 57 60 61 62 63 63 64 66 68 69 70 64 61 64 68 68 67 68 71 72 72 68 63 68 70 70 71 68 63 63 63 63 62 64 68 67 67 67
51 52 53 53 54 54 55 57 60 61 62 63 64 65 64 67 64 61 63 68 68 69 70 69 65 68 64 63 68 69 68 69 70 70 71 65 63 65 62 66 67 66 66
50 50 50 51 50 50 51 52 55 57 59 61 62 64 65 65 66 61 60 68 70 71 68 70 69 62 59 59 60 70 69 68 67 69 70 70 71 70 70 68 68 68 68
48 48 47 48 47 48 48 48 48 49 50 53 55 58 62 64 61 62 59 57 63 69 71 71 71 60 55 55 57 59 59 60 66 66 67 68 69 70 70 70 70 69 69
44 44 44 45 43 44 44 45 45 45 45 46 47 46 47 54 56 61 57 58 59 64 67 65 59 56 55 59 59 57 57 62 63 64 64 65 66 67 68 69 70 71 70
42 42 42 41 42 42 42 43 43 44 44 43 43 43 43 45 48 57 55 58 61 61 62 62 61 61 59 62 63 66 63 64 65 66 66 66 66 65 65 66 67 67 66
41 41 41 41 40 40 41 42 42 43 43 43 43 44 44 45 46 46 45 48 49 54 51 57 60 60 61 64 68 69 69 68 66 66 66 67 66 65 65 65 66 66 66
40 40 40 40 40 40 41 40 43 43 43 42 41 42 42 44 44 42 40 41 42 44 51 54 56 58 59 60 63 67 69 68 69 69 68 68 67 66 65 65 65 65 65
39 39 39 40 39 39 40 40 39 41 42 41 40 41 41 41 41 40 40 41 42 47 52 54 56 56 56 58 62 65 68 71 71 70 70 69 69 67 66 66 66 67 67
40 42 40 39 40 40 40 41 41 40 39 39 41 41 41 40 40 40 41 43 48 48 49 50 51 53 55 58 59 61 63 66 69 71 71 70 70 70 69 69 68 68 68
38 39 39 39 39 41 40 40 40 39 39 39 39 40 41 40 40 40 41 45 47 48 50 52 53 55 56 58 60 63 65 66 66 68 70 71 71 70 70 70 69 62 65
38 40 39 39 40 40 40 40 40 40 39 40 40 40 41 41 41 41 42 43 44 44 46 48 51 57 59 60 61 64 65 66 68 69 70 70 70 70 70 69 69 66 67
38 36 37 36 37 37 37 37 37 36 36 36 37 38 39 39 39 42 42 42 43 45 45 48 51 51 54 57 63 65 66 67 68 69 69 70 70 70 70 70 69 69 69
37 36 36 36 36 36 36 36 36 36 35 35 34 35 36 37 39 40 41 43 43 43 44 46 48 48 49 52 56 59 59 61 65 68 67 66 67 69 69 67 67 67 68
37 36 36 36 36 37 35 35 35 34 34 34 34 33 34 35 36 37 39 41 43 44 46 46 46 47 49 54 58 60 59 59 59 60 61 63 63 64 66 66 66 65 65
38 37 37 36 37 36 36 35 35 34 34 33 33 33 33 34 34 33 34 36 39 40 43 46 46 47 49 50 54 56 54 54 52 53 54 56 58 59 62 64 65 64 64
37 37 37 37 37 36 36 36 34 34 34 33 33 34 33 32 34 34 34 35 36 37 40 42 43 47 48 49 53 52 49 42 45 44 48 51 53 56 58 61 64 66 66
38 38 38 38 37 36 35 36 35 34 33 33 33 33 33 33 34 34 34 34 35 36 37 39 40 43 44 46 51 48 39 36 41 36 44 48 50 53 55 57 59 61 63

GFSGL_sfc_dewp_087.txt.gz
Dewpoint
69 69 70 70 70 69 69 68 67 68 69 71 70 70 71 70 71 70 70 70 69 68 68 68 69 69 70 70 69 68 68 67 64 65 69 68 68 67 68 68 70 70 72
68 68 69 70 70 70 70 70 70 70 70 69 69 68 68 68 70 70 70 70 69 68 68 68 68 69 68 69 70 68 68 69 67 66 67 67 67 68 68 68 70 71 70
67 67 67 66 68 69 70 70 71 70 69 69 68 67 66 65 68 70 71 70 70 69 68 69 68 68 68 67 68 68 68 69 69 68 67 68 69 67 68 70 69 69 68
68 67 66 67 66 67 67 67 69 70 70 69 68 68 66 65 66 69 70 70 70 70 70 69 68 69 69 68 68 68 68 68 68 68 67 67 67 69 70 70 68 68 68
67 66 66 67 67 68 68 67 67 68 69 71 69 68 66 66 67 68 70 71 70 70 70 71 70 70 70 69 69 68 68 68 68 67 67 67 67 67 67 69 68 68 68
62 63 65 65 64 65 68 67 66 67 68 68 70 70 70 71 66 66 69 70 71 70 69 69 70 70 69 67 67 67 69 69 68 67 67 66 66 67 68 68 67 65 62
59 60 61 61 61 61 62 62 65 66 65 66 67 69 70 71 66 64 67 70 71 70 70 70 70 70 68 69 67 66 66 65 66 69 68 68 67 68 67 65 64 64 64
56 57 59 60 60 61 61 61 61 62 62 63 63 65 67 69 64 62 64 67 68 69 70 71 70 70 69 69 69 69 69 69 68 67 69 69 69 69 68 66 65 64 66
51 52 54 55 54 54 55 57 59 60 61 62 63 64 64 64 62 61 62 67 68 68 68 69 71 71 68 64 68 69 69 69 67 62 63 63 62 62 64 67 66 65 66
49 49 50 50 52 51 51 54 56 57 59 61 62 63 62 64 62 59 61 67 68 68 69 69 64 66 63 61 68 69 69 69 69 69 70 66 63 65 62 65 68 66 67
47 46 46 47 47 47 50 49 51 52 54 56 58 60 61 61 63 57 56 64 67 68 69 69 70 63 57 56 56 67 68 67 68 68 69 69 70 70 70 66 67 68 68
44 44 44 43 43 43 44 45 47 46 46 47 46 52 55 49 51 54 51 52 57 64 67 69 68 59 55 55 56 58 56 59 63 65 66 66 67 68 69 70 70 69 69
42 42 42 42 41 41 42 42 43 44 44 43 43 43 45 53 48 52 49 49 50 55 62 60 56 54 53 56 58 58 57 63 64 65 66 66 66 67 67 67 69 71 70
41 41 41 40 41 40 41 42 42 42 42 42 43 42 42 43 44 45 44 44 46 49 51 49 52 55 56 57 59 62 65 65 65 66 66 67 68 67 67 66 66 66 67
40 40 40 40 40 40 40 41 41 41 42 41 41 41 41 41 42 43 42 42 43 44 45 49 54 54 53 55 57 63 67 68 67 67 67 67 68 68 67 67 66 65 65
39 39 39 39 39 40 40 40 42 42 42 41 41 41 41 42 42 41 40 40 41 43 46 50 50 51 54 55 56 56 58 62 66 69 69 68 68 68 68 68 66 65 65
38 38 39 39 39 39 39 39 39 41 42 41 40 40 41 41 40 39 39 40 43 45 48 49 50 50 52 53 53 55 56 60 65 68 69 70 70 69 68 68 67 66 65
37 41 38 38 39 39 39 40 40 40 39 39 40 40 40 39 39 39 39 41 42 44 47 47 49 51 52 53 53 55 56 58 59 62 66 68 69 70 69 69 68 68 68
37 38 38 37 38 39 39 39 39 39 38 37 37 38 39 39 38 39 40 41 42 42 42 43 45 46 48 52 56 58 59 61 61 62 64 66 68 69 69 69 69 62 64
37 39 37 35 36 36 36 36 36 36 35 35 35 35 36 36 35 36 38 39 41 42 42 43 44 45 47 51 52 54 56 58 61 64 65 66 68 69 68 69 69 69 69
37 36 37 35 35 35 36 35 35 35 35 34 34 35 37 34 34 35 36 38 39 40 41 42 43 44 45 47 50 49 50 52 55 59 60 60 65 67 67 67 68 68 68
37 35 35 35 36 35 35 35 35 35 34 34 33 34 36 34 34 34 33 34 35 37 39 40 42 44 46 46 47 47 48 51 56 59 59 60 63 65 66 67 67 67 68
37 36 36 36 36 37 36 36 35 34 34 34 34 33 33 33 33 33 33 34 34 34 34 35 38 39 41 45 48 50 51 50 52 55 55 56 57 59 62 63 64 65 66
38 36 36 36 36 36 35 35 35 36 34 34 34 32 32 32 32 33 33 32 33 33 33 34 34 35 37 39 43 46 50 52 55 54 53 53 53 54 56 58 60 61 63
38 37 37 37 36 36 35 35 34 35 34 33 33 32 32 32 32 32 33 33 32 32 33 32 33 34 35 36 38 41 43 39 45 47 51 50 51 52 53 54 56 57 59
38 37 37 37 36 36 35 34 34 34 34 33 33 32 32 32 32 32 32 33 34 34 34 34 34 35 35 36 37 37 36 37 41 39 45 48 48 49 50 52 53 54 55

GFSGL_sfc_dewp_090.txt.gz
Dewpoint
69 69 70 70 70 70 70 70 70 70 69 70 71 72 72 71 72 71 72 71 71 70 70 70 71 71 71 72 72 70 70 70 68 69 70 71 72 73 73 73 73 73 72
68 69 70 71 71 71 70 71 71 71 71 70 71 71 71 71 72 72 72 72 71 70 70 70 70 69 71 72 71 71 71 71 70 70 70 70 71 72 72 73 71 70 71
68 67 67 67 68 69 70 71 71 71 71 70 70 70 70 69 70 71 72 71 71 71 71 70 71 70 71 70 70 70 70 70 71 70 69 70 71 70 71 73 73 74 71
67 67 67 67 68 68 67 68 68 70 71 71 70 70 70 69 68 69 71 71 71 71 71 71 71 70 71 71 70 71 70 70 70 69 69 69 69 71 72 71 70 72 71
67 68 67 67 67 68 68 68 68 68 69 71 71 70 70 68 66 68 70 71 72 71 71 72 72 71 69 70 71 73 71 70 70 70 70 70 70 69 70 70 70 70 70
64 65 66 65 64 65 66 66 67 67 67 69 69 70 71 71 67 65 68 71 72 71 72 72 72 70 70 67 66 67 71 72 72 70 70 70 71 71 71 70 70 69 66
61 61 62 62 61 62 62 62 64 63 64 64 65 66 67 69 63 63 65 69 71 72 72 72 71 70 70 72 68 65 66 65 68 72 71 71 71 72 72 71 70 69 68
54 55 57 58 58 60 60 59 61 62 62 63 63 64 65 66 62 61 62 68 69 70 71 72 72 72 72 72 71 71 72 72 71 68 71 71 72 73 73 72 72 70 69
49 50 52 54 53 53 55 56 57 58 60 61 62 63 64 64 54 54 60 67 69 70 71 71 71 71 68 64 71 71 71 71 67 63 64 64 63 62 66 70 69 69 68
47 48 48 50 51 52 52 54 56 56 58 61 61 61 58 60 52 51 56 61 64 68 70 71 65 66 62 59 68 70 70 71 71 71 71 69 65 67 61 68 70 68 68
46 46 46 46 46 47 50 50 51 52 54 54 54 56 56 53 54 50 50 51 53 60 65 67 68 59 56 55 56 66 68 69 68 68 69 70 70 71 71 70 70 69 69
45 44 44 44 43 43 47 46 47 48 48 48 49 50 51 51 53 49 48 48 50 53 55 57 58 55 53 54 57 59 58 58 64 66 67 68 69 69 70 71 73 71 71
43 43 43 43 42 43 43 44 43 45 44 44 44 43 43 44 45 48 47 47 48 50 52 50 50 48 49 54 56 55 57 61 62 63 63 64 67 69 71 71 72 73 73
42 42 42 42 41 42 41 41 41 42 41 41 41 42 42 43 44 44 43 44 45 45 48 48 49 51 53 55 57 59 61 63 64 64 65 66 68 69 69 70 69 69 69
41 41 41 40 41 41 41 41 41 42 42 41 41 42 41 41 41 43 41 41 42 43 46 49 53 53 52 54 55 57 59 61 62 64 66 66 67 68 68 69 70 69 68
41 40 40 40 40 40 40 40 42 42 42 41 40 41 41 42 41 40 39 40 40 42 48 49 48 49 50 51 52 54 55 57 58 60 65 67 67 67 65 67 68 68 67
40 40 40 39 40 40 39 39 38 40 41 40 39 40 40 40 39 38 38 39 41 44 47 44 44 44 47 50 51 52 54 56 61 62 63 64 66 67 64 64 67 67 67
41 41 39 39 39 38 38 38 38 37 36 36 38 38 39 38 38 37 38 39 41 42 42 42 43 44 45 47 48 49 55 56 57 60 62 63 64 65 66 67 69 69 68
39 39 37 37 38 37 37 36 36 35 35 35 35 37 37 37 37 37 37 38 38 39 40 42 43 43 44 45 46 48 50 53 54 53 56 59 62 64 65 66 66 60 63
39 40 36 36 36 36 36 35 35 35 34 34 34 34 35 35 34 34 35 36 36 36 36 38 40 42 43 44 45 46 47 48 48 48 50 53 57 62 62 62 63 66 67
37 40 38 36 36 36 36 35 35 35 34 34 33 34 37 34 33 33 34 34 34 34 35 35 36 38 39 41 43 45 47 47 48 48 49 52 56 58 59 60 63 65 67
37 37 37 37 37 37 37 37 36 35 34 34 33 34 35 33 32 32 33 33 33 33 34 35 35 33 34 36 39 40 42 44 47 49 50 48 50 54 55 57 59 59 63
37 36 37 37 37 37 38 37 37 36 35 34 34 33 33 32 32 32 32 33 33 33 33 33 33 33 33 33 35 38 39 40 43 45 47 50 51 54 55 55 55 57 59
38 37 37 37 37 37 38 38 38 36 35 34 33 33 33 33 32 33 32 32 33 33 34 34 34 34 34 34 34 34 34 37 39 40 39 43 45 47 52 53 54 54 57
38 38 38 38 38 38 38 38 38 37 36 35 33 33 32 32 32 32 33 33 32 33 33 33 33 33 33 33 34 34 35 34 36 35 38 40 41 42 44 48 51 53 53
40 40 40 39 39 39 39 38 38 38 37 35 34 34 33 33 33 33 33 33 32 32 33 32 33 33 34 34 34 34 33 33 35 34 37 38 39 42 45 46 48 51 52

GFSGL_sfc_dewp_093.txt.gz
Dewpoint
70 71 71 72 72 73 72 72 72 73 72 73 74 73 74 74 74 75 75 73 73 73 72 72 72 74 69 70 72 71 69 69 65 66 69 71 74 73 71 72 70 73 69
71 70 70 72 72 73 73 73 73 73 73 73 73 73 73 72 74 74 73 71 72 72 72 72 71 69 73 73 70 74 71 72 68 69 69 67 71 73 74 74 70 67 70
69 68 68 69 72 73 73 73 73 73 74 74 74 73 73 73 73 74 74 73 72 72 72 73 72 72 72 69 71 69 68 69 70 68 68 69 70 70 72 72 73 73 67
69 68 68 69 70 71 71 71 72 73 74 74 74 73 73 72 71 71 71 72 73 73 73 73 73 72 73 74 72 73 71 71 70 70 69 69 70 72 72 70 69 69 70
67 67 68 68 70 69 70 70 70 71 71 73 74 73 73 72 71 71 70 70 71 72 72 72 73 72 70 70 70 74 74 73 68 68 67 67 68 67 68 68 70 70 71
68 68 68 68 66 66 68 69 69 69 69 70 71 72 72 69 64 65 69 71 72 72 72 74 73 71 71 67 66 67 71 74 73 68 67 68 72 71 69 69 69 68 66
63 63 64 64 64 64 64 65 65 65 65 66 66 68 68 67 60 61 64 72 73 75 74 75 74 69 71 73 68 66 66 65 67 74 72 73 73 75 75 74 73 71 70
56 56 57 59 59 61 61 61 61 63 63 63 64 65 63 54 54 59 62 69 71 72 73 74 74 74 74 73 74 73 74 74 75 70 72 73 74 75 76 74 74 74 72
52 52 54 54 54 54 56 57 58 59 61 62 63 66 59 53 51 54 64 68 69 70 71 72 73 73 61 61 72 73 73 73 67 64 65 64 64 63 65 70 70 68 66
48 49 50 50 51 52 53 55 57 58 60 59 58 58 56 52 50 50 54 54 57 63 69 67 61 57 55 57 66 71 71 72 72 73 73 70 67 71 63 70 70 68 67
47 48 49 49 48 51 52 53 53 53 54 55 54 55 54 53 49 48 49 49 49 52 54 55 54 55 53 53 56 65 65 63 63 65 67 69 70 71 70 72 73 71 69
47 47 47 48 45 46 50 50 50 50 51 52 52 48 47 49 48 48 48 48 48 49 49 50 51 49 48 49 54 57 55 57 58 58 59 60 61 62 63 64 72 73 72
47 46 47 46 46 47 47 47 45 47 44 44 43 43 43 45 45 47 47 47 47 45 47 48 50 48 48 51 54 55 55 57 57 57 57 58 58 59 65 68 69 74 75
46 45 45 45 45 44 41 42 41 41 41 42 42 42 41 42 42 42 42 42 45 44 45 45 49 50 52 53 53 54 55 57 57 57 58 59 60 60 61 63 63 63 64
44 43 43 42 43 42 42 41 41 43 42 41 41 41 40 40 40 40 39 39 41 42 45 46 45 46 47 48 49 51 53 53 53 54 55 56 57 57 59 61 63 64 64
41 40 40 40 40 39 39 39 42 42 41 40 40 40 41 41 40 39 38 39 40 42 44 42 42 43 43 44 46 47 49 52 53 55 56 56 56 57 58 59 61 62 65
41 42 39 39 38 37 37 36 35 38 41 39 38 39 39 39 38 37 37 38 40 42 40 41 41 42 43 44 45 45 46 48 55 51 52 54 56 57 57 57 57 58 59
42 42 38 36 35 36 36 36 34 34 34 34 38 37 38 38 37 37 37 38 37 38 38 39 40 41 42 43 43 43 44 45 45 47 50 49 51 53 55 57 59 60 62
40 36 35 35 34 34 34 34 33 34 34 34 35 36 37 36 36 36 37 36 35 35 35 36 37 38 38 39 41 42 43 44 45 46 46 46 47 47 49 51 54 53 56
40 38 36 35 34 34 34 33 32 33 33 33 33 33 33 35 34 34 35 35 34 34 34 35 35 36 36 38 39 39 40 40 41 42 44 45 46 47 49 52 54 55 57
36 37 37 37 35 35 35 34 33 32 32 32 32 34 36 34 33 33 33 33 33 33 34 34 35 35 35 36 36 36 36 37 38 38 40 42 45 50 49 49 50 53 55
38 38 37 38 37 38 37 37 36 35 34 33 31 32 35 33 33 33 33 33 34 35 34 35 34 34 34 35 35 34 33 34 35 36 38 39 40 42 43 48 50 51 53
35 37 37 37 37 39 38 38 38 38 37 36 34 32 31 32 33 33 34 34 34 34 34 34 34 33 34 34 35 34 33 33 34 34 34 36 38 39 39 41 43 46 50
36 36 37 37 38 37 37 38 39 38 38 37 35 34 33 32 32 34 34 34 34 34 34 34 34 34 34 34 34 34 34 34 35 35 35 36 37 37 38 39 40 42 45
36 36 37 38 39 39 38 38 38 38 38 38 36 35 34 33 32 33 34 34 34 34 34 33 33 33 34 34 34 34 34 33 34 34 34 34 36 36 36 36 37 38 41
39 37 38 38 39 39 39 39 39 39 39 39 39 38 37 35 33 33 34 34 34 33 34 34 34 34 34 34 34 34 32 32 34 32 34 34 34 35 35 36 36 36 38

GFSGL_sfc_dewp_096.txt.gz
Dewpoint
71 71 72 71 69 70 70 70 71 72 74 75 74 71 72 71 71 73 73 71 72 72 72 71 71 72 66 63 65 65 64 63 62 62 66 68 73 72 71 71 69 68 64
71 72 71 71 71 69 70 70 72 72 75 74 73 74 73 71 72 72 71 70 72 70 70 71 71 66 71 71 66 71 69 69 65 70 70 66 71 72 72 73 68 64 65
71 71 71 71 71 71 71 70 71 72 72 70 71 72 73 72 72 73 73 72 71 70 70 70 70 70 71 67 68 66 64 64 66 64 64 64 66 68 70 73 71 71 66
70 70 69 70 71 71 71 72 71 73 73 71 71 71 71 73 72 72 72 72 72 70 71 70 70 70 71 72 71 71 70 69 69 65 64 62 62 69 68 64 62 63 65
70 69 69 70 71 71 72 72 72 72 72 73 73 73 73 72 69 73 72 71 71 71 71 71 70 70 70 70 69 73 74 69 65 62 62 61 61 63 67 64 64 63 67
70 69 69 70 70 70 70 70 70 70 71 72 72 73 73 70 62 64 70 71 72 72 72 73 72 71 70 68 67 67 70 75 72 68 65 65 72 70 67 66 66 64 64
66 67 67 67 68 67 66 66 68 68 69 69 70 71 67 64 56 60 64 71 73 73 73 73 70 65 71 71 68 66 67 66 67 75 71 71 74 76 74 73 73 70 68
61 60 62 63 64 65 64 65 66 66 68 68 67 68 62 53 53 56 61 70 71 72 73 73 73 73 63 68 72 70 71 72 75 71 72 73 75 75 77 74 75 75 72
57 57 56 56 57 60 61 63 65 66 66 66 67 64 60 54 50 52 61 68 70 71 70 66 68 67 57 57 71 72 72 71 67 64 64 64 63 63 66 70 69 66 64
52 52 53 55 55 55 57 57 60 61 63 62 63 60 55 55 49 49 54 58 63 64 69 66 57 56 52 53 65 68 70 71 70 69 70 69 68 72 64 73 71 68 67
50 50 50 51 53 53 55 55 57 59 60 60 59 59 57 54 49 48 49 47 48 54 58 58 57 51 49 49 52 61 63 61 60 62 64 65 66 68 67 72 78 76 70
51 50 50 50 46 49 54 54 55 56 56 58 57 53 52 53 47 47 47 47 47 48 49 49 50 48 48 49 51 54 53 55 57 60 60 60 61 61 61 62 70 69 68
49 49 49 48 51 52 52 51 48 52 48 48 46 46 48 48 47 47 47 47 48 45 47 45 48 48 48 51 52 54 54 57 58 58 59 59 60 61 64 66 69 74 74
49 49 48 48 49 50 45 45 45 44 44 44 44 43 43 45 43 40 39 41 46 44 46 45 47 49 50 52 52 54 55 53 53 52 52 54 55 55 55 56 56 58 59
46 46 46 43 46 46 45 43 43 44 42 43 43 44 42 43 38 38 38 38 39 41 44 44 43 43 43 44 45 47 48 50 50 50 51 52 52 52 52 53 53 54 55
43 41 40 40 41 41 41 39 42 42 41 40 40 39 41 38 39 39 38 38 39 42 43 41 41 42 42 43 43 44 45 48 48 51 50 49 49 50 52 54 54 54 54
42 43 37 38 37 39 39 38 36 36 40 39 38 38 38 38 38 37 37 38 39 41 40 40 41 42 42 43 43 42 42 44 50 45 46 46 48 47 46 47 48 50 52
44 42 38 37 35 36 37 37 36 36 37 37 37 38 37 37 37 37 37 38 38 39 36 37 38 39 39 40 40 40 41 42 42 43 44 45 46 45 45 45 46 47 48
41 36 36 35 35 35 35 35 34 35 36 36 37 37 38 37 37 37 37 37 36 35 35 36 37 36 37 38 39 40 41 40 40 41 42 42 43 44 45 45 45 46 50
41 41 39 35 34 34 34 32 32 34 34 35 34 33 34 37 37 37 38 37 36 35 35 36 36 37 38 39 38 38 38 37 37 37 38 39 40 41 42 44 44 45 46
36 36 41 35 34 33 33 33 33 32 32 34 32 34 34 36 35 35 35 35 35 35 36 36 37 38 37 37 38 37 36 35 36 36 36 37 37 37 39 40 41 41 42
36 36 36 36 35 36 35 35 34 34 33 33 31 33 36 34 34 35 36 36 36 37 36 37 36 35 35 37 37 35 35 35 35 35 35 35 36 36 36 37 37 37 37
35 37 36 36 36 39 37 37 35 35 35 35 35 33 32 33 34 35 35 35 36 36 36 36 36 34 35 35 35 35 34 34 35 35 35 35 35 34 34 35 35 35 36
36 36 37 36 37 36 36 37 37 37 36 34 34 34 34 34 32 33 34 35 35 35 35 35 35 35 35 35 34 34 34 34 35 34 35 34 34 34 34 34 34 35 35
37 36 37 37 37 37 37 35 35 36 35 35 34 35 34 35 33 32 33 34 34 34 35 35 34 35 35 36 36 35 35 33 35 34 35 35 35 35 35 35 35 35 36
40 38 37 37 38 38 37 37 37 37 36 36 36 36 37 36 35 34 33 33 33 33 35 34 35 36 36 35 35 34 33 32 35 33 34 35 35 35 35 35 35 35 35

GFSGL_sfc_dewp_099.txt.gz
Dewpoint
71 72 73 70 71 71 70 70 71 71 73 72 72 71 71 71 72 74 75 73 72 73 73 72 71 74 67 64 66 64 63 62 61 62 64 73 74 72 71 73 71 72 65
72 72 72 70 70 72 70 70 71 72 72 72 73 73 73 72 73 73 72 70 71 71 70 70 70 66 74 75 65 73 68 70 65 70 69 65 71 74 75 77 69 65 66
71 73 72 71 71 72 73 70 70 71 72 71 72 73 72 73 73 73 74 73 71 70 70 70 69 70 73 69 72 68 65 64 67 64 64 64 65 65 69 74 74 72 66
72 70 70 70 71 72 72 72 72 73 72 71 71 72 71 71 73 72 72 72 71 70 70 70 70 70 72 73 69 75 71 69 68 65 63 63 63 68 65 65 63 63 63
70 70 70 70 71 71 71 72 73 74 72 71 71 72 71 70 71 71 72 71 72 72 71 71 71 70 70 70 69 75 75 71 67 65 62 61 60 67 68 64 65 64 68
70 70 70 71 72 72 71 72 72 73 73 72 72 73 72 66 61 62 68 74 72 72 71 72 73 71 70 68 68 68 70 73 73 69 66 66 73 70 68 68 68 65 65
70 70 70 70 70 70 70 71 70 71 73 71 71 71 67 62 55 57 63 68 72 74 75 75 71 69 71 72 68 67 67 66 67 74 72 73 74 75 76 75 73 71 69
66 66 66 66 67 67 68 67 66 68 70 70 70 68 63 53 52 54 57 67 70 72 73 73 74 72 63 64 71 72 71 71 73 72 74 73 75 77 77 76 76 75 73
61 61 62 63 64 64 64 67 67 69 68 68 69 66 62 55 50 52 59 68 72 72 71 68 71 68 54 55 68 71 73 74 67 65 65 64 63 63 67 71 69 66 65
54 54 59 58 58 60 62 63 64 66 66 66 64 63 57 57 49 49 53 56 64 62 71 62 53 52 51 51 58 66 68 69 69 68 66 68 68 70 65 72 75 72 73
50 53 54 55 55 56 58 58 59 63 64 65 63 62 57 54 49 48 48 53 48 52 54 53 55 51 48 49 50 58 62 56 58 60 61 62 64 65 63 73 76 75 69
52 51 54 53 49 52 56 57 59 60 60 61 61 59 56 56 48 47 47 46 48 49 51 49 49 48 48 48 51 52 52 53 54 59 60 60 61 61 62 66 71 70 67
51 52 50 53 54 53 57 55 50 55 55 53 52 51 51 50 50 47 47 47 48 44 48 46 47 46 46 50 53 53 54 57 55 56 57 55 54 55 63 63 66 71 73
54 51 52 53 54 55 52 48 45 44 45 48 45 45 45 46 45 41 39 41 47 45 48 45 48 48 49 50 51 51 50 51 51 51 53 53 53 53 52 54 54 55 55
50 49 49 47 48 48 48 45 44 45 42 42 45 44 43 43 39 38 37 37 39 41 43 47 44 45 44 45 45 46 47 47 48 49 50 49 49 50 50 53 53 55 55
46 44 42 40 43 42 43 41 41 41 41 39 39 39 40 38 38 39 38 38 39 41 44 43 43 43 44 44 44 44 44 47 47 47 45 45 46 46 46 47 48 48 50
46 45 41 38 38 40 41 41 39 36 40 39 38 38 38 37 38 37 37 38 39 41 42 41 42 42 42 42 41 41 41 45 51 44 44 44 44 45 46 45 45 47 47
46 44 41 36 37 37 37 38 37 39 39 39 37 40 37 37 37 37 37 38 40 40 37 38 39 39 39 40 40 40 41 41 41 41 43 42 42 43 43 43 44 47 46
44 38 37 36 36 36 36 36 34 35 37 37 39 37 38 39 39 38 38 40 37 36 36 37 38 38 39 40 40 41 42 39 39 39 39 39 39 40 41 41 43 43 44
44 41 41 35 35 35 34 33 32 34 34 35 35 35 36 39 39 39 41 40 38 36 37 38 38 39 40 41 40 40 39 38 38 37 37 38 38 39 38 38 38 39 40
39 38 42 34 34 32 33 33 32 32 31 32 33 33 34 37 36 37 37 37 37 37 38 38 39 39 39 39 39 38 37 36 37 37 37 37 37 36 37 37 37 37 38
37 37 34 35 35 35 34 34 34 33 32 32 30 35 37 35 34 35 37 37 38 39 37 39 37 37 37 38 38 36 35 35 35 36 35 35 35 35 35 35 35 35 35
36 37 36 35 36 39 36 35 34 34 34 34 33 32 32 32 34 34 36 36 37 37 38 37 37 35 36 37 36 36 34 34 35 36 35 35 35 35 35 35 35 35 35
38 36 37 37 37 36 36 36 36 36 35 35 35 33 33 34 33 33 35 35 37 36 36 36 36 36 37 37 36 35 35 36 36 35 36 36 36 36 35 35 36 36 37
41 38 38 38 38 38 37 35 37 37 36 35 34 34 34 34 34 33 33 34 34 34 34 34 35 35 36 37 37 36 35 33 36 35 36 36 36 37 36 36 36 36 36
46 44 42 39 39 39 38 38 38 38 38 37 36 36 36 36 36 35 35 34 33 32 33 33 34 36 37 35 36 35 32 33 35 33 34 35 35 36 36 36 36 36 36

GFSGL_sfc_dewp_102.txt.gz
Dewpoint
72 72 75 74 73 74 75 75 76 72 69 69 73 74 73 75 75 76 76 75 73 73 74 73 73 75 73 72 71 69 70 70 68 70 69 70 70 70 73 74 75 74 72
72 73 72 72 73 74 72 71 73 75 75 76 77 75 75 74 74 75 75 73 73 73 73 74 73 68 74 75 74 73 73 73 71 69 71 71 72 74 75 76 73 68 71
72 72 72 74 73 74 74 72 72 73 76 75 76 75 74 75 74 74 75 75 74 74 73 73 73 73 73 73 73 73 71 70 71 70 69 70 69 69 70 72 73 71 71
70 71 71 71 72 71 72 72 73 74 73 73 75 74 74 75 74 74 74 74 74 73 74 74 74 73 73 73 72 73 71 72 71 71 71 70 70 70 72 69 65 72 71
70 70 70 71 70 71 71 71 72 71 72 72 73 74 70 68 66 67 70 72 73 73 74 73 73 71 70 70 72 74 73 73 71 69 68 68 70 70 70 71 71 70 70
71 70 71 72 71 71 71 71 70 70 71 71 71 72 69 65 59 60 64 72 74 73 74 75 76 71 71 68 67 67 70 72 72 73 72 70 71 73 72 72 72 70 69
71 71 71 71 71 71 71 71 71 70 70 70 71 68 60 56 54 56 60 66 72 73 73 74 73 70 65 66 70 68 67 66 67 72 71 71 72 73 74 73 73 73 71
68 70 70 70 69 69 69 68 68 70 69 69 69 66 61 51 52 54 58 66 70 73 74 74 73 64 57 57 65 71 73 74 73 71 71 73 75 75 74 73 73 73 72
62 62 65 66 66 66 67 68 68 69 67 69 69 67 62 52 50 51 59 65 73 72 69 59 65 59 54 53 64 67 69 72 68 65 65 63 62 62 65 70 69 70 68
55 56 60 61 63 64 64 65 66 68 70 66 64 62 59 54 49 49 51 58 62 60 66 60 53 51 50 51 57 60 64 65 62 59 61 63 65 68 64 69 70 70 70
55 56 56 56 59 60 62 62 63 64 68 66 64 61 56 54 49 48 48 52 50 57 57 55 54 50 48 49 50 55 61 56 57 57 60 62 66 68 67 72 74 72 70
53 53 56 56 57 54 59 60 61 62 63 64 64 63 59 54 50 47 47 48 49 50 55 57 53 47 46 48 50 53 52 54 58 59 58 56 55 57 57 65 68 69 70
52 53 52 54 55 56 56 57 58 59 57 59 59 58 57 54 48 47 46 48 49 49 51 48 48 46 46 48 51 53 53 59 59 55 54 55 58 58 57 58 61 63 63
53 53 51 52 53 55 55 58 56 54 53 54 55 55 56 55 51 46 43 43 46 47 46 46 50 51 51 50 52 59 59 59 57 54 52 52 53 53 54 56 53 52 51
53 52 53 52 51 52 43 41 46 38 39 41 42 47 46 45 39 37 37 38 39 41 41 49 55 53 51 50 51 50 52 51 49 49 50 50 50 50 50 51 51 52 52
51 49 49 48 50 50 48 43 41 40 40 39 39 40 38 38 38 38 38 38 39 40 46 53 52 52 50 50 49 48 48 48 48 47 47 46 47 47 46 48 49 49 49
53 56 48 47 47 49 49 47 41 36 40 38 38 38 37 37 38 37 37 38 39 42 43 53 52 50 49 49 47 47 45 49 53 47 48 47 45 45 43 43 43 44 44
53 45 48 46 43 48 48 46 45 41 39 36 37 40 38 39 39 38 38 39 43 43 46 47 48 48 47 46 46 44 45 47 44 45 44 44 43 43 42 42 42 41 41
50 45 44 42 46 44 46 44 40 43 46 43 39 37 38 38 40 38 38 41 48 44 44 44 45 44 45 46 46 47 48 44 45 44 43 42 42 41 41 40 40 41 41
50 48 45 43 41 42 40 39 39 42 43 43 43 42 41 41 41 44 49 49 46 42 43 44 45 46 47 47 46 46 43 42 42 40 40 40 40 39 39 38 38 38 38
45 46 44 39 39 37 38 38 38 37 37 39 39 37 35 37 41 44 45 45 44 42 46 45 48 48 46 45 45 42 39 39 39 39 38 38 38 37 38 37 37 37 37
47 44 41 40 39 42 39 39 39 38 37 37 36 32 38 30 37 41 44 43 42 46 43 47 43 43 42 42 42 39 38 37 38 38 37 37 37 36 36 37 37 37 37
46 42 41 39 39 42 41 39 37 37 37 37 36 34 34 33 38 39 40 39 42 42 43 43 42 40 41 41 40 40 37 37 37 37 36 36 37 37 37 37 37 37 36
47 44 41 40 40 38 38 39 39 37 36 36 37 37 37 37 36 39 38 39 41 40 41 41 41 36 40 39 39 38 37 36 36 37 37 37 37 37 37 37 37 37 36
52 47 44 42 41 40 40 37 38 38 38 37 37 38 36 37 37 37 37 38 39 39 38 39 39 36 36 37 38 38 34 34 37 35 37 36 36 36 36 36 36 36 36
53 52 47 46 45 44 42 42 41 41 41 40 39 39 41 40 39 39 39 38 37 37 36 37 36 35 35 36 37 35 33 33 35 33 34 34 36 37 37 37 37 37 37

GFSGL_sfc_dewp_105.txt.gz
Dewpoint
72 72 72 71 72 70 70 71 70 68 67 66 68 70 72 71 71 70 71 70 69 70 70 70 69 69 70 71 69 69 68 67 65 67 67 67 67 67 65 69 71 71 71
72 71 71 71 69 70 69 69 70 70 69 69 71 73 72 71 71 71 71 71 70 70 70 70 69 69 69 69 70 69 67 68 66 64 68 69 67 69 70 70 72 72 70
71 71 70 68 69 71 70 69 69 71 71 72 72 71 71 71 71 71 72 71 71 71 70 70 70 70 69 68 68 67 69 70 69 68 67 67 67 68 68 68 67 70 70
69 69 67 69 69 70 70 71 70 70 70 70 71 72 71 69 69 69 71 71 71 71 72 71 71 70 69 69 69 69 69 67 69 68 68 67 68 69 70 69 70 71 69
68 68 68 68 68 69 68 68 68 69 70 71 71 69 68 66 64 65 67 69 71 71 72 71 71 71 70 68 69 69 69 68 68 67 67 67 67 68 69 70 70 70 70
69 68 70 70 69 69 69 68 68 68 68 70 69 67 63 59 56 58 60 65 70 71 71 70 71 66 66 67 67 67 67 67 67 68 68 67 68 69 70 70 70 69 68
69 69 69 69 69 69 70 69 68 67 68 69 64 58 50 49 53 55 59 61 67 70 70 70 69 61 59 61 66 68 68 66 67 68 67 68 69 69 70 70 69 70 69
69 69 69 69 68 67 67 67 66 67 67 66 63 59 51 45 52 54 60 63 67 69 66 67 62 56 54 53 62 67 69 66 66 66 68 68 68 68 68 69 70 70 71
62 63 66 66 65 65 64 66 66 67 66 66 63 58 51 44 50 51 57 61 67 61 55 55 51 49 52 54 56 57 62 64 62 59 59 60 60 60 62 65 65 67 67
56 60 61 61 62 61 61 62 62 64 66 61 60 57 54 45 49 49 53 51 55 62 58 53 52 46 50 51 47 51 56 59 55 52 54 58 60 62 62 66 67 66 66
56 57 57 57 59 59 59 59 60 62 64 62 58 55 53 46 44 48 48 44 46 52 54 51 49 49 47 48 49 47 53 53 52 55 57 55 53 55 56 60 63 67 66
54 55 56 57 56 56 56 57 58 58 60 62 62 56 51 48 48 47 48 49 49 45 47 51 44 47 46 47 48 51 51 53 55 53 52 52 52 52 53 56 57 53 56
51 51 51 51 53 54 53 54 52 55 54 57 58 57 52 45 43 47 46 48 48 46 46 47 48 48 49 50 52 53 53 55 52 48 48 49 50 50 49 49 48 48 49
51 50 50 49 50 51 47 51 47 46 48 49 48 49 53 49 44 38 37 40 44 42 41 41 47 51 51 51 49 48 48 48 47 47 47 46 46 46 45 47 48 48 50
52 51 50 50 50 42 39 42 38 36 38 41 39 41 44 43 35 36 35 34 37 38 40 46 48 47 45 46 46 46 46 46 44 43 44 44 44 43 42 43 43 43 44
50 50 50 50 48 45 40 37 40 40 40 39 39 41 34 37 37 38 37 38 39 40 40 46 45 46 45 45 44 44 45 47 45 44 44 44 43 42 41 41 41 41 40
52 51 48 48 47 50 47 42 36 36 40 37 38 38 39 38 37 37 37 38 38 41 42 46 44 44 43 43 43 43 42 43 42 42 43 42 41 40 40 39 39 38 38
50 46 44 45 42 43 48 47 43 37 33 31 36 38 37 38 38 37 37 38 40 40 40 43 43 43 43 43 43 42 42 41 42 42 41 41 39 38 38 38 38 37 37
51 48 44 42 43 43 42 42 43 42 40 37 35 35 37 37 37 37 38 36 42 42 42 42 42 43 43 43 43 42 42 40 40 40 39 39 38 38 37 37 37 38 38
51 52 46 41 42 39 38 39 39 39 43 40 37 36 38 38 38 40 44 42 42 41 43 42 43 43 43 43 42 41 40 39 38 38 37 37 37 37 36 36 36 36 36
49 48 48 40 41 40 39 39 38 39 39 43 43 42 41 39 40 42 44 40 41 42 41 41 42 42 42 42 40 39 38 38 38 38 37 36 36 36 36 37 37 37 37
51 48 43 41 40 42 38 39 39 39 38 39 32 30 36 31 36 40 40 40 40 42 41 40 40 41 40 40 39 37 37 38 37 37 37 37 37 37 37 37 36 36 35
55 54 52 42 40 41 41 40 39 39 37 40 36 31 31 32 31 39 40 41 40 41 40 39 39 40 40 39 39 39 37 37 37 37 36 36 36 36 37 37 37 37 37
54 53 53 46 40 38 39 40 39 39 37 38 37 36 36 35 36 39 39 40 39 39 39 38 38 37 38 38 38 37 36 36 37 36 36 36 37 37 37 37 37 37 36
53 53 50 48 41 39 39 40 39 38 38 37 39 38 39 38 37 38 37 39 39 38 37 37 37 35 37 37 35 34 34 35 36 35 36 36 35 35 36 36 37 37 37
51 51 49 48 48 46 44 42 42 40 39 40 39 39 40 39 39 39 39 38 37 37 36 36 34 35 37 38 36 34 31 33 35 33 33 34 35 36 37 37 38 38 38

GFSGL_sfc_dewp_108.txt.gz
Dewpoint
70 71 70 71 71 70 69 69 69 68 67 68 67 66 69 70 70 70 70 70 68 68 69 69 69 68 69 70 69 69 67 67 64 66 67 67 66 66 67 67 69 69 71
70 71 71 71 71 70 70 70 69 68 66 65 66 69 71 71 70 70 70 71 70 69 68 69 69 69 68 69 69 68 68 68 66 63 66 68 67 68 68 69 70 70 70
70 71 71 70 69 70 69 69 69 70 70 69 70 71 71 70 70 71 71 71 70 70 70 69 69 69 69 69 67 66 68 68 68 67 67 68 67 69 69 69 70 70 71
70 70 70 69 69 70 70 69 69 70 69 69 70 70 69 67 67 67 69 70 71 71 71 71 70 70 69 68 68 68 68 67 67 66 66 66 68 69 69 69 70 70 70
68 68 68 68 69 69 69 69 69 69 68 69 68 67 65 64 63 63 66 67 70 70 71 71 70 69 67 68 69 68 68 67 67 65 65 66 66 67 67 69 69 70 70
68 67 68 68 67 66 68 69 68 68 67 69 67 64 60 57 55 57 59 64 67 70 70 71 67 65 66 64 65 66 67 66 65 66 66 66 66 67 69 69 69 68 67
68 68 69 68 68 68 69 68 67 66 68 64 58 53 48 49 54 56 59 60 66 69 68 69 65 57 57 59 64 67 67 66 66 66 66 66 67 68 69 68 67 67 68
68 68 68 68 68 67 66 66 65 66 66 61 57 53 44 45 53 57 62 65 65 63 65 61 56 52 53 57 59 62 66 64 62 61 61 64 64 65 64 64 65 67 69
66 68 68 67 66 65 65 65 65 65 64 62 58 53 44 42 51 55 59 66 61 55 54 50 47 46 52 54 50 54 58 59 56 55 56 57 58 59 61 64 66 65 64
61 62 64 64 64 62 62 61 62 65 65 62 57 52 48 41 49 51 51 56 60 57 55 53 52 45 49 50 44 46 49 52 52 54 55 54 54 54 58 61 63 63 63
58 58 59 61 61 59 59 59 61 63 61 59 56 53 45 42 43 49 48 43 48 52 52 51 46 50 48 47 49 47 50 52 53 54 52 51 50 51 51 52 56 58 57
56 57 58 58 58 57 57 58 58 62 61 59 53 51 48 44 46 48 49 49 49 44 46 46 44 48 48 49 50 51 52 54 50 48 48 47 48 48 49 49 49 49 50
52 52 54 53 53 54 53 53 52 56 58 59 59 53 46 42 43 46 48 48 48 44 42 45 48 47 48 49 51 51 50 47 46 45 45 45 46 46 44 46 46 46 49
49 48 49 50 47 44 47 49 45 44 47 46 46 53 48 49 42 35 34 35 39 38 41 43 50 51 50 49 46 47 47 46 44 43 43 44 44 41 41 43 41 41 43
49 47 47 46 42 39 40 41 37 36 40 40 42 43 46 42 36 36 34 33 36 38 41 47 45 44 44 44 45 46 45 43 42 43 43 42 42 41 40 41 40 39 38
49 49 50 49 48 39 37 35 39 38 38 38 38 37 33 38 38 37 37 38 38 40 42 45 45 44 43 43 42 42 42 42 42 42 42 41 40 39 38 37 37 37 36
47 47 47 48 46 46 42 37 34 34 38 36 36 37 39 37 36 36 37 37 39 40 42 45 42 42 42 42 41 41 40 41 41 41 40 38 38 38 37 36 36 36 35
50 48 44 47 46 47 48 44 41 35 32 29 34 36 36 36 36 37 37 39 40 40 42 42 42 42 42 41 41 41 40 39 39 39 38 38 38 37 36 36 37 36 36
49 48 47 42 42 42 44 47 46 41 37 33 33 34 36 36 36 36 37 37 42 42 41 41 42 42 42 41 40 40 39 38 37 37 37 36 37 36 36 36 37 37 37
49 51 48 44 40 39 38 39 40 42 40 38 33 31 33 36 36 38 42 42 41 41 41 42 42 41 41 40 39 39 38 37 37 36 36 36 36 36 36 37 37 36 35
52 50 52 45 41 41 39 37 37 38 43 41 38 36 38 36 37 41 41 41 41 41 41 41 42 41 40 39 38 39 38 37 37 36 36 36 36 36 37 37 35 35 35
51 51 52 49 43 40 39 38 38 37 38 42 42 40 40 37 38 39 42 40 41 41 40 41 41 39 39 39 39 38 37 36 36 36 36 36 36 36 36 37 37 37 36
52 51 51 49 45 43 41 40 38 38 38 39 38 36 35 30 31 39 40 41 41 40 40 40 40 39 39 39 39 38 36 36 36 36 36 36 35 36 37 37 37 37 36
52 52 51 50 49 45 39 39 39 39 38 39 35 33 30 31 32 36 40 40 40 39 39 39 39 38 38 37 37 36 36 36 36 36 35 35 35 36 36 36 36 36 37
51 51 50 50 51 50 44 39 39 39 38 38 37 34 33 34 34 38 39 39 39 39 38 37 37 38 37 36 35 34 34 35 35 35 35 35 34 35 35 35 35 37 37
48 48 48 46 46 48 48 44 41 40 38 39 39 38 37 37 37 38 38 38 37 37 36 37 36 36 37 35 35 34 32 33 35 33 34 33 33 34 34 35 35 36 37

GFSGL_sfc_dewp_111.txt.gz
Dewpoint
70 69 69 69 69 70 70 69 69 69 68 68 69 67 65 68 70 70 70 70 69 68 69 69 68 68 68 69 68 68 67 66 64 64 67 66 66 66 67 69 70 70 71
70 70 70 70 70 70 69 69 69 68 67 66 66 66 68 70 70 70 69 71 70 68 68 68 68 70 68 68 68 68 67 67 66 63 65 67 67 68 68 68 70 70 70
70 70 70 70 70 70 69 69 69 68 68 67 68 69 70 70 70 70 70 71 70 70 70 69 69 69 68 69 67 66 67 68 67 66 66 67 67 68 69 69 70 70 71
70 70 70 70 70 70 70 69 68 69 68 69 70 70 69 67 67 68 69 70 70 70 70 71 70 70 69 68 69 68 68 68 66 65 65 65 66 68 68 68 69 70 70
70 68 69 70 71 70 70 69 69 69 69 69 69 67 66 65 63 63 64 66 67 68 71 71 70 69 68 67 69 69 68 67 66 65 65 65 66 66 66 68 68 69 69
68 69 69 69 69 68 68 68 69 68 68 69 67 65 61 62 58 57 60 63 66 70 70 68 67 66 64 63 64 65 66 66 65 65 65 65 65 66 68 68 67 66 65
67 68 68 68 67 67 67 68 68 68 68 64 60 56 50 50 55 57 59 60 66 69 70 69 63 55 58 61 64 64 63 64 65 67 66 66 66 68 64 64 64 65 65
67 67 67 67 68 68 68 67 66 67 63 58 53 50 45 48 55 59 63 65 65 66 64 63 59 52 53 56 59 65 62 58 58 58 57 59 60 61 61 62 63 64 66
67 68 67 68 67 66 65 64 65 64 60 57 52 48 43 43 53 56 62 61 59 57 56 56 50 45 51 53 48 53 54 52 54 57 57 56 56 56 58 61 62 61 61
66 67 67 66 65 64 64 64 64 63 61 57 53 46 46 40 50 51 58 57 52 52 55 52 52 47 49 50 44 46 47 50 53 52 51 52 52 51 54 54 56 55 60
62 62 63 63 63 63 62 63 64 63 59 56 53 47 41 41 46 50 48 48 52 53 52 50 44 50 49 47 48 48 50 52 53 49 48 48 46 46 48 47 51 53 53
61 61 60 60 61 58 58 60 62 61 59 56 52 48 44 42 47 48 49 49 48 46 46 45 42 48 49 50 50 51 52 50 47 45 44 44 44 44 44 45 46 44 44
55 55 56 55 55 55 55 52 55 60 60 57 53 50 45 42 39 44 46 46 46 42 41 45 48 47 48 49 51 50 48 44 43 43 43 43 43 42 42 43 41 46 41
48 48 50 51 45 45 47 48 47 48 48 49 49 56 47 49 42 35 33 34 39 39 43 49 51 49 49 48 46 45 45 44 42 42 42 43 42 41 39 41 39 39 38
46 46 46 46 41 41 39 39 38 36 41 43 43 50 47 46 41 37 35 32 37 39 44 45 43 43 43 43 43 43 42 42 42 41 40 40 40 39 37 38 37 37 36
47 48 49 47 41 39 38 35 39 38 38 37 38 40 35 40 38 37 37 37 39 39 44 44 43 43 41 40 40 40 41 42 41 39 39 39 38 37 36 36 36 36 35
48 48 48 49 48 42 39 38 36 35 37 36 35 37 38 37 36 36 36 37 38 40 44 43 42 41 41 41 40 40 39 40 39 38 38 38 37 37 36 36 36 36 36
49 50 44 47 47 47 46 44 39 37 34 32 33 35 36 36 36 36 37 38 39 42 43 42 41 41 41 40 39 39 38 38 37 37 37 37 36 36 36 36 37 37 36
49 48 47 43 44 44 43 46 46 42 39 35 31 34 36 37 36 36 37 38 42 42 42 42 42 41 40 39 39 38 37 37 36 35 35 36 36 36 36 37 37 37 36
48 50 49 46 44 41 38 40 44 45 43 39 34 31 32 35 34 37 42 41 41 41 41 41 41 40 40 39 38 38 37 36 35 35 35 35 36 36 36 36 35 35 35
50 50 51 48 45 42 40 38 37 38 41 41 39 35 36 34 35 39 40 41 41 41 41 41 40 40 39 38 38 37 36 36 35 35 35 35 36 35 36 36 36 36 36
50 50 50 49 48 45 41 40 39 38 38 41 41 40 39 35 38 40 41 41 41 41 41 41 40 39 39 38 38 37 36 35 35 35 35 35 35 35 35 35 36 36 36
50 50 49 48 48 46 43 42 39 38 38 38 40 41 40 38 36 37 41 41 41 40 41 41 40 38 39 39 38 37 36 35 35 36 35 35 35 35 35 35 35 35 35
50 50 50 49 49 48 47 44 42 39 38 38 38 39 39 39 35 34 41 41 41 40 40 40 39 38 38 38 38 37 36 35 36 36 35 35 34 35 34 34 34 35 35
46 48 49 48 48 48 47 44 43 44 44 40 38 37 36 35 32 31 40 40 40 39 39 39 38 38 37 37 36 35 34 35 35 35 35 34 34 33 34 34 34 34 35
45 46 46 46 46 46 46 46 45 45 46 43 41 38 37 35 34 34 39 39 39 38 38 38 38 38 37 36 35 34 32 33 35 33 34 33 33 33 33 33 33 34 34

GFSGL_sfc_dewp_114.txt.gz
Dewpoint
69 69 69 69 70 70 70 70 70 71 71 70 70 70 69 69 71 72 72 72 71 71 71 70 71 71 69 70 70 70 69 68 66 67 69 70 70 71 71 72 72 73 72
70 70 70 70 71 70 70 70 70 70 69 69 70 70 68 70 72 72 71 72 71 71 70 70 70 70 71 70 70 71 70 69 68 67 68 70 70 71 71 72 71 70 72
70 70 70 70 70 70 70 70 70 69 69 68 67 68 69 72 72 72 72 71 72 72 72 71 71 71 71 71 70 69 68 69 69 68 68 70 69 70 71 71 72 73 70
70 70 70 70 70 69 70 70 70 69 70 70 70 71 71 71 70 70 70 71 71 71 72 72 72 72 72 71 70 70 70 70 69 68 67 67 68 70 70 70 70 71 70
69 70 69 70 70 70 70 70 70 70 70 69 70 70 68 68 66 65 67 67 68 70 71 72 72 70 68 68 71 71 70 70 70 68 66 68 68 68 69 70 70 69 69
69 68 69 70 69 69 69 69 69 69 69 69 68 67 66 64 57 58 60 64 66 69 70 71 68 66 65 63 65 65 67 70 69 69 68 69 69 70 69 66 68 67 66
68 68 68 69 69 69 69 68 68 68 68 68 66 62 57 55 56 57 59 61 66 69 70 69 65 61 61 64 64 63 62 62 64 70 69 68 65 67 64 65 66 67 67
67 68 68 68 68 68 68 68 68 68 66 63 58 53 52 54 55 59 63 66 66 63 64 64 60 59 59 58 66 65 59 59 60 58 61 61 60 60 63 65 66 67 69
66 67 68 68 68 68 68 67 67 65 61 58 55 52 52 51 52 58 63 63 60 58 56 57 56 52 51 53 58 61 56 57 56 56 56 55 54 54 56 60 58 63 64
66 66 68 68 68 66 66 66 66 63 60 54 51 50 47 49 51 52 59 57 54 54 56 55 52 51 50 50 52 54 55 55 55 54 52 52 53 52 54 56 58 61 63
63 63 63 65 65 65 65 66 66 62 58 55 51 48 48 48 48 50 50 56 57 57 54 52 48 50 50 47 50 55 55 55 52 50 48 46 47 47 47 48 49 51 51
61 60 60 60 61 63 63 63 64 62 59 58 50 46 45 45 47 48 48 49 49 51 51 48 46 49 50 49 52 51 50 50 48 45 44 43 43 43 45 45 47 46 45
57 57 58 58 59 58 58 59 61 60 58 54 51 48 46 45 42 43 44 44 45 46 44 46 48 48 48 49 50 49 48 47 46 44 43 43 43 43 44 44 45 46 45
50 53 54 55 53 52 53 51 57 55 57 58 57 54 48 48 46 42 39 40 43 44 48 51 50 49 48 47 47 47 46 46 45 43 43 42 42 39 38 40 38 41 37
47 47 46 43 43 41 39 42 41 38 43 47 47 53 51 49 47 41 38 38 39 41 48 48 46 46 44 44 44 44 44 43 42 42 41 39 38 37 37 38 37 37 36
47 48 48 45 42 42 41 39 39 38 38 37 38 44 42 41 37 36 36 37 39 40 47 46 45 44 43 43 43 42 42 41 41 40 39 38 37 36 36 37 37 36 36
50 50 50 48 46 43 42 42 43 41 37 36 35 37 37 38 36 36 36 37 39 41 46 46 44 43 42 42 41 41 39 39 41 39 38 37 37 37 37 37 37 36 36
50 49 48 48 48 48 46 45 43 42 42 41 36 36 35 36 36 36 37 39 41 42 46 44 43 43 42 42 41 39 39 38 37 37 37 37 37 37 37 37 36 36 36
50 50 49 46 47 47 47 47 47 45 43 41 37 36 37 37 36 36 37 40 41 43 44 43 43 42 42 41 40 40 39 37 36 36 36 36 37 37 37 36 36 36 36
51 50 50 48 47 45 43 42 44 46 46 44 42 38 35 36 37 38 42 44 43 44 43 43 43 42 42 41 40 39 38 36 36 36 36 37 37 37 36 36 36 36 36
54 52 51 50 47 45 43 42 41 41 43 44 43 42 37 37 37 38 43 43 44 43 44 43 43 42 42 41 40 39 37 36 36 36 36 37 37 36 37 37 37 37 37
53 52 52 51 51 49 47 45 43 41 40 40 41 42 38 35 37 39 43 43 43 44 44 44 42 41 41 40 40 38 37 36 36 36 37 37 37 37 37 37 37 37 36
51 51 52 52 51 50 49 48 45 43 42 41 40 40 40 38 37 40 43 43 43 43 43 43 42 40 40 40 40 39 37 36 36 37 37 37 37 37 37 37 37 36 36
48 48 50 51 52 51 50 49 49 44 43 42 42 41 41 42 40 39 41 43 43 43 43 43 42 40 40 40 39 38 38 37 37 37 38 37 37 37 37 37 37 36 36
47 48 49 50 51 51 50 50 49 48 47 47 46 45 46 43 42 41 39 42 43 42 42 42 41 40 41 40 39 38 36 35 37 36 37 37 37 38 36 36 37 37 37
47 47 48 48 49 49 49 48 48 48 48 48 48 47 46 45 43 40 39 42 42 41 41 41 41 40 40 40 39 37 32 33 36 34 37 36 36 36 36 37 37 37 37

GFSGL_sfc_dewp_117.txt.gz
Dewpoint
70 71 71 71 71 73 73 73 73 73 73 72 73 72 73 73 73 73 75 74 73 73 72 72 72 74 70 69 70 70 69 69 65 64 68 69 72 72 72 71 70 71 69
70 72 72 72 72 72 73 73 73 73 72 73 72 72 71 72 72 73 72 72 73 73 72 73 72 69 73 75 70 72 71 72 68 69 70 68 71 72 72 72 69 67 70
71 71 72 72 72 73 73 73 73 73 72 71 71 71 72 71 71 73 74 74 72 72 72 72 72 72 74 70 75 75 71 69 73 70 68 70 69 69 70 71 73 73 66
71 71 71 72 72 72 73 72 71 72 73 72 72 72 72 72 73 74 74 73 73 73 73 73 73 73 74 73 74 74 71 74 74 73 71 68 68 70 70 69 67 69 67
71 71 71 74 73 73 72 72 71 71 71 72 72 72 73 73 72 72 72 71 71 71 72 73 74 69 67 67 71 74 74 74 74 73 73 69 73 67 72 68 66 66 70
71 71 73 72 71 72 71 72 71 71 70 71 71 69 68 69 59 58 63 69 69 70 71 72 71 67 65 66 66 66 68 72 73 73 73 71 71 69 68 64 65 64 65
70 71 71 70 70 70 70 71 71 70 69 70 69 67 66 60 56 58 59 64 67 70 71 72 69 63 65 67 63 62 61 61 63 71 70 70 68 69 66 67 70 68 67
68 68 69 68 68 69 69 69 69 69 69 68 65 61 58 57 54 58 62 66 69 68 67 69 66 61 60 60 67 63 61 60 62 60 64 61 59 61 66 67 70 70 63
67 68 68 69 68 68 68 68 69 69 67 64 60 56 57 55 53 59 65 67 64 60 59 59 61 56 52 53 63 63 59 57 54 55 55 55 54 55 58 61 60 60 62
67 67 68 68 68 68 68 68 67 67 64 61 59 55 51 53 51 53 61 64 63 58 56 54 51 53 50 50 57 59 59 59 56 56 55 55 56 54 53 57 57 57 59
65 65 65 64 66 67 66 67 65 62 61 60 58 56 52 52 50 50 52 63 61 61 59 56 54 51 51 48 51 57 58 58 55 54 51 50 50 50 48 50 52 49 51
63 63 63 62 62 62 64 66 63 61 59 58 56 52 53 47 48 47 48 50 50 58 58 55 52 50 49 49 53 52 52 53 51 49 48 46 46 46 47 47 50 48 46
59 59 58 60 59 58 61 63 63 63 61 59 53 49 47 46 44 45 45 45 46 48 47 46 49 48 49 50 50 51 51 50 48 48 46 44 43 44 49 48 46 48 47
54 55 56 54 55 55 55 58 60 61 60 57 57 55 50 49 48 44 41 41 45 48 51 49 51 50 50 48 48 49 48 48 47 45 44 43 42 40 39 40 40 42 39
50 48 46 46 48 49 49 50 53 47 49 56 53 56 55 52 50 43 40 41 43 44 51 50 49 48 47 48 47 46 46 45 44 44 42 41 39 38 38 39 38 38 37
47 46 45 44 44 44 43 41 40 40 41 38 39 46 45 43 39 37 37 38 39 41 48 48 48 47 46 46 45 44 43 43 42 41 40 40 38 37 37 37 38 37 36
51 52 49 48 46 46 45 46 44 41 37 36 36 38 37 38 36 36 37 38 39 41 45 46 47 46 45 45 43 42 41 42 45 40 39 38 37 37 38 37 37 38 36
53 50 49 49 50 50 49 48 47 47 46 46 37 36 35 36 36 36 37 39 37 38 38 42 46 46 45 44 43 42 41 40 39 39 38 37 38 38 37 37 37 38 38
53 51 51 50 49 49 50 49 46 47 47 46 46 39 36 37 36 37 38 39 38 37 39 43 46 45 44 44 43 43 42 40 38 37 37 37 37 37 37 38 36 37 37
55 51 51 52 51 50 48 46 45 45 45 45 46 46 43 37 37 40 40 42 43 42 44 45 46 45 45 45 44 42 41 38 38 36 36 37 38 38 37 37 38 38 39
52 53 52 52 52 51 50 49 48 46 46 45 43 44 43 42 40 40 37 42 44 44 47 46 46 45 45 45 43 42 39 38 37 36 36 37 38 37 39 39 38 39 39
46 47 50 49 50 51 51 52 50 50 50 48 45 43 40 40 40 40 40 42 44 47 46 47 45 44 43 43 43 41 39 37 37 36 36 37 38 37 38 38 38 38 38
44 45 44 46 49 50 49 49 48 48 47 47 47 46 43 41 41 41 40 41 44 46 46 46 45 43 43 43 42 41 37 37 37 36 36 37 37 37 37 37 37 37 37
48 47 47 46 47 47 48 49 49 46 48 46 46 45 45 46 45 45 42 42 44 45 45 45 44 42 43 42 41 39 38 38 37 37 37 37 37 37 37 37 37 37 37
47 47 48 48 49 49 49 47 47 48 47 46 46 45 45 46 47 46 48 42 43 44 44 44 43 43 43 43 40 39 37 35 39 35 37 38 37 39 36 35 36 36 36
49 49 48 47 47 48 48 48 48 48 48 47 47 47 47 47 47 47 46 43 43 43 44 44 43 43 42 42 41 37 32 34 37 34 37 36 36 36 36 37 37 36 36

GFSGL_sfc_dewp_120.txt.gz
Dewpoint
69 70 70 70 70 71 71 73 74 75 74 74 74 73 73 73 73 75 74 72 72 72 72 71 72 73 68 64 64 65 64 64 63 61 62 67 71 70 70 70 68 69 70
69 71 71 71 71 70 72 72 74 74 75 74 74 73 73 73 73 73 73 70 71 71 70 71 71 67 72 73 68 70 68 70 66 68 69 66 70 71 71 72 68 64 68
70 70 71 71 71 71 72 72 73 73 73 72 73 73 73 72 73 73 74 72 72 71 70 71 71 71 71 71 74 70 68 70 73 69 67 68 68 68 69 71 71 72 66
70 71 71 71 71 71 72 73 73 74 73 73 73 73 73 72 72 73 73 72 72 71 73 71 71 71 72 72 72 74 72 74 74 70 70 70 68 69 68 66 64 67 66
70 70 71 72 72 74 74 74 73 73 72 72 72 72 73 72 70 73 73 72 72 72 72 73 72 71 68 69 75 74 73 70 66 65 66 69 74 67 72 69 64 65 74
70 70 72 74 74 74 72 74 73 72 71 71 71 71 71 70 59 58 62 69 71 71 71 71 73 68 66 66 67 67 69 74 73 73 71 68 72 74 72 65 64 63 69
70 70 72 73 72 73 73 73 72 72 73 72 71 71 70 69 57 57 58 64 68 70 71 71 72 67 68 70 63 62 60 61 62 68 73 73 72 70 68 69 71 71 70
70 70 72 71 71 72 70 70 70 71 70 71 71 69 69 66 55 58 62 64 68 70 70 71 72 69 62 62 67 64 63 60 62 63 67 64 62 63 67 67 70 70 66
68 69 69 70 70 69 69 69 70 70 70 68 64 61 60 58 53 58 64 68 67 64 62 64 64 62 51 53 64 67 61 57 53 55 55 55 54 55 57 60 60 59 70
68 69 70 70 70 68 69 68 69 69 66 62 59 59 57 60 53 53 60 67 66 64 64 59 50 57 52 51 61 64 63 62 57 57 57 57 58 56 56 59 55 55 56
69 67 66 67 66 68 69 68 66 62 60 59 58 57 57 55 53 52 52 64 62 63 62 60 57 52 52 49 50 60 61 62 59 59 56 54 55 53 50 53 55 49 50
65 65 65 65 65 66 66 63 62 61 59 57 56 55 55 54 48 47 48 49 51 60 61 60 58 51 50 50 53 53 54 55 54 53 52 51 51 50 49 50 53 51 49
60 59 61 62 62 62 64 64 61 61 59 57 56 56 56 57 52 46 46 48 48 48 49 49 51 50 50 51 51 52 52 53 54 52 50 50 49 47 52 50 50 51 50
56 56 55 58 58 59 59 60 61 62 61 60 58 57 57 52 50 53 51 46 45 48 51 49 52 50 49 51 50 51 53 53 52 51 49 47 46 43 43 44 44 44 41
50 49 50 52 51 50 49 52 53 49 52 59 59 61 58 55 52 45 44 46 47 46 50 51 49 52 49 52 52 51 50 51 51 50 48 50 44 43 42 42 42 41 39
46 44 44 46 46 46 46 42 40 46 47 45 45 51 48 45 39 38 38 38 39 41 47 47 47 46 46 46 48 47 47 45 48 45 45 42 41 40 39 41 41 40 40
52 52 48 46 45 46 46 45 44 37 39 37 38 38 39 41 37 37 37 38 39 40 42 43 45 46 46 46 46 46 44 45 49 43 43 41 41 39 36 38 40 39 39
53 50 48 48 48 49 48 47 45 46 46 45 35 39 37 37 36 36 37 38 38 39 36 36 40 45 46 46 46 44 44 44 43 43 41 40 38 38 37 38 38 39 38
55 53 53 52 50 49 51 49 46 46 46 46 47 39 37 36 36 37 38 37 37 35 35 36 39 42 45 46 46 46 46 42 42 40 39 38 38 37 39 37 36 36 38
56 53 53 55 53 53 52 50 49 49 48 47 45 44 45 41 41 43 43 43 41 39 38 40 41 44 45 47 47 46 44 42 41 39 37 38 39 37 36 36 36 36 39
49 51 51 46 47 47 47 47 47 47 46 47 46 48 44 44 42 42 41 41 41 41 42 43 45 46 47 48 47 45 43 40 40 38 37 37 38 35 38 39 38 37 38
39 39 39 40 42 43 44 44 44 45 44 43 42 44 41 45 45 43 42 42 41 43 43 46 46 47 46 46 46 43 40 39 39 38 37 36 37 37 37 37 37 37 37
38 39 40 41 42 45 43 42 41 42 42 42 42 41 40 41 41 43 44 43 42 42 43 44 46 44 44 44 43 41 38 38 38 37 36 36 36 36 36 36 36 36 36
41 41 42 42 43 42 42 43 43 43 44 43 42 42 42 42 41 42 43 44 46 45 43 44 44 43 42 43 41 40 39 38 38 37 37 36 35 36 36 36 36 35 35
42 42 44 43 43 43 43 42 42 43 43 42 42 42 41 42 42 42 42 43 44 45 45 44 46 45 44 44 40 40 38 35 38 36 37 36 35 37 35 34 35 35 35
44 44 43 43 44 44 43 42 41 41 41 42 43 43 44 44 44 46 45 45 46 45 44 44 44 46 43 42 41 37 32 35 37 34 36 36 35 35 34 35 35 34 34